GFSMW_con_lsi_000.txt.gz
Lid_Strength_Index
2 2 1 1 1 0 0 0 0 -0 -0 0 0 0 1 -0 -1 -1 -2 -2 -2 -2 -2 -2 -1 -2 -0 -0 -0 -0 0 1 -0 1 1 1 -0 -0 -0 -1 -1 -1 -1
3 2 2 1 1 1 0 0 0 -0 -0 -0 -1 -1 -0 -1 -1 -1 -1 -1 -1 -2 -1 -1 -1 -1 -0 -0 -0 0 1 1 0 2 2 4 2 1 0 -0 -0 -1 -1
3 3 2 2 1 1 1 0 0 -0 -0 -0 -1 -1 -1 -0 -0 -1 -1 -1 -1 -2 -2 -1 -1 -1 -1 0 -0 0 1 2 1 0 2 4 5 2 1 0 0 -0 -0
3 3 2 2 1 1 0 0 0 -0 -0 -1 -1 -0 1 1 0 -0 -1 -1 -2 -1 -2 -2 -1 -1 -1 -0 -0 -0 0 0 2 1 0 1 1 4 5 1 1 -0 0
3 3 2 2 1 1 1 0 -0 -0 -1 -1 -1 0 0 -0 -0 -0 -1 -1 -1 -2 -1 -2 -1 -1 -1 -1 -1 0 0 -0 1 1 1 1 1 1 3 5 3 1 0
3 2 2 1 2 1 1 0 0 -0 -1 -0 -0 -0 0 0 1 0 1 -0 -0 -1 -2 -1 -1 -1 -1 -1 -1 -1 -0 0 0 1 1 2 2 3 3 4 3 3 2
3 3 3 3 2 2 1 0 0 0 -0 -0 -0 -0 0 -0 -0 0 0 0 0 -0 -1 -1 -1 -1 -1 -1 -1 -1 -1 0 0 0 1 1 1 1 1 3 3 3 2
3 3 3 2 2 2 1 1 0 0 -0 -0 0 -1 -1 -0 -0 -1 0 0 0 -0 -1 -1 -1 -1 -1 -1 -1 -0 -0 -1 -0 0 0 1 0 0 1 2 3 4 3
3 3 3 2 2 1 1 1 0 0 -0 -0 -0 -0 -1 -1 -0 -1 -1 -0 -1 -1 -1 -1 -1 -1 -1 -1 -1 -0 -0 -0 -0 -0 0 0 0 0 0 1 1 3 5
3 3 2 2 1 1 1 0 0 0 -0 -0 -0 -0 -1 -1 -1 -1 -0 -1 -1 -1 -1 -1 -1 -1 -1 -1 -1 -1 -1 -0 -0 0 0 0 0 0 0 0 1 1 3
3 3 2 2 1 1 1 1 1 0 0 -0 -0 -0 -0 -1 -1 -1 -1 -1 -1 -1 -1 -1 -1 -1 -1 -1 -1 -1 -1 -0 -0 -0 0 0 0 1 1 0 1 1 1
3 2 2 2 2 1 1 1 1 1 0 -0 -0 -0 -1 -1 -0 -0 -1 -1 -1 -1 -1 -1 -1 -1 -1 -1 -0 -0 -0 0 0 0 0 1 0 1 0 1 1 1 1
3 3 2 2 2 2 1 1 1 0 0 -0 -0 -0 -0 -0 -0 -0 -1 -1 -1 -1 -1 -1 -0 -0 -0 -0 -1 -0 -0 -0 0 0 1 1 1 1 1 1 1 1 1
3 3 3 2 2 1 1 1 1 0 0 -0 -0 -0 -0 -0 -0 -1 -1 -1 -1 -1 -1 -1 -1 -1 -1 -1 -0 -0 -0 -0 -0 -0 1 1 1 1 1 1 1 1 1
4 3 3 3 2 2 1 1 1 0 -0 0 0 0 -0 -0 -1 -0 -1 -1 -1 -1 -1 -1 -1 -1 -0 -0 -0 -0 -0 0 0 0 1 2 2 1 2 1 1 1 2
4 3 3 2 2 2 2 1 1 0 0 1 0 -0 -0 -0 -0 -0 -0 -1 -1 -1 -1 -1 -0 -0 -0 2 0 -0 -0 -0 0 1 2 2 2 2 2 2 3 1 2
4 3 3 2 2 2 1 1 1 0 0 1 0 0 0 0 -0 -0 -0 -0 -0 -1 -0 -0 -1 -0 -1 1 0 0 -0 0 0 0 1 3 2 2 3 3 3 3 1
3 3 2 2 2 1 1 0 0 0 0 1 0 0 0 0 -0 -0 -0 -0 -0 -0 -0 -0 -0 -0 -0 2 1 0 -0 -0 0 0 0 1 3 2 3 4 4 3 2
2 2 2 2 1 1 0 0 1 1 1 1 1 0 -0 0 0 0 0 -0 -0 -0 -0 -0 -0 -0 -0 2 2 0 -0 0 0 -0 0 0 2 3 4 4 5 4 2
2 2 1 1 1 1 0 1 1 1 1 1 0 -0 -0 0 0 -0 -0 -0 -0 -0 0 -0 -0 1 -0 2 3 1 0 1 1 0 -0 1 2 5 6 6 5 5 3
2 1 1 1 1 0 0 1 1 1 1 0 -0 -0 -0 -0 -0 -0 -0 -0 0 -0 -0 0 -0 -1 -0 -0 3 4 0 1 1 1 1 0 4 7 8 7 4 5 5
2 1 1 1 1 0 1 1 2 0 -0 -0 0 0 0 0 0 -0 -0 -0 0 1 0 1 1 0 -1 2 3 4 4 2 1 1 1 1 6 8 8 6 6 6 5
2 1 1 1 1 0 1 2 1 0 0 1 1 1 1 -0 -0 0 0 1 1 1 2 2 1 1 0 -0 3 3 4 3 2 0 1 5 7 8 5 5 6 6 5
2 1 2 2 1 1 1 1 0 0 1 1 1 1 1 1 0 0 1 1 1 2 2 2 2 1 1 0 0 0 -0 2 2 1 1 1 3 5 4 3 3 4 5
2 1 1 1 1 1 1 1 0 0 1 1 1 1 1 1 0 -0 1 1 2 2 2 1 1 2 2 1 7 7 2 1 2 3 1 1 2 5 4 3 3 4 4
2 2 1 1 2 1 1 0 -0 -0 0 1 1 1 1 1 1 0 1 7 7 9 9 9 6 1 7 9 10 10 10 10 7 1 2 3 3 7 7 8 6 5 4

GFSMW_con_lsi_003.txt.gz
Lid_Strength_Index
2 2 1 1 1 0 0 0 0 -0 -0 -0 0 -0 1 -0 -0 -2 -2 -2 -2 -2 -2 -1 -1 -1 -0 -0 -0 0 1 1 0 1 2 1 0 -0 -0 -1 -1 -1 -1
3 2 2 1 1 1 0 0 -0 -0 -0 -0 -1 -0 0 -0 -1 -1 -1 -2 -2 -2 -1 -1 -1 -1 -0 -0 -0 0 1 1 0 2 2 4 3 1 1 -0 -0 -0 -1
3 3 2 2 1 1 1 0 -0 -0 -0 -0 -0 -0 -0 -0 0 -0 -1 -1 -1 -2 -2 -2 -1 -1 -1 0 -0 -0 1 2 1 0 2 5 5 3 1 1 0 -0 0
3 2 2 2 1 1 0 0 -0 -0 -0 -1 -1 -0 1 1 1 -0 -1 -1 -2 -2 -2 -2 -1 -1 -0 -0 -0 -0 0 1 2 1 0 1 2 4 5 2 1 0 0
3 3 2 2 1 1 1 0 -0 -1 -1 -1 -1 -0 -1 -0 -0 -0 -1 -2 -1 -2 -1 -1 -1 -1 -0 -1 -1 -0 -0 0 1 1 1 1 2 2 3 5 3 1 1
3 2 2 1 1 1 1 1 0 -0 -1 -1 -1 -1 -0 -0 0 0 1 0 -0 -1 -1 -1 -1 -1 -1 -1 -0 -1 -0 0 0 0 1 2 3 3 3 4 3 3 2
3 3 2 2 2 1 1 1 0 0 -1 -1 -1 -1 -0 -1 -0 -0 0 0 0 -0 -1 -1 -1 -1 -1 -1 -1 -1 -0 -0 0 0 1 0 1 1 2 3 3 4 3
3 3 2 2 2 1 1 0 1 1 -0 -1 -1 -1 -1 -0 -0 -1 0 0 0 -0 -1 -1 -1 -1 -1 -1 -1 -0 -0 -1 -0 0 0 1 1 0 1 2 3 4 4
3 3 2 2 2 1 1 1 0 0 -0 -0 -1 -0 -1 -1 -0 -1 -1 -0 -1 -1 -1 -1 -1 -1 -1 -1 -1 -0 -0 -0 -0 -0 -0 0 0 0 0 1 1 3 6
3 3 2 2 2 1 1 0 0 0 -0 -0 -0 -1 -1 -1 -1 -1 -1 -1 -1 -1 -1 -1 -1 -1 -1 -1 -1 -0 -1 -0 0 0 0 0 0 0 0 1 1 1 3
3 3 2 2 2 1 1 1 1 0 0 -0 -0 -1 -1 -1 -1 -1 -1 -1 -1 -1 -1 -1 -1 -1 -0 -1 -1 -0 -0 -0 0 -0 0 0 -0 1 1 1 1 1 2
3 3 2 2 2 2 1 1 1 1 0 -0 -0 -0 -1 -1 -0 -1 -1 -1 -1 -1 -1 -1 -0 -0 -1 -0 -0 0 -0 0 1 0 0 1 0 1 0 1 1 1 1
3 3 2 2 2 2 1 1 1 1 0 -0 0 -0 -0 -0 -0 -0 -1 -1 -1 -1 -1 -1 -0 -0 -0 -0 -0 -0 -0 0 0 0 0 0 0 1 1 2 1 1 1
3 3 3 2 2 2 1 1 1 0 0 0 0 -0 -0 -0 -0 -1 -1 -1 -1 -1 -1 -1 -1 -1 -0 -0 -0 -0 -0 0 -0 -0 0 0 0 1 2 3 2 1 2
3 3 3 2 2 2 2 1 1 0 -0 0 0 0 -0 -1 -0 -0 -1 -1 -1 -1 -1 -0 -0 -1 -0 0 -0 -0 -0 0 0 -0 -0 -0 -0 1 2 2 3 3 4
3 3 3 2 2 2 2 1 1 1 0 0 0 -0 -0 -0 -0 -0 -0 -1 -1 -1 -1 -0 -0 -0 0 1 1 -0 0 -0 0 1 0 -0 0 1 1 2 2 2 3
3 3 3 3 2 2 1 1 1 0 0 0 0 0 -0 0 -0 -0 -0 -0 -0 -0 -0 -0 -0 -0 -0 2 0 -0 -0 0 0 0 0 1 0 0 1 3 3 2 2
2 2 2 2 2 1 1 1 0 1 0 1 1 0 0 0 -0 -0 -0 -0 -0 -0 0 -0 -0 -0 -0 2 1 0 -0 0 0 0 0 0 0 0 1 3 4 3 2
2 2 2 2 1 1 1 1 1 1 1 1 1 0 0 0 0 1 0 -0 -0 -0 0 0 0 0 0 3 2 0 0 0 0 0 0 0 1 1 2 4 4 3 3
2 2 1 1 1 1 1 1 1 1 1 1 1 -0 -0 0 0 0 -0 -0 -0 0 0 0 -0 1 0 2 3 1 0 1 1 0 0 1 1 3 4 4 4 4 4
2 1 1 2 1 1 0 1 1 2 1 0 0 0 -0 -0 -0 -0 1 0 0 0 0 0 0 -0 0 1 3 3 0 1 1 1 1 0 3 5 7 6 4 4 4
2 2 2 2 1 0 0 1 1 0 -0 0 0 -0 -0 0 0 0 0 0 0 1 1 1 1 1 0 1 2 4 4 1 1 1 1 0 5 7 6 5 5 6 5
2 1 2 1 0 0 -0 1 1 0 0 0 1 0 -0 -0 -0 0 0 1 1 1 2 2 2 2 1 0 3 4 4 4 1 0 1 4 5 5 4 4 5 5 4
2 1 1 1 1 1 1 1 0 -0 1 1 1 1 1 1 0 1 1 1 1 2 1 2 2 2 1 1 1 0 0 1 1 1 0 1 3 4 5 4 3 4 5
2 1 2 2 2 1 1 0 0 0 1 1 1 1 1 1 1 1 1 1 2 3 1 1 1 2 2 2 7 6 2 1 2 4 0 1 1 4 4 5 4 5 6
2 2 2 1 2 1 1 1 -0 0 1 1 1 1 1 1 1 2 1 9 8 9 9 10 7 2 8 9 10 9 10 9 8 2 2 2 2 4 5 5 6 6 6

GFSMW_con_lsi_006.txt.gz
Lid_Strength_Index
3 2 2 1 1 1 1 1 1 -1 -0 0 1 1 1 0 -0 -1 -2 -2 -2 -2 -1 -1 -1 -1 0 0 0 0 1 1 0 2 2 1 1 1 0 -0 0 -0 -0
3 3 2 1 1 1 1 1 1 0 -0 -0 0 -0 -0 0 0 -0 -1 -2 -1 -1 -1 -1 -0 -0 0 0 0 0 1 1 1 3 3 5 3 1 1 0 0 0 -0
4 3 3 2 1 2 1 1 1 0 -0 -0 -0 0 -0 -0 0 -0 0 -0 -2 -2 -2 -1 -1 -0 -0 1 0 0 1 2 1 1 3 5 6 4 2 1 1 1 0
3 3 3 2 2 2 1 1 1 0 0 -1 -1 0 0 1 0 -0 0 -0 -2 -2 -2 -2 -1 -1 -0 0 0 0 0 1 3 1 1 1 2 5 6 2 2 1 1
3 3 3 2 2 1 1 1 1 0 0 -0 -1 -0 0 1 0 0 -0 -1 -0 -1 -1 -2 -1 -0 -0 -0 0 0 0 1 1 2 2 2 2 2 4 6 4 2 1
3 3 2 2 2 1 1 1 1 1 0 -0 -0 -1 -2 -0 0 1 1 1 -0 -0 -1 -1 -1 -1 -0 -0 -0 -0 0 0 1 1 1 2 3 3 4 4 4 4 2
3 3 3 3 2 2 2 1 1 1 1 0 -0 -1 -1 -1 -1 0 0 -0 1 0 0 -1 -1 -0 -1 -1 -0 -0 0 0 1 1 1 1 1 1 2 3 4 4 3
3 3 3 3 2 2 2 2 2 2 1 0 -0 -0 -1 -0 0 0 0 0 0 -0 -1 -1 -1 -1 -1 -1 -1 -0 0 -0 0 0 1 1 1 1 1 2 4 5 4
3 3 3 3 2 2 2 2 2 1 1 1 0 0 -0 -0 -1 -1 -1 -0 -1 -0 -0 -1 -1 -1 -0 -0 -0 0 0 -0 0 0 0 1 1 1 1 1 2 3 6
4 3 3 3 2 2 2 1 1 1 1 1 1 1 0 0 -0 -1 -1 -1 -1 -1 -1 -1 -0 -0 -0 -0 -0 0 0 0 0 0 1 1 1 1 1 1 1 1 3
4 3 3 3 2 2 2 2 1 1 1 1 1 0 -0 -0 -0 -0 -0 -1 -1 -1 -0 -0 -0 0 0 -0 -0 0 0 1 0 0 1 1 0 1 1 1 1 2 2
3 3 3 3 3 2 2 1 1 1 1 1 0 1 0 -1 -1 -0 -0 -1 -1 -1 -0 -0 0 0 0 -0 0 1 0 1 1 1 1 1 1 1 1 1 1 2 1
3 3 3 3 3 2 2 2 1 1 1 1 1 1 1 0 0 0 -0 -1 -1 -0 -0 -0 0 0 0 0 0 0 0 1 1 1 1 1 0 1 1 1 1 1 2
3 3 3 3 3 2 2 2 1 1 1 1 1 1 1 1 0 0 -0 -0 -0 0 -0 -0 0 0 0 0 0 0 0 1 1 0 0 1 1 1 1 1 1 2 3
4 4 4 3 3 3 2 2 1 1 1 1 1 1 1 0 0 0 -0 -0 0 -0 -0 0 0 0 0 0 0 -0 0 1 1 0 0 0 0 0 0 1 1 2 4
3 3 3 3 3 3 3 2 2 1 1 2 1 1 1 1 1 1 1 0 0 -0 0 0 0 0 0 1 -0 0 1 1 1 1 1 0 0 0 0 0 0 1 3
3 3 3 3 3 3 2 2 2 1 1 1 1 1 1 1 1 1 1 1 -0 0 0 0 1 1 0 2 1 0 0 1 1 1 1 1 0 0 0 1 0 1 2
3 3 2 2 3 2 2 2 1 1 2 2 1 1 1 1 1 1 1 1 1 1 1 1 1 1 1 2 2 0 0 1 1 1 1 1 1 1 1 1 1 1 2
2 2 2 2 2 2 2 2 2 2 2 2 2 1 1 1 1 1 1 1 1 1 1 1 1 1 1 2 3 2 1 1 1 0 0 0 1 1 1 1 2 3 3
1 2 1 2 2 2 2 2 2 2 2 2 2 1 1 1 1 1 1 1 0 1 1 1 0 2 0 3 3 1 1 2 1 1 0 1 1 3 4 2 3 3 3
2 1 1 2 2 2 2 2 2 2 1 1 1 1 1 1 1 1 1 1 1 0 1 1 1 1 0 0 1 3 1 1 2 2 1 1 3 5 5 5 2 4 4
2 2 2 2 2 1 2 2 2 1 1 1 1 1 1 1 1 1 0 1 1 2 2 1 2 1 1 2 2 3 3 2 1 2 1 1 6 7 5 4 5 5 4
2 2 2 2 2 1 1 2 1 -1 -0 0 1 1 0 1 0 1 1 2 2 2 1 2 2 2 1 0 2 3 4 2 1 1 1 4 6 6 4 5 5 4 4
3 2 2 3 2 2 2 1 1 -0 0 1 1 1 1 1 1 1 1 2 1 2 2 3 2 2 1 1 3 2 0 1 1 1 1 2 3 4 3 3 4 4 4
3 3 3 3 3 3 2 2 2 1 2 2 1 1 1 2 1 4 5 1 5 5 2 2 2 2 2 4 8 7 4 3 4 6 1 1 2 3 3 4 4 4 5
3 3 3 3 3 2 2 2 1 1 1 2 2 2 2 2 2 2 3 9 9 10 11 10 6 4 7 9 10 10 9 9 8 3 2 2 2 3 4 5 5 5 5

GFSMW_con_lsi_009.txt.gz
Lid_Strength_Index
3 3 2 2 2 1 1 1 1 1 1 1 2 2 2 1 1 0 0 0 0 -0 0 0 0 1 1 1 1 1 2 2 1 2 2 2 1 1 1 0 1 1 0
4 3 3 2 2 2 2 2 1 1 1 1 1 1 1 1 1 0 0 0 0 -0 -0 0 1 1 1 1 2 1 2 2 1 3 3 5 3 2 1 1 1 1 0
5 4 4 3 2 2 2 2 1 1 1 1 1 1 1 1 1 1 2 2 1 -0 0 0 0 0 1 1 1 1 2 3 2 2 3 6 7 4 2 2 1 1 1
4 4 3 3 3 2 2 1 1 1 1 1 2 2 3 4 2 1 1 1 0 0 0 0 0 1 0 1 1 0 1 2 3 2 1 3 3 6 6 3 2 1 1
4 4 3 3 2 2 2 1 1 1 1 4 1 2 3 2 2 1 1 1 1 1 0 0 1 1 0 1 1 1 1 1 2 3 3 3 2 3 5 6 4 2 1
4 3 3 2 2 2 2 2 2 3 3 3 1 2 2 2 2 2 2 2 2 1 0 0 0 1 0 1 1 1 1 1 2 2 2 3 4 4 4 5 4 4 2
4 4 4 3 3 3 2 2 2 3 2 1 1 1 2 2 2 2 2 2 2 2 1 0 1 1 1 1 1 1 1 1 2 2 2 2 2 2 3 4 4 4 3
4 4 3 3 3 3 2 2 3 3 2 2 2 1 1 1 1 1 2 2 2 1 1 1 1 1 0 0 1 1 1 1 2 2 2 2 1 2 2 3 4 5 4
4 4 3 3 3 3 3 2 3 2 2 2 1 1 1 1 2 1 2 1 1 1 1 1 1 1 1 0 1 1 1 2 1 1 1 2 2 2 2 2 2 4 6
4 4 3 3 3 3 2 2 2 2 2 1 1 1 1 1 1 1 2 1 1 1 1 1 1 1 1 1 1 1 1 1 1 1 2 2 2 2 1 2 2 2 3
5 4 4 3 3 2 2 2 2 2 2 1 1 1 1 1 1 1 1 1 1 1 1 1 1 1 1 1 1 1 1 1 2 2 2 2 2 2 2 2 2 3 3
4 4 3 3 3 3 3 2 2 2 2 1 1 2 2 1 1 1 1 1 1 1 1 1 1 1 1 1 1 2 1 2 2 2 2 2 1 2 2 3 3 3 2
5 4 4 3 3 3 3 3 2 2 2 1 2 2 2 1 1 1 1 1 1 1 1 1 1 1 1 1 1 1 1 2 1 1 2 2 2 3 3 2 2 2 2
5 4 4 4 3 3 3 3 3 2 2 1 2 2 2 2 1 1 1 1 1 1 1 1 1 1 1 1 1 1 2 1 1 1 2 2 2 2 3 3 3 3 3
5 5 5 4 4 3 3 3 4 3 2 2 2 2 1 1 1 1 1 1 1 1 1 1 1 1 1 1 2 1 1 1 1 1 1 1 1 0 1 2 2 3 2
5 5 5 4 4 3 3 3 4 4 2 2 2 2 2 1 1 1 1 1 1 1 1 1 1 1 1 1 1 1 2 1 2 2 2 1 0 1 0 0 0 1 2
5 5 5 4 4 3 3 3 4 3 2 2 2 2 2 2 2 1 1 2 2 2 2 2 2 2 1 2 1 1 1 2 2 2 2 1 1 1 1 1 0 0 0
5 5 4 4 3 3 3 3 2 3 2 2 2 2 2 2 2 2 2 2 2 2 2 2 1 2 1 2 3 1 2 1 1 1 2 2 2 2 1 2 2 2 1
4 4 4 4 3 3 3 3 4 4 2 3 2 2 2 2 2 2 2 2 2 2 2 2 2 2 2 3 3 2 2 1 2 1 1 1 2 2 3 3 3 3 2
4 4 4 3 3 3 3 4 4 3 3 3 2 2 2 2 2 2 2 2 2 2 2 3 1 2 3 3 3 2 2 4 2 1 1 1 3 4 4 4 3 3 3
4 3 3 4 3 3 3 4 4 3 2 2 2 2 2 2 2 2 2 2 2 4 3 2 2 2 2 3 3 3 3 2 2 3 2 2 5 5 5 5 3 4 4
4 4 4 4 3 3 3 4 4 2 2 2 2 2 2 1 1 2 2 2 2 3 2 3 2 3 2 3 4 3 4 2 4 3 2 4 6 6 6 5 4 4 4
4 3 4 4 4 3 3 4 6 6 3 2 3 2 2 2 3 2 2 2 2 2 3 3 3 4 3 3 3 4 4 3 4 3 3 5 6 6 5 3 4 3 4
4 5 6 6 6 5 5 5 4 4 3 3 2 2 2 2 2 2 3 3 3 4 3 3 4 3 3 6 6 5 4 3 4 4 6 4 4 4 4 3 3 3 4
4 4 5 4 4 4 5 4 3 2 3 3 2 2 2 3 5 7 6 4 8 6 4 5 5 5 6 6 8 7 6 6 7 8 5 3 5 6 6 4 4 5 4
4 4 4 4 3 4 3 3 3 3 4 3 2 3 3 4 5 7 8 10 9 11 11 10 6 7 7 8 9 9 10 10 9 7 6 6 6 6 5 6 6 6 5

GFSMW_con_lsi_012.txt.gz
Lid_Strength_Index
3 3 2 2 2 1 1 1 2 1 1 1 2 2 3 2 1 1 0 1 0 -0 0 0 0 1 1 1 1 1 2 2 1 3 3 2 1 1 1 1 0 0 0
4 4 3 2 2 2 2 2 1 1 1 1 2 1 1 1 1 1 0 0 0 0 -0 0 1 1 1 2 2 2 3 2 2 3 4 5 3 2 1 1 1 0 -0
5 4 4 3 2 2 2 2 1 1 1 1 1 1 2 2 3 3 2 2 1 -0 0 1 1 1 2 2 2 2 2 3 2 2 3 6 7 4 2 2 1 1 0
4 4 4 3 3 2 2 1 2 1 1 1 1 3 3 4 3 3 2 1 0 0 0 0 1 1 1 2 2 1 2 2 3 3 2 3 3 6 6 3 2 1 1
5 4 4 3 3 2 2 1 2 1 1 1 2 4 6 4 3 2 2 3 2 0 0 1 1 2 1 1 1 2 2 2 3 3 3 3 3 3 5 6 4 2 1
4 4 3 3 3 2 2 2 2 2 2 4 5 6 4 3 3 3 3 2 3 1 1 1 1 0 1 1 1 1 1 2 2 2 3 3 4 4 4 5 5 4 2
5 4 4 4 3 3 2 2 2 2 3 6 5 4 2 3 3 3 2 3 3 3 2 1 1 1 1 1 1 2 2 2 2 2 3 2 3 3 3 4 4 5 3
4 4 4 3 3 3 2 2 2 2 4 6 5 2 2 2 2 2 2 3 3 2 1 1 1 1 1 1 1 2 2 2 2 2 2 2 2 3 3 3 4 5 5
4 4 4 3 3 3 3 2 2 3 4 5 3 3 2 1 1 2 3 3 2 1 1 1 1 1 1 1 1 2 2 2 2 2 2 2 2 3 2 2 2 4 7
4 4 4 3 3 3 2 2 2 3 4 3 3 2 1 1 2 2 2 1 2 2 1 1 2 1 1 1 1 2 2 2 2 2 2 2 2 3 3 2 2 3 4
5 4 4 3 3 2 2 2 2 3 4 2 2 1 1 2 2 2 2 2 2 1 1 1 1 2 2 1 1 2 2 2 2 2 2 2 2 3 3 3 3 3 3
5 4 4 3 3 3 3 3 2 3 3 2 2 2 1 2 2 2 2 2 2 1 1 1 1 1 1 2 2 2 2 2 2 2 2 2 2 3 3 4 4 4 4
5 4 4 4 4 3 3 3 2 3 3 2 2 2 3 3 3 2 2 2 2 2 1 2 2 2 2 2 2 2 2 2 2 2 2 2 2 3 4 4 4 4 3
5 5 4 4 4 3 3 3 2 3 3 2 3 2 3 2 2 2 2 2 2 2 2 2 1 2 2 2 2 2 2 2 1 2 2 2 3 3 3 3 3 4 4
5 5 4 4 4 4 3 3 2 2 3 3 2 3 2 2 2 2 1 2 2 2 2 2 2 2 1 1 2 2 1 2 2 2 2 1 1 1 1 2 3 4 4
5 5 5 4 4 4 3 3 3 2 3 4 3 2 2 2 2 1 1 2 2 2 2 2 2 2 1 1 2 2 3 2 2 2 2 2 0 0 0 0 0 1 3
5 5 5 4 4 3 3 3 3 3 3 3 3 2 2 2 2 1 2 2 3 3 2 2 3 2 2 2 2 1 2 3 2 2 2 2 1 1 2 1 0 0 0
6 6 5 4 3 3 3 3 4 3 4 4 3 2 2 2 2 2 2 2 2 2 3 3 2 3 2 3 3 2 2 2 2 2 1 2 2 2 2 3 3 3 3
5 5 4 4 3 3 3 4 4 4 4 4 3 2 2 2 2 2 2 2 2 3 3 3 2 3 2 4 3 3 3 3 3 2 2 2 2 2 2 4 4 4 3
4 4 4 3 4 4 3 4 5 5 5 4 3 2 2 2 2 2 2 2 3 2 3 3 3 2 2 4 4 4 3 4 4 3 2 2 3 4 4 5 5 4 3
4 4 4 4 4 4 3 5 5 5 4 4 2 2 2 2 2 2 2 2 3 4 3 3 2 1 2 2 4 4 4 3 3 3 4 4 4 5 5 5 6 3 3
4 4 4 4 4 4 5 6 6 4 4 2 2 2 2 1 1 2 2 3 3 4 4 4 3 1 3 5 5 4 5 3 4 4 4 5 5 6 5 5 3 3 3
4 4 6 6 4 5 6 7 7 5 4 5 5 5 3 3 2 2 3 3 4 4 4 4 3 4 4 6 6 6 5 4 5 4 5 5 6 6 6 4 3 2 3
5 5 5 5 6 6 6 7 5 5 4 4 3 3 2 3 2 2 3 4 4 4 4 4 5 5 6 7 7 6 6 4 5 5 7 4 5 5 5 5 4 3 4
4 6 6 7 7 6 5 5 5 4 5 3 3 3 3 2 4 6 6 6 9 7 5 6 5 5 7 7 8 8 6 6 7 7 5 6 7 8 8 7 5 4 6
6 7 6 5 5 5 5 4 4 4 4 4 3 4 2 3 6 8 10 11 11 11 11 9 8 8 8 9 9 9 10 10 9 7 7 8 9 9 9 9 7 7 7

GFSMW_con_lsi_015.txt.gz
Lid_Strength_Index
4 3 2 2 2 2 2 1 2 1 1 1 2 2 2 2 2 1 1 1 1 0 1 0 1 1 1 2 2 2 2 2 2 3 3 2 2 1 1 1 0 0 -0
4 4 3 2 2 2 2 2 1 1 1 2 2 2 2 2 2 1 1 0 1 0 0 0 2 1 2 2 2 2 3 3 2 3 4 5 3 3 2 2 1 0 -0
5 4 4 3 2 2 2 2 2 1 1 2 2 2 2 2 3 3 2 2 0 -0 -0 2 2 1 2 2 2 2 3 3 3 2 4 6 7 5 3 2 2 1 1
4 4 4 3 3 2 2 1 1 1 1 2 2 2 3 4 4 4 4 4 2 0 0 0 1 2 2 2 2 1 2 3 4 3 2 3 3 6 6 3 2 1 1
4 4 4 3 3 2 2 2 1 2 2 2 1 2 4 4 4 4 4 3 3 1 1 1 2 2 1 2 2 2 2 2 3 3 3 4 3 4 5 6 4 2 1
5 4 3 3 3 2 2 2 2 2 2 2 2 3 5 6 4 4 4 4 3 2 0 1 2 1 2 2 2 2 2 2 3 3 3 3 4 4 5 5 5 4 3
5 4 4 4 3 3 2 2 2 2 2 2 3 4 6 5 3 4 4 3 2 3 3 3 1 1 2 1 2 2 2 2 3 3 3 3 3 3 4 4 5 5 3
5 5 4 4 3 3 3 2 2 2 2 3 5 7 5 4 3 3 2 3 3 3 2 2 1 2 1 1 2 2 3 2 2 3 2 3 3 3 3 3 4 6 5
5 5 4 3 3 3 3 2 2 2 2 4 6 7 4 4 3 2 2 3 3 1 1 1 2 1 1 1 1 2 2 2 2 2 2 3 3 3 3 3 3 6 8
5 4 4 4 3 3 2 2 2 2 2 5 6 6 4 3 2 1 3 3 2 2 2 2 2 2 1 2 2 2 2 3 3 2 2 3 3 3 3 4 4 4 6
5 4 4 3 3 3 2 2 2 2 4 4 6 6 3 3 2 2 3 2 2 2 2 2 2 2 2 2 2 2 2 2 3 3 2 3 3 3 4 4 5 5 5
5 4 4 3 3 3 3 3 2 2 3 4 5 5 3 3 3 2 2 2 2 2 2 2 2 2 2 2 2 2 2 2 3 2 2 2 2 3 4 4 5 5 5
5 4 4 4 3 3 3 3 2 2 3 4 5 3 3 2 2 2 2 2 2 2 1 2 2 2 2 2 2 2 2 2 2 2 2 3 3 3 3 4 4 4 4
5 5 4 4 3 3 3 3 3 2 3 4 4 4 3 2 2 2 2 2 2 2 2 2 2 2 2 2 2 2 2 2 2 2 2 3 3 2 3 3 3 4 4
6 5 4 4 4 3 3 3 3 2 3 4 4 5 3 2 2 2 2 2 2 2 2 2 2 2 2 2 2 2 2 2 2 2 2 2 1 0 1 2 3 3 4
5 5 4 4 4 4 3 3 3 2 2 3 4 4 3 3 3 3 1 1 2 2 2 2 2 2 2 2 1 1 3 3 3 2 2 2 0 1 0 0 0 1 3
6 5 5 5 5 4 3 3 3 2 3 4 4 3 2 2 2 1 2 2 2 2 2 2 2 2 2 3 2 1 3 3 3 3 3 2 1 1 1 1 1 1 0
6 5 5 4 4 4 3 3 2 3 3 4 4 3 2 2 2 2 2 2 2 2 2 2 3 3 2 3 3 2 3 3 3 3 2 2 3 2 2 3 4 3 3
7 6 5 4 4 3 3 3 3 3 3 4 4 3 2 3 2 2 2 2 2 2 2 3 3 3 2 3 4 3 3 4 4 4 3 3 3 2 1 4 4 5 4
5 5 5 3 4 3 3 4 4 4 4 4 4 4 3 2 2 2 2 2 2 2 3 3 3 3 2 3 4 4 4 5 4 4 3 2 3 3 4 5 6 4 4
5 4 4 4 4 3 4 5 4 5 5 5 4 4 3 3 3 3 2 2 3 3 4 4 3 2 2 2 4 5 4 4 4 4 4 4 3 5 5 5 6 6 4
4 4 4 4 3 4 4 5 5 5 5 4 4 5 3 2 2 2 3 4 3 2 4 4 3 3 3 4 5 5 5 4 5 5 5 5 5 5 5 5 4 4 3
4 3 4 5 5 5 5 5 7 6 6 6 6 5 4 3 3 3 4 4 4 2 4 4 5 5 5 6 7 7 6 5 5 5 5 5 6 6 6 5 4 4 4
5 4 5 5 6 6 6 7 6 5 5 5 5 5 5 4 3 3 3 3 2 3 4 4 5 5 7 7 8 7 7 5 6 6 7 4 4 5 5 7 7 5 5
5 5 6 7 7 7 6 5 6 5 5 5 5 5 3 3 3 7 8 5 7 6 4 4 5 6 7 7 8 8 7 7 8 7 6 6 7 7 9 9 8 6 7
5 6 6 7 6 5 6 5 5 4 6 5 5 4 3 3 3 6 9 11 11 12 11 9 7 8 8 9 9 9 9 10 9 6 7 8 9 11 11 11 11 9 7

GFSMW_con_lsi_018.txt.gz
Lid_Strength_Index
4 3 3 2 2 2 1 1 1 1 1 1 1 1 1 1 1 1 0 -0 -0 -1 -1 -0 -0 -0 0 0 0 0 1 1 0 1 2 1 0 0 0 -0 -1 -1 -1
5 4 3 3 2 2 2 1 1 1 1 1 1 1 1 1 1 1 0 -0 -0 -0 0 -0 -0 1 1 1 0 1 1 1 0 2 3 5 3 1 1 0 -0 -0 -1
5 4 4 3 2 2 2 2 1 1 1 1 1 1 1 1 1 2 1 0 0 -0 -1 -0 1 1 1 0 0 1 1 2 1 1 2 5 6 4 1 1 0 0 -0
4 4 4 3 3 2 1 1 1 1 1 1 1 2 2 3 2 2 2 2 1 1 1 1 0 0 0 0 0 0 0 1 2 1 1 1 2 5 5 2 1 0 0
4 4 4 3 2 2 2 1 1 1 1 1 1 2 3 2 3 3 3 3 3 0 -0 -1 -0 0 1 -0 -0 0 0 0 1 2 2 2 2 2 4 5 3 1 0
4 4 3 3 3 2 2 2 2 2 1 1 1 2 2 4 4 4 4 4 3 0 -0 -0 0 1 0 -0 0 0 0 0 1 1 1 2 3 3 3 4 4 3 2
5 4 4 4 3 3 2 2 2 2 1 1 1 1 2 4 4 4 4 3 2 1 0 1 2 1 -0 -0 0 0 0 0 1 1 1 1 1 1 2 3 3 4 2
5 4 4 4 3 3 2 2 2 2 2 1 1 2 3 5 5 4 3 2 1 1 0 2 1 0 -0 -0 -0 0 1 1 0 1 1 1 1 0 1 2 3 4 3
5 4 4 3 3 3 3 2 2 2 2 1 2 4 4 6 5 2 3 2 1 1 1 1 0 0 0 -0 -0 0 0 0 0 0 1 1 1 1 1 1 1 3 5
5 4 4 4 3 3 2 2 2 2 2 1 3 4 5 6 3 3 2 2 2 1 1 1 0 0 0 -0 0 0 0 0 1 1 1 1 1 1 1 2 2 2 3
5 4 4 3 3 2 2 2 2 2 2 2 3 4 6 5 3 2 1 2 2 1 0 1 1 1 0 0 1 1 0 1 1 1 1 1 1 1 1 2 2 3 3
5 4 4 4 3 3 3 3 2 2 2 2 3 4 5 5 3 2 2 1 1 1 1 1 0 0 0 0 1 1 0 1 1 1 1 1 1 1 1 2 2 2 2
5 5 4 4 4 3 3 3 2 2 2 2 3 4 5 3 1 1 1 2 2 1 1 0 1 1 1 0 0 1 1 1 1 1 1 1 1 1 1 1 1 1 2
5 5 5 4 4 3 3 3 3 2 2 3 3 4 5 4 2 1 1 1 1 1 1 0 1 1 1 0 0 1 1 1 1 0 0 0 1 1 1 1 1 1 1
6 5 5 4 4 4 3 3 2 2 2 3 3 4 4 3 3 1 1 1 2 1 1 1 1 1 1 1 0 1 1 1 1 0 0 0 0 0 0 1 1 1 2
6 5 5 4 4 4 3 3 3 2 2 3 3 4 4 3 3 3 2 1 1 2 2 1 1 1 1 1 2 1 1 1 1 1 0 0 0 0 0 0 0 0 1
5 6 5 4 4 3 3 3 3 2 3 3 4 4 5 5 4 3 3 2 2 2 2 1 1 1 1 3 3 2 0 1 1 1 1 1 0 0 0 0 0 0 0
5 5 5 4 4 3 3 2 2 2 3 3 4 5 5 5 4 3 3 2 1 1 1 1 1 1 1 3 4 2 0 1 1 2 1 1 1 1 0 0 1 1 1
5 4 3 3 3 4 3 3 3 3 3 4 4 4 5 5 4 3 2 1 1 1 1 1 1 1 1 4 4 3 1 1 2 2 2 2 1 2 1 1 1 2 2
5 5 5 4 3 3 3 3 3 3 3 3 3 3 4 4 3 3 2 1 1 1 1 2 2 2 2 4 4 3 1 2 3 3 1 3 2 3 3 2 3 3 2
4 3 3 3 3 2 3 3 4 3 3 3 3 3 3 3 3 3 2 1 2 2 3 2 2 2 2 2 4 5 3 3 3 2 3 2 3 4 5 4 2 3 2
4 4 4 4 3 3 3 4 4 4 3 3 3 3 3 3 3 2 3 2 3 3 3 2 2 1 1 4 4 6 4 3 2 3 3 2 5 5 5 4 4 3 4
4 3 4 4 4 3 3 4 4 3 4 4 4 3 3 3 2 2 3 4 4 3 2 2 2 2 3 4 7 7 6 6 4 3 3 5 6 6 4 5 4 4 3
4 4 4 5 5 5 5 5 5 4 4 5 5 4 3 3 3 3 3 3 3 2 3 3 3 2 4 5 5 5 5 5 4 5 4 3 4 5 5 5 5 4 4
4 4 5 5 6 5 5 4 4 3 4 4 4 4 4 4 7 9 6 3 5 3 2 2 2 3 5 5 7 7 5 4 6 4 3 3 4 5 6 6 7 7 6
4 4 5 6 6 5 5 5 4 3 4 5 4 4 3 4 5 7 8 11 12 12 12 11 6 6 8 9 9 10 10 9 9 4 4 4 5 6 7 8 8 8 8

GFSMW_con_lsi_021.txt.gz
Lid_Strength_Index
3 2 2 1 1 1 1 1 1 0 0 0 1 1 1 0 -0 -1 -1 -1 -2 -2 -2 -1 -1 -1 -0 -1 -1 -1 0 0 -0 1 1 -0 -1 -0 -1 -1 -1 -1 -1
4 3 2 2 2 1 1 1 1 0 0 0 0 0 0 -0 -0 -1 -1 -1 -1 -1 -1 -1 -0 -1 -0 -0 -1 -1 0 -0 -0 2 2 3 2 -0 -0 -1 -1 -1 -1
4 4 3 2 2 2 1 1 1 0 0 -0 -0 -0 -0 -0 0 0 0 -1 -1 -1 -1 -1 -1 -1 -1 -0 -1 -1 0 1 -0 0 2 3 4 3 -0 -0 -1 -1 -1
4 3 3 3 2 2 1 1 0 0 0 -0 0 1 1 2 1 0 -0 -0 -1 -1 -1 -1 -1 -1 -1 -1 -1 -1 -1 -0 1 0 -0 -0 1 3 3 0 -1 -1 -0
4 3 3 2 2 1 1 1 1 0 0 0 0 1 1 1 0 0 0 -0 -1 -1 -1 -1 -1 -1 -1 -1 -1 -0 -0 -0 0 0 0 0 0 1 2 3 2 -0 -1
4 3 2 2 2 1 1 1 1 1 0 0 0 1 1 1 1 1 1 1 0 -0 -1 -1 -1 -1 -1 -1 -1 -1 -1 -0 -0 -0 0 1 1 1 2 3 3 2 -0
4 3 3 3 2 2 2 1 1 1 1 1 1 1 1 1 1 1 1 1 1 1 -0 -1 -1 -0 -1 -1 -1 -1 -1 -0 0 0 0 0 0 0 1 2 2 3 1
4 3 3 3 3 2 2 2 2 2 1 1 1 0 0 1 1 0 0 1 0 0 -1 -1 -1 -1 -1 -1 -1 -0 -0 -1 -0 -0 -0 0 0 0 0 1 2 3 2
4 4 3 3 2 2 2 2 2 1 1 1 1 1 0 0 1 0 0 0 -0 -0 -1 -1 -1 -1 -1 -1 -1 -0 -0 -0 -0 -0 -0 0 0 -0 -0 0 1 2 4
4 4 3 3 2 2 2 1 1 2 1 1 1 1 1 0 -0 1 2 -0 -0 -1 -1 -0 -1 -1 -1 -1 -1 -0 -1 -0 -0 -0 -0 -0 -0 -0 -0 0 0 1 2
4 4 3 3 2 2 2 2 2 1 1 1 1 1 1 0 2 1 1 0 -0 -0 -0 -0 -0 -0 -0 -1 -0 -0 -0 0 -0 -0 0 0 -0 0 0 -0 0 1 1
4 3 3 3 3 2 2 2 2 2 1 1 1 1 1 3 1 1 -0 -0 0 -0 -0 -0 -0 -0 -0 -1 -0 0 -0 0 0 0 0 0 0 0 -0 -0 0 1 0
4 4 3 3 3 3 2 2 2 2 1 1 1 1 2 1 2 1 0 0 0 0 -0 -0 0 0 -0 0 -0 -0 0 0 0 0 0 0 0 0 0 0 0 1 0
4 4 4 3 3 3 2 2 2 1 1 1 1 1 1 1 2 1 1 2 1 1 0 0 0 0 0 -0 -0 -0 0 -0 0 -0 -0 -0 -0 0 0 0 0 0 1
4 4 4 4 3 3 3 2 2 1 1 2 2 1 1 1 1 1 1 3 2 1 0 0 0 -0 0 0 -0 -0 0 0 0 -0 -0 -0 -0 0 -0 0 0 0 1
5 4 4 3 3 3 3 2 2 2 1 2 2 1 2 1 2 2 2 2 3 2 1 1 1 1 0 1 1 0 0 0 0 1 -0 -0 -0 -0 0 0 0 0 1
4 4 4 3 3 3 2 2 2 1 2 2 2 1 1 1 2 2 2 2 1 1 1 1 1 1 0 2 2 1 -0 0 0 0 0 0 -0 -0 -0 -0 0 0 0
4 3 3 3 2 2 2 2 2 2 2 2 2 1 1 2 2 2 2 2 1 1 1 1 0 0 0 2 3 2 -0 0 -0 -0 -0 0 0 -0 -0 0 0 0 -0
3 3 2 2 2 2 2 2 2 2 2 2 2 2 1 2 2 2 2 1 1 1 1 0 1 1 0 4 4 3 1 1 1 0 -0 -0 -0 1 2 0 1 1 0
3 3 2 2 2 2 2 2 2 2 3 2 2 1 1 2 2 2 2 1 1 1 1 1 0 1 0 4 4 3 2 2 1 1 1 2 1 3 3 0 1 2 1
3 2 2 3 2 2 2 3 3 3 2 1 1 1 1 2 2 1 1 1 1 1 1 1 1 1 1 1 4 4 2 2 2 2 1 0 4 5 4 4 0 1 1
3 3 3 3 2 2 2 3 3 2 1 1 2 2 1 2 1 1 1 1 1 2 2 2 2 1 0 4 5 5 5 2 1 1 0 1 5 5 4 3 3 3 3
3 3 3 3 2 2 2 3 3 2 1 2 2 2 1 1 1 2 2 2 1 2 2 3 2 2 1 1 6 7 6 4 1 0 3 5 6 5 4 4 4 4 1
3 3 3 3 3 2 2 2 2 1 1 2 2 2 2 2 1 1 1 2 2 2 2 2 2 2 2 1 2 2 2 5 3 5 2 2 2 4 3 2 2 2 2
3 3 3 3 3 2 2 1 1 1 2 2 2 2 2 2 3 5 4 2 1 4 2 2 2 2 2 1 3 3 1 1 3 2 0 1 1 1 0 1 2 2 3
3 3 3 3 3 3 2 1 1 1 2 2 2 2 2 2 3 4 5 12 12 11 11 10 4 2 8 10 9 10 10 9 8 2 1 1 1 1 1 2 3 3 4

GFSMW_con_lsi_024.txt.gz
Lid_Strength_Index
2 2 1 1 1 0 0 0 0 -0 -0 0 1 0 1 -1 -0 -1 -2 -2 -2 -2 -2 -1 -1 -2 -0 -1 -2 -1 -1 0 -1 1 -0 -1 -1 -1 -2 -2 -2 -1 -2
3 2 2 1 1 1 1 0 0 -0 -0 0 -0 -0 -0 -0 -1 -1 -1 -1 -1 -2 -1 -1 -1 -1 -1 -1 -1 -1 0 -1 -1 1 1 2 2 0 -1 -2 -2 -1 -2
4 3 2 2 1 1 1 1 0 -0 -0 -0 -0 -0 -0 -0 0 -0 -0 -1 -1 -1 -2 -1 -1 -1 -1 -1 -1 -1 -0 1 -0 -0 1 3 3 2 0 -0 -1 -2 -1
3 3 2 2 2 1 1 0 0 -0 -0 -1 -0 0 1 1 1 -0 -1 -1 -1 -1 -1 -1 -1 -1 -1 -1 -1 -2 -1 -0 1 -1 -1 -0 1 3 3 1 -0 -1 -1
3 3 2 2 1 1 1 1 0 0 -0 -1 -0 1 1 0 0 -0 -0 -1 -1 -1 -1 -1 -1 -1 -1 -1 -2 -1 -1 -1 0 -0 -0 -0 0 -0 2 3 1 -1 -1
3 2 2 1 1 1 1 1 1 1 0 0 0 0 0 0 1 0 1 0 -0 -0 -1 -1 -1 -2 -1 -1 -1 -2 -1 -1 -1 -0 -0 0 1 1 2 3 2 2 -0
3 3 2 2 2 1 1 1 1 1 1 0 0 0 0 0 0 0 1 -0 0 0 -0 -1 -1 -1 -1 -1 -2 -1 -1 -1 -0 -1 0 -1 0 -0 1 2 2 2 1
3 3 2 2 2 2 1 1 1 1 1 1 0 0 0 0 0 0 0 0 0 -0 -1 -1 -1 -1 -1 -1 -1 -1 -1 -1 -0 -1 -0 0 -0 -0 0 1 2 3 2
3 3 2 2 2 2 1 1 1 1 1 1 1 0 0 0 0 -0 -0 -0 -1 -1 -1 -1 -1 -1 -1 -1 -1 -0 -1 -1 -1 -1 -1 0 -0 -0 -0 -0 0 2 4
3 3 2 2 2 1 1 1 1 1 1 0 0 0 0 0 -0 0 0 -1 -1 -1 -1 -1 -1 -1 -1 -1 -1 -1 -1 -1 -0 -0 -1 -1 -0 -1 -0 -0 0 0 2
3 3 2 2 2 1 1 1 1 1 1 1 1 1 0 0 0 0 -0 -0 -1 -0 -0 -0 -0 -0 -0 -1 -1 -1 -1 -0 -0 -1 -0 -0 -1 0 -0 -0 -0 0 1
2 2 2 2 2 2 1 1 1 1 1 1 1 1 0 0 1 1 0 -0 -0 -1 0 0 0 0 -0 -1 -0 -0 -1 -0 0 -0 -0 -0 -0 -0 -1 0 -0 0 -0
3 2 2 2 2 2 2 2 1 1 1 1 1 1 1 1 1 1 0 -0 -0 -0 0 0 0 0 -0 0 -0 -0 -0 -0 -0 -0 -0 -0 -0 0 0 -0 0 0 0
3 3 3 3 2 2 2 2 1 1 1 1 1 1 1 1 1 0 0 -0 -0 -0 0 0 0 0 -0 -0 -0 -0 -0 -0 -0 -0 -0 -0 -0 -0 -0 -0 -0 -0 1
4 3 3 3 2 2 2 2 1 1 1 1 1 1 1 0 0 0 0 0 0 -0 -0 0 0 -0 0 0 -0 -0 0 0 -0 -0 -0 -1 -1 -0 -0 0 -0 -0 1
4 3 3 3 3 2 2 2 2 1 1 1 1 1 1 1 1 0 0 0 0 0 -0 0 0 0 0 1 1 0 -0 -0 0 0 -0 -1 -0 -0 0 0 0 -0 1
3 3 3 3 2 2 2 2 2 1 1 1 1 1 1 1 1 1 1 1 1 1 0 0 0 0 -0 3 2 1 -0 -0 0 -0 -0 0 0 -0 -0 0 0 0 0
2 3 3 2 2 2 2 1 1 1 2 2 1 1 1 1 1 1 1 1 2 1 1 0 0 0 0 3 4 1 -0 0 0 0 0 1 1 0 -0 0 0 -0 -0
2 2 2 2 2 2 1 2 2 2 2 2 2 1 1 1 1 2 1 1 1 1 1 1 0 1 0 5 5 2 0 1 1 0 0 0 0 1 2 0 0 0 -0
2 2 2 2 2 2 1 2 2 2 2 2 1 1 1 1 1 1 1 1 1 1 1 1 0 2 0 6 6 2 1 1 1 1 0 2 3 3 4 -0 0 1 1
2 2 2 2 2 1 1 2 2 2 1 1 1 1 1 1 1 1 1 1 1 1 1 1 1 0 1 0 7 5 1 1 1 1 1 1 4 6 6 5 -0 0 0
3 2 3 2 2 1 2 2 2 1 1 1 1 1 1 1 1 1 1 1 1 2 2 1 1 1 -0 3 6 6 5 2 1 1 0 -0 6 6 6 4 3 3 3
3 2 3 3 2 2 2 3 2 1 1 1 1 1 1 1 1 1 2 2 2 2 2 2 2 2 1 1 6 7 6 5 1 0 5 6 6 6 5 4 4 4 0
3 2 2 3 3 2 2 2 1 1 1 2 2 2 2 2 1 1 1 2 2 2 3 2 2 2 2 1 1 1 4 5 2 4 1 3 3 3 3 2 2 -0 -0
3 2 3 3 3 2 2 1 1 1 2 2 2 2 2 2 3 5 6 2 4 4 2 2 2 2 2 1 4 3 0 0 2 1 0 1 1 1 1 1 0 -0 0
3 3 3 3 2 2 2 1 1 1 2 2 2 2 2 2 1 2 3 12 11 12 11 10 4 5 9 10 10 9 10 10 8 2 1 1 1 1 1 1 1 1 2

GFSMW_con_lsi_027.txt.gz
Lid_Strength_Index
2 2 1 1 1 0 0 0 0 -0 -0 0 1 1 1 0 -0 -1 -1 -2 -1 -2 -2 -0 -0 -1 -1 -0 -1 -0 -0 0 -1 1 0 -0 -0 -1 -1 -1 -1 -1 -1
3 2 2 1 1 1 1 1 0 0 -0 0 0 -0 -0 -0 -0 -1 -2 -2 -1 -2 -1 -1 -1 -0 0 -1 -1 -1 0 0 -0 1 2 3 2 1 -0 -1 -1 -1 -1
3 3 2 2 1 1 1 1 0 0 -0 -0 -0 -0 -0 -0 0 -0 -0 -1 -2 -2 -2 -1 -1 -1 -1 -0 -1 -1 -0 1 -0 -0 2 4 4 2 1 0 -0 -1 -1
3 3 2 2 2 1 1 1 0 0 0 -0 0 0 1 1 1 0 -1 -1 -2 -1 -1 -1 -2 -1 -1 -1 -1 -1 -1 -0 1 -0 0 0 1 4 4 1 0 -0 -0
3 3 2 2 1 1 1 1 1 0 0 0 0 1 1 0 0 -0 -1 -1 -1 -2 -1 -2 -1 -1 -1 -1 -1 -1 -1 -0 0 0 1 0 1 1 2 4 2 0 -0
3 2 2 1 2 1 1 1 1 1 0 0 0 1 1 1 1 0 1 0 -0 -0 -1 -1 -1 -1 -1 -1 -1 -1 -1 -1 -0 0 0 1 2 2 2 3 2 2 1
3 3 2 2 2 2 1 1 1 1 1 1 1 0 1 0 0 0 1 0 0 0 -0 -1 -1 -0 -1 -1 -1 -1 -1 -1 -0 -1 1 -0 0 0 1 2 2 2 1
3 3 2 2 2 2 1 1 1 1 1 1 1 0 0 1 1 0 0 0 0 -0 -1 -1 -1 -1 -1 -1 -1 -1 -0 -1 -0 -1 -1 0 0 -0 0 1 2 3 2
3 3 2 2 2 2 1 1 1 1 1 1 1 1 0 0 0 -0 -0 0 -1 -0 -1 -1 -1 -1 -1 -1 -1 -0 -1 -1 -1 -1 -1 0 -0 -0 -0 -0 0 2 4
3 3 2 2 2 1 1 1 1 1 1 1 1 1 1 0 0 -0 0 -0 -0 -1 -0 -0 -0 -0 -0 -0 -0 -0 -1 -1 -0 -0 -1 -1 -0 -0 -0 -0 -0 1 2
2 2 2 2 2 1 1 1 1 1 1 1 1 1 1 0 0 0 0 0 -0 -0 -0 -0 -0 -0 0 -0 -0 -0 -1 -0 -0 -0 -0 -0 -1 0 0 -0 0 1 1
2 2 2 2 2 2 2 1 1 1 1 1 1 1 1 0 1 1 0 0 0 -0 -0 -0 -0 0 -0 -0 0 0 -0 0 0 0 0 0 0 -0 -0 0 0 0 -0
2 2 2 2 2 2 2 2 1 1 1 1 1 1 1 1 1 1 0 0 0 0 -0 -0 0 0 0 0 0 0 0 0 0 -0 0 0 -0 0 0 0 0 0 0
2 2 2 2 2 2 2 2 1 1 1 1 1 1 1 1 1 1 0 0 0 0 0 -0 0 -0 0 -0 0 -0 0 -0 0 -0 -0 -0 -0 0 -0 0 0 0 1
2 3 3 2 2 2 2 2 1 1 1 1 1 1 1 1 1 1 1 0 0 0 -0 0 0 -0 -0 0 0 -0 0 0 0 -0 -0 -0 -0 0 -0 0 0 0 1
2 2 2 2 2 2 2 2 2 1 1 1 1 1 1 1 1 1 1 1 0 0 0 0 0 0 0 2 1 0 0 0 0 1 0 -0 -0 -0 0 0 0 0 1
2 2 3 3 2 2 2 2 2 1 1 1 1 1 1 1 1 1 1 1 1 0 1 0 0 0 0 4 3 1 -0 0 0 0 0 1 0 -0 0 0 0 1 1
2 2 2 2 2 2 2 1 1 1 2 2 2 1 1 2 1 1 1 1 1 1 1 1 0 0 0 5 4 2 -0 0 0 -0 -0 0 0 0 0 1 1 1 0
2 2 1 2 2 2 1 2 2 2 2 2 2 2 1 2 1 2 2 1 1 1 1 0 0 1 1 6 6 3 0 1 0 0 0 -0 0 1 1 1 2 1 1
2 2 1 1 2 2 1 2 2 2 2 2 2 1 1 1 1 1 1 1 1 1 1 1 0 2 1 5 6 3 0 1 1 0 0 2 0 3 3 1 1 2 1
2 1 1 2 2 1 1 2 2 3 2 1 1 1 1 1 1 1 1 1 1 1 1 1 1 1 1 0 7 7 0 1 1 1 1 1 3 4 5 4 0 1 1
2 2 2 2 2 1 2 2 3 2 1 1 1 1 1 1 1 1 1 1 2 2 2 2 2 1 0 3 7 7 6 3 1 1 1 1 5 6 6 4 2 4 4
2 2 2 2 2 2 2 3 2 1 1 1 2 2 1 1 1 2 2 2 2 2 2 2 2 2 0 0 8 8 7 5 1 1 4 7 7 7 5 5 3 4 1
3 2 3 3 3 2 2 2 2 1 1 2 2 2 2 2 1 1 2 2 2 2 2 3 2 2 1 1 0 1 3 4 2 4 2 2 3 3 4 1 2 1 0
2 2 3 3 3 2 2 1 1 1 2 2 2 2 2 2 2 4 5 2 2 4 2 2 2 2 2 1 5 4 1 1 2 1 0 1 1 1 1 1 1 1 1
2 3 3 3 3 2 2 2 1 1 2 2 2 2 2 2 2 2 4 13 12 13 12 10 4 3 8 11 12 11 11 9 9 1 1 1 1 2 1 2 2 1 0

GFSMW_con_lsi_030.txt.gz
Lid_Strength_Index
3 2 2 1 1 1 1 1 1 0 0 1 1 1 1 1 0 -0 -1 -1 -1 -2 -1 -1 -0 -0 -0 0 0 0 1 1 0 1 2 1 0 0 0 -0 -0 -0 -1
3 3 2 2 2 1 1 1 1 1 0 1 1 1 1 0 0 -0 -0 -1 -1 -1 -1 -0 -0 -0 0 0 0 0 1 1 0 2 3 4 3 1 1 0 0 0 -1
4 3 3 2 2 2 2 1 1 1 0 0 0 0 -0 0 1 1 1 -0 -1 -1 -1 -1 -0 -0 -0 1 0 -0 0 2 1 0 2 5 6 3 1 1 0 0 0
3 3 3 3 2 2 1 1 1 1 0 0 1 1 2 2 1 0 0 0 -1 -1 -1 -1 -1 -0 -0 0 0 0 0 1 2 1 1 1 2 5 5 2 1 0 1
3 3 3 2 2 1 1 1 1 1 1 0 0 1 1 1 1 0 1 0 -0 -1 -0 -1 -1 -0 -0 -0 -0 0 0 0 1 2 2 1 2 2 3 5 3 1 1
3 3 2 2 2 1 1 1 1 1 1 1 1 1 1 1 1 1 1 1 0 0 -1 -1 -0 -0 -0 0 -0 -0 -0 -0 0 1 1 2 3 3 3 4 3 3 2
3 3 3 3 2 2 2 2 2 2 1 1 1 1 1 1 1 1 1 1 1 1 0 -0 0 0 -0 -0 -0 0 0 0 1 1 1 1 1 1 2 3 3 4 2
3 3 3 3 2 2 2 2 2 2 1 1 1 1 1 1 1 1 1 1 1 1 0 0 -0 -0 -0 -0 -0 0 0 0 0 1 1 1 1 1 1 2 3 4 3
3 3 3 3 2 2 2 2 2 2 2 1 1 1 1 1 1 1 0 0 0 0 0 -0 0 -0 -0 -0 -0 0 1 0 0 0 0 1 1 0 1 1 1 3 5
3 3 3 3 2 2 2 2 2 2 2 1 1 1 1 1 1 1 1 1 0 0 0 0 0 0 -0 -0 0 0 -0 0 0 0 1 1 0 1 0 1 1 1 3
3 3 3 2 2 2 2 2 2 2 2 1 1 1 1 1 1 1 1 1 0 0 0 0 0 0 0 0 0 0 0 1 1 0 1 1 0 1 1 1 1 1 2
3 2 3 2 2 2 2 2 2 2 2 1 1 1 1 1 1 1 1 0 1 0 0 0 0 0 0 0 1 1 0 1 1 1 1 1 1 1 1 1 1 1 1
2 2 3 3 3 2 2 2 2 2 1 1 2 1 1 1 1 1 1 1 1 1 0 0 1 1 1 1 0 1 1 1 1 1 1 1 1 1 1 1 1 1 1
3 3 1 2 3 2 2 2 2 1 1 2 2 2 2 1 1 1 1 1 1 1 1 1 1 1 1 0 0 1 1 1 1 0 1 1 1 1 1 1 1 1 1
3 4 3 2 2 3 2 2 2 2 1 2 2 2 1 1 1 1 1 1 1 1 1 1 1 1 1 1 1 1 1 1 1 1 0 0 0 0 0 1 1 1 2
3 3 3 3 3 3 3 2 2 2 1 2 2 2 2 1 1 1 1 1 1 1 1 1 1 1 1 2 1 1 1 1 1 1 1 0 -0 0 1 1 0 0 2
3 3 3 3 3 3 2 3 2 2 2 2 2 2 2 2 2 1 1 1 1 1 1 1 1 1 1 2 2 2 1 1 1 1 1 1 0 0 0 1 0 0 0
3 2 2 3 2 2 2 2 2 2 2 2 2 2 2 2 2 2 2 2 1 1 1 1 1 1 1 5 4 2 1 1 1 1 1 1 1 0 1 1 1 1 0
2 2 2 2 2 2 2 2 2 2 2 2 2 2 2 2 2 2 2 2 2 2 2 1 1 1 1 5 5 4 1 2 1 1 0 1 1 1 3 1 2 1 1
2 2 2 1 2 2 2 2 3 3 3 2 2 2 2 2 2 2 2 1 1 2 1 1 1 2 1 6 7 4 1 2 1 1 1 3 1 4 4 1 1 2 2
2 2 2 2 1 2 2 3 3 3 2 2 2 2 2 2 1 1 1 1 1 1 2 2 1 1 1 1 7 7 1 1 2 1 1 1 5 6 6 4 1 1 2
2 1 1 1 2 2 2 3 3 2 2 2 2 2 2 2 1 2 2 2 2 2 2 2 2 1 1 3 8 8 7 3 1 1 1 1 6 7 6 5 1 4 3
2 2 1 3 2 2 2 3 3 2 2 2 2 2 2 2 1 2 2 2 2 2 3 3 3 2 1 1 7 9 8 6 2 2 5 8 7 7 6 5 3 5 1
3 3 3 4 3 2 2 2 2 2 2 2 2 2 2 2 2 2 2 2 2 3 3 3 3 2 2 1 1 2 4 6 3 5 4 4 3 3 2 3 3 1 1
3 3 3 4 3 3 2 2 2 2 2 2 2 2 2 2 5 8 8 2 6 5 2 2 2 2 3 2 3 2 1 1 2 1 1 2 2 2 2 1 1 1 1
3 4 4 4 3 3 2 2 2 2 2 3 3 3 2 3 4 5 7 14 13 14 14 11 4 7 9 11 11 11 10 9 6 2 2 2 2 2 2 2 2 1 1

GFSMW_con_lsi_033.txt.gz
Lid_Strength_Index
3 3 2 2 2 2 2 1 2 1 1 1 1 2 2 1 1 0 0 -0 0 -0 0 0 0 0 1 1 0 2 2 2 1 2 2 2 1 1 0 1 1 1 0
4 3 3 2 2 2 2 2 1 1 1 1 1 1 1 1 1 0 0 0 -0 0 -0 0 0 1 1 1 2 2 2 3 1 3 3 5 3 1 1 2 1 2 0
4 4 3 3 2 2 2 2 1 1 1 1 1 1 1 1 1 1 1 0 -0 0 0 0 0 0 1 1 2 2 2 3 2 2 3 6 7 4 2 2 2 1 2
4 4 3 3 3 2 2 1 1 1 1 1 1 2 2 3 2 1 1 1 0 0 0 0 0 1 0 2 2 1 1 2 4 2 1 2 3 5 6 2 2 2 2
4 4 3 3 2 2 2 2 1 1 1 1 1 2 2 2 2 2 1 1 1 0 0 0 0 1 0 1 1 2 1 2 3 2 3 3 3 3 4 6 4 2 1
4 3 3 3 2 2 2 2 2 2 1 1 1 2 2 2 2 2 2 1 2 1 0 0 0 0 1 2 1 0 1 1 2 2 2 3 4 4 4 5 5 4 3
4 4 4 3 3 3 2 2 2 2 1 1 1 1 1 2 2 2 2 2 2 2 1 0 0 0 0 0 0 1 1 1 1 2 2 2 2 2 3 4 4 4 3
4 4 4 3 3 3 2 2 2 2 2 2 2 1 1 1 1 1 1 1 1 1 1 0 0 0 1 0 0 1 1 1 1 2 1 2 1 2 2 3 4 5 4
4 4 3 3 3 3 3 2 2 2 2 2 1 1 1 1 1 2 1 1 1 1 0 0 0 0 1 0 0 1 1 1 1 1 1 2 1 2 1 1 2 3 6
4 4 3 3 3 2 2 2 2 2 2 2 1 1 1 1 1 1 2 1 1 1 1 0 0 1 1 0 1 1 1 1 1 1 1 1 1 2 1 1 2 2 3
4 4 3 3 3 2 2 2 2 2 2 2 2 1 1 1 1 1 2 1 1 1 1 1 1 1 1 0 1 1 1 1 1 1 2 2 2 2 2 1 2 2 3
4 4 3 3 3 3 3 2 2 2 2 2 2 2 1 1 1 1 1 1 1 1 1 1 1 1 1 1 1 1 1 1 2 2 2 2 1 2 1 2 2 2 2
5 4 3 3 3 3 3 3 2 2 2 2 2 2 2 2 2 1 1 1 1 1 1 1 1 1 1 1 1 1 2 1 1 1 1 2 1 2 2 2 2 2 2
4 5 4 4 3 3 3 3 2 2 2 2 2 2 2 2 1 1 1 1 1 1 2 1 1 1 1 1 1 1 1 1 1 1 1 1 1 2 2 2 2 2 2
5 5 4 4 3 3 3 3 2 2 2 2 2 2 2 1 1 1 1 1 1 1 2 2 1 1 1 1 1 1 1 1 1 1 1 0 0 0 1 1 2 2 3
5 5 4 4 4 3 3 3 3 2 2 2 3 2 2 2 2 2 1 1 1 1 2 2 2 1 1 3 2 1 1 1 2 1 1 1 0 1 1 1 1 2 3
5 5 4 4 4 3 3 3 2 2 2 2 2 2 2 2 2 2 2 2 2 1 2 3 3 3 3 5 4 2 1 1 1 1 1 1 1 1 2 2 2 2 1
4 4 4 4 4 3 3 2 2 2 2 3 3 2 2 2 2 2 2 2 2 2 2 3 3 3 3 5 5 3 2 2 2 1 2 1 2 2 2 2 3 2 2
5 4 5 3 3 3 3 3 3 3 3 3 3 2 2 2 2 2 2 2 2 2 3 3 4 3 3 5 6 5 1 2 3 1 1 1 2 2 3 3 3 3 2
4 4 3 3 3 3 3 3 3 3 3 3 3 2 2 2 2 2 2 2 2 3 3 3 3 4 2 6 6 5 2 2 2 1 1 3 2 4 4 3 3 4 3
4 4 4 3 4 3 3 4 3 3 3 2 2 2 2 2 2 2 2 2 3 3 4 3 3 2 2 3 8 7 2 2 3 2 2 1 5 6 6 5 3 3 3
4 4 4 4 3 3 3 4 4 3 2 2 2 2 2 2 2 3 3 2 3 3 3 4 4 2 2 4 8 8 6 3 2 2 2 2 5 7 7 5 4 4 4
4 4 4 4 4 3 3 4 3 3 2 3 3 2 2 2 3 4 4 3 4 4 4 4 4 3 1 1 7 9 8 7 3 2 5 7 7 7 6 5 4 4 5
5 4 4 5 4 3 3 3 3 2 3 3 3 3 4 4 4 4 3 3 3 3 3 3 3 3 2 3 5 6 7 7 6 6 7 6 5 5 4 5 5 5 4
4 4 4 5 4 3 3 3 2 2 3 3 4 4 5 7 9 10 7 4 7 5 3 3 2 3 3 4 5 5 4 4 5 5 5 5 5 5 5 5 5 3 3
4 4 4 4 4 3 3 3 2 3 3 4 4 5 6 6 7 8 10 14 14 14 13 11 7 9 9 10 10 9 8 6 6 4 3 5 5 4 4 4 4 2 2

GFSMW_con_lsi_036.txt.gz
Lid_Strength_Index
3 3 2 2 2 1 2 1 1 1 1 1 2 2 2 1 1 1 1 0 0 -0 0 1 0 1 1 1 1 3 4 2 2 4 4 3 2 2 2 2 2 1 0
4 3 3 2 2 2 2 2 1 1 1 1 1 1 1 1 1 1 0 0 0 -0 0 1 1 1 1 2 3 4 2 3 2 4 4 5 4 2 2 2 2 2 1
5 4 3 3 2 2 2 2 1 1 1 1 1 1 1 2 2 1 1 0 -0 -0 0 0 1 1 2 2 3 3 3 4 3 3 4 6 6 4 2 2 3 2 2
4 4 3 3 3 2 2 1 1 1 1 1 1 2 2 3 2 1 1 0 0 0 0 0 1 1 1 3 3 2 2 3 4 3 2 3 4 5 6 3 3 3 2
4 4 3 3 2 2 2 1 1 1 1 1 1 2 2 2 1 2 1 2 1 0 0 0 1 1 2 2 3 2 1 2 3 3 3 4 3 4 5 6 4 3 3
4 3 3 3 2 2 2 2 2 2 1 1 1 2 2 2 2 3 3 2 1 1 1 0 1 1 1 2 2 2 2 2 2 3 3 3 4 4 4 6 6 4 3
4 4 4 3 3 3 2 2 2 2 2 1 1 2 1 2 2 2 2 2 3 2 1 1 2 2 2 3 2 2 2 2 3 2 3 2 3 3 4 5 5 5 4
4 4 4 3 3 3 3 2 2 2 2 2 2 1 1 1 1 2 1 1 1 2 0 1 1 2 2 2 2 2 2 1 2 2 2 2 2 2 3 4 5 6 6
5 4 3 3 3 3 3 2 2 2 2 2 1 1 1 1 1 2 1 2 2 2 1 1 1 1 1 2 2 2 2 1 2 2 3 2 2 2 2 2 4 5 6
5 4 4 3 3 2 2 2 2 2 2 2 1 1 1 1 1 2 1 1 2 2 2 1 0 1 1 2 2 2 2 2 2 2 2 3 2 2 2 2 2 3 4
4 4 4 4 3 2 2 2 2 2 2 2 2 1 1 1 1 1 1 2 1 2 2 1 1 1 1 2 2 2 1 2 1 2 2 2 2 2 3 2 3 3 4
4 4 4 3 3 3 3 3 2 2 2 2 2 2 1 1 1 1 1 1 2 1 2 2 1 1 1 2 2 2 1 2 2 2 2 2 1 3 3 2 3 3 2
5 4 4 4 3 3 3 3 2 2 2 2 2 2 2 2 2 1 1 1 2 2 2 2 1 1 1 2 2 1 2 2 1 2 2 2 2 3 3 2 3 2 2
5 6 5 4 3 3 3 3 3 2 2 2 2 2 2 2 1 1 1 1 1 2 2 2 1 1 1 2 1 1 2 2 2 1 2 1 2 2 2 1 2 3 3
6 5 4 4 3 3 3 3 2 2 2 2 2 2 2 1 1 1 1 1 1 1 2 2 2 2 1 1 2 2 2 2 2 2 1 1 1 1 1 1 2 3 3
6 6 4 4 3 3 3 3 3 3 2 2 3 2 2 2 2 2 2 1 1 1 2 2 2 3 2 3 3 2 2 2 2 2 2 1 0 1 1 1 1 2 2
5 5 4 3 3 3 3 3 3 2 2 3 2 2 2 2 2 2 2 2 2 1 3 3 3 3 2 5 5 3 2 2 2 2 2 1 1 1 1 2 2 2 2
6 5 4 4 3 3 3 2 2 2 3 3 3 2 2 2 2 2 2 2 2 2 2 3 3 3 3 7 7 5 3 3 2 2 2 1 1 2 2 2 2 2 3
6 5 4 3 3 3 3 2 3 3 3 3 3 2 2 2 2 2 2 2 2 2 2 3 3 3 3 8 8 6 3 3 3 2 2 2 2 3 4 2 3 3 2
6 4 3 3 3 3 2 3 3 3 3 3 2 2 2 2 2 2 2 2 2 2 2 3 3 5 4 9 9 7 3 3 2 3 2 4 2 5 5 2 2 2 2
6 5 6 4 3 3 3 3 3 3 2 2 2 2 2 2 2 2 2 2 2 3 3 4 4 4 5 6 8 8 3 2 2 2 2 2 5 6 6 5 2 2 3
5 5 5 5 5 3 3 3 4 2 2 2 2 2 2 2 2 2 2 2 2 3 4 5 4 4 4 6 9 8 6 4 3 3 2 2 6 8 8 6 4 5 4
5 4 4 4 4 3 3 4 3 2 3 3 3 3 2 2 2 2 3 3 3 4 4 4 4 4 3 3 8 9 8 7 3 2 4 7 9 9 7 6 5 5 5
5 5 5 5 5 4 3 3 3 3 3 3 3 3 3 3 2 2 2 3 3 4 4 4 4 4 3 3 5 6 7 7 6 6 6 6 6 6 5 5 5 5 5
5 4 5 5 5 4 4 3 3 2 3 3 3 3 3 3 6 10 7 4 6 4 3 4 3 3 3 3 6 6 5 5 7 6 5 6 7 6 5 5 5 6 5
5 5 5 5 4 4 4 3 2 2 3 4 5 6 6 7 8 9 11 14 13 12 13 10 6 7 8 11 12 12 11 10 10 5 6 6 6 5 5 5 5 5 4

GFSMW_con_lsi_039.txt.gz
Lid_Strength_Index
4 3 2 2 2 2 2 1 1 1 1 1 1 2 2 2 1 2 1 0 -0 -0 0 1 1 1 1 2 2 4 5 4 2 5 4 3 2 2 3 2 1 0 0
4 4 3 2 2 2 2 2 1 1 1 1 1 1 2 1 1 0 1 0 0 0 0 1 1 1 2 2 3 4 4 3 2 5 4 5 4 3 3 4 1 1 1
5 4 4 3 2 2 2 2 1 1 1 1 1 1 1 2 2 2 1 0 0 -0 0 1 1 1 2 2 4 4 4 4 4 3 4 6 6 4 3 3 2 2 2
4 4 4 3 3 2 2 1 1 1 1 1 1 2 2 3 2 2 1 1 0 0 0 1 1 1 2 3 3 3 3 4 4 3 2 4 4 5 6 3 5 4 2
4 4 4 3 3 2 2 2 1 1 1 1 1 2 2 2 2 2 2 1 1 0 0 0 1 2 2 2 3 4 3 4 3 3 3 4 3 5 5 6 5 4 3
4 4 3 3 3 2 2 2 2 2 1 1 1 2 2 2 2 2 2 1 1 1 1 1 2 2 2 3 3 4 2 1 2 3 4 4 4 4 5 6 6 5 4
4 4 4 3 3 3 2 2 2 2 2 1 1 1 1 2 2 2 2 3 3 2 1 1 2 2 2 2 3 4 3 2 3 3 3 3 3 3 5 6 6 6 5
4 4 4 3 3 3 3 2 2 2 2 2 2 1 1 1 2 2 1 2 2 1 1 1 1 2 3 3 3 3 3 3 3 2 3 3 3 3 3 5 5 6 6
5 4 3 3 3 3 3 2 2 2 2 2 1 1 1 1 2 2 1 1 1 1 1 1 1 2 3 3 3 3 3 2 2 2 3 3 3 2 2 3 4 5 7
5 5 4 3 3 2 2 2 2 2 2 2 1 1 1 1 1 1 1 1 2 2 1 1 1 2 3 3 3 3 3 2 2 2 3 3 3 3 2 3 3 4 5
5 5 4 4 3 2 2 2 2 2 2 2 2 2 1 1 1 1 1 2 2 2 2 1 1 2 2 3 3 3 3 2 2 2 2 2 3 2 3 2 3 3 4
4 4 5 4 3 3 3 3 2 2 2 2 2 2 1 1 1 1 1 1 2 2 2 2 2 1 2 2 2 3 2 3 2 2 2 2 2 2 3 3 3 4 3
5 4 5 5 4 3 3 3 2 2 2 2 2 2 2 2 2 1 1 1 1 2 2 2 2 1 2 3 2 2 3 2 2 2 2 2 3 3 3 3 3 3 2
5 4 5 5 4 3 3 3 3 2 2 2 2 2 2 2 1 1 1 1 1 2 2 2 2 2 1 2 2 2 3 3 2 2 2 2 2 3 2 3 2 2 2
6 5 5 5 5 4 3 3 2 2 2 2 2 2 2 2 1 1 1 1 1 1 2 3 3 2 2 2 2 3 3 3 3 3 2 2 1 1 2 2 2 2 3
5 5 6 4 4 3 3 3 3 3 2 2 3 2 2 2 2 2 1 1 1 1 1 2 2 2 2 4 4 3 3 3 3 3 3 2 0 1 2 2 2 2 2
5 6 7 5 4 3 3 3 3 2 3 3 2 2 2 2 2 2 2 2 2 1 2 2 2 2 2 5 5 4 2 3 3 3 3 3 1 1 2 2 2 2 2
5 6 6 6 5 3 2 2 2 2 3 3 3 2 2 2 2 2 2 2 2 2 2 2 2 2 2 6 6 4 2 3 3 3 3 3 2 2 2 2 3 3 3
6 5 5 4 4 4 2 3 3 3 3 3 3 2 2 2 2 2 2 2 2 2 2 2 2 3 3 7 7 6 3 3 3 3 3 3 3 3 4 3 3 3 3
5 5 4 3 3 3 3 3 3 3 3 3 3 2 2 2 3 2 2 2 2 2 2 2 3 4 3 9 10 6 4 4 4 4 3 4 3 6 6 3 3 3 3
6 6 4 4 3 3 3 3 3 4 3 2 2 2 2 2 2 2 2 2 2 2 2 2 2 3 3 8 11 8 4 4 4 3 3 3 6 8 8 5 2 2 3
5 6 6 4 4 3 3 3 4 3 2 2 2 2 2 2 2 2 2 2 2 3 3 3 2 3 5 9 10 9 7 5 4 3 2 2 7 8 8 7 5 6 4
5 4 6 7 7 4 3 4 3 2 2 2 3 3 2 2 2 2 3 3 2 3 3 4 3 4 4 5 10 11 9 7 3 2 4 8 10 10 9 7 6 5 4
5 4 4 5 5 4 4 4 3 3 3 3 3 3 3 3 2 2 2 3 3 3 4 4 4 4 4 5 7 7 7 7 5 7 6 6 6 7 6 6 5 4 5
5 4 5 5 5 4 4 4 3 3 3 3 3 3 3 3 10 13 13 7 6 4 4 4 4 3 3 2 5 7 5 5 7 7 6 6 6 7 6 6 5 6 6
5 5 4 4 4 4 4 4 4 3 3 4 3 4 7 7 8 8 8 14 13 12 12 11 8 4 7 10 11 12 12 12 11 6 5 5 7 7 6 5 6 6 5

GFSMW_con_lsi_042.txt.gz
Lid_Strength_Index
4 3 2 2 2 1 2 1 1 1 1 1 1 1 2 1 1 -0 -0 -1 -1 -1 -1 -1 -0 -0 0 0 1 2 2 3 1 1 1 1 0 1 1 -0 -1 -1 -1
5 4 3 2 2 2 2 1 1 1 1 1 1 1 1 1 1 -0 -0 0 -1 -1 -0 -0 0 -0 1 1 1 2 3 2 1 2 2 4 2 1 2 1 -0 -0 -1
5 4 4 3 2 2 2 2 1 1 1 0 0 1 1 1 1 1 0 0 -0 -1 -1 -0 1 -0 0 1 1 3 2 2 1 1 2 5 5 3 1 2 0 0 0
4 4 4 3 3 2 2 1 1 1 1 0 1 2 2 3 2 1 0 0 -0 -1 -1 -0 0 0 1 1 2 3 2 2 2 1 1 2 2 4 5 2 1 2 1
4 4 4 3 2 2 2 1 1 1 1 1 1 1 2 1 1 1 1 1 0 -0 -0 -0 -0 1 1 1 2 2 2 2 1 2 2 2 2 3 3 5 3 2 2
4 4 3 3 3 2 2 2 2 2 1 1 1 1 2 2 2 2 2 1 1 0 -0 -0 0 0 1 1 2 2 2 2 0 1 1 2 3 3 3 4 3 3 2
5 4 4 3 3 3 2 2 2 2 1 1 1 1 1 1 2 2 1 1 1 1 0 0 1 1 1 1 2 3 2 1 1 1 1 1 1 1 2 3 4 3 2
4 4 4 3 3 3 2 2 2 2 2 1 1 1 1 1 1 1 1 1 1 1 0 0 0 1 1 1 2 3 3 1 1 1 1 1 1 1 2 2 3 4 3
4 4 4 3 3 3 3 2 2 2 2 2 1 1 1 1 1 1 1 1 0 0 1 0 0 1 1 2 2 2 2 2 1 0 0 0 1 1 1 2 2 3 5
5 4 4 3 3 2 2 2 2 2 2 1 1 1 1 1 1 1 2 1 1 0 0 0 0 1 2 2 3 2 2 1 2 0 0 0 1 0 1 1 2 2 2
5 4 4 3 3 2 2 2 2 2 2 2 1 1 1 1 1 1 1 1 1 1 0 0 0 1 2 2 3 3 3 2 1 0 1 1 0 1 0 1 1 2 2
4 4 3 3 3 3 3 3 2 2 2 2 2 2 1 1 1 1 1 1 1 1 1 0 1 1 1 2 2 3 2 2 2 1 1 1 1 1 0 1 1 1 1
5 4 4 4 3 3 3 3 2 2 2 2 2 2 2 2 1 1 1 1 1 1 1 1 1 1 1 1 2 2 2 2 2 1 1 1 1 1 1 1 1 1 1
5 5 4 4 3 3 3 3 2 2 2 2 2 2 2 2 1 1 1 1 1 1 1 1 1 1 1 1 1 2 2 2 2 2 2 1 1 1 1 1 1 1 1
5 5 4 4 4 4 3 3 2 2 2 2 2 2 2 1 1 1 1 1 1 1 1 1 2 1 1 1 1 1 2 3 2 2 2 2 1 1 1 1 1 1 1
5 5 4 4 4 4 3 3 3 2 2 2 3 2 2 2 2 1 1 1 1 1 1 1 1 1 2 3 4 2 2 2 2 3 3 2 2 1 2 1 2 1 1
5 5 4 4 4 4 3 3 3 2 2 3 2 2 2 2 2 2 2 2 2 1 1 1 1 1 1 5 5 4 2 2 2 3 3 3 2 2 1 2 2 2 2
5 4 4 4 4 4 4 2 2 3 3 3 3 2 2 2 2 2 2 2 2 2 2 2 1 1 1 6 6 5 2 2 2 3 3 3 2 2 1 1 1 1 1
5 4 3 3 3 4 3 2 3 3 3 3 3 2 2 2 2 2 2 2 2 2 2 1 1 2 1 6 7 5 2 2 3 3 3 3 3 4 4 1 1 1 2
5 5 4 3 4 5 4 3 3 3 3 3 3 2 2 2 2 2 2 2 2 2 2 2 1 2 1 8 8 5 2 3 3 3 3 5 3 6 5 1 1 2 3
5 4 4 3 3 4 3 3 3 4 3 2 2 2 2 2 2 2 2 2 2 2 2 2 2 1 2 3 9 8 2 3 3 4 4 3 6 8 8 5 1 2 2
5 4 3 4 3 2 3 3 4 3 2 2 2 2 2 2 2 2 2 2 2 3 3 3 2 2 2 7 11 9 7 6 3 4 3 3 8 9 9 6 5 6 4
5 3 6 4 3 3 3 3 3 2 2 2 2 2 2 2 2 2 2 3 2 3 3 3 3 3 2 7 11 11 9 7 4 3 4 7 9 10 9 7 7 6 3
5 4 4 4 4 3 3 3 2 2 2 3 3 2 3 2 2 2 2 2 3 3 3 3 3 3 4 5 7 7 6 7 5 6 5 6 7 7 6 6 6 3 2
4 4 4 4 4 4 3 3 2 2 3 3 3 3 3 6 8 10 9 7 9 4 5 4 4 5 5 7 9 8 4 4 4 5 5 5 6 6 5 4 4 3 2
4 4 4 4 4 3 3 3 2 3 3 3 3 5 6 6 6 7 9 14 13 14 14 13 9 6 9 12 10 10 11 11 10 4 4 5 5 5 5 5 5 4 3

GFSMW_con_lsi_045.txt.gz
Lid_Strength_Index
3 2 2 1 1 1 1 1 1 0 0 1 1 1 1 0 -0 -1 -1 -1 -1 -1 -1 -1 -1 -1 -1 -1 -1 -1 -0 -0 -1 -0 0 -0 -1 -0 -1 -1 -1 -1 -1
4 3 2 2 2 1 1 1 1 0 0 0 0 0 0 -0 -0 -1 -1 -1 -1 -1 -1 -1 -0 -1 -0 -0 -0 -0 0 0 -1 1 1 3 2 0 -0 -1 -1 -1 -1
4 4 3 3 2 2 1 1 1 0 0 -0 -0 0 -0 -0 0 0 -0 -1 -1 -1 -1 -1 -1 -1 -0 0 -0 -0 0 1 -0 -0 1 3 4 2 -0 -0 -1 -1 -1
4 3 3 3 2 2 1 1 1 0 0 -0 0 1 1 2 1 0 -0 -0 -1 -1 -1 -1 -1 -1 -1 -0 -0 -0 -0 0 1 0 -0 -0 1 3 4 1 0 -0 -0
4 4 3 3 2 1 1 1 1 1 0 0 0 1 1 1 0 0 0 -0 -1 -1 -1 -1 -1 -1 -0 -1 -0 -0 -0 0 0 1 1 0 0 0 2 4 2 0 -0
4 3 3 2 2 1 1 1 1 1 0 0 0 1 1 1 1 1 1 1 0 -0 -1 -1 -1 -1 -1 -0 -0 -1 -1 -0 -0 0 0 1 2 2 2 3 2 2 1
4 4 3 3 2 2 2 1 1 2 1 1 1 1 1 1 1 1 1 1 1 0 -0 -1 -0 -0 -1 -1 -1 -1 -1 -0 0 -0 0 0 0 -0 1 1 2 2 1
4 4 3 3 3 2 2 2 2 2 1 1 1 1 0 1 1 0 1 1 1 0 -1 -0 -1 -1 -1 -1 -1 -0 -0 -1 -0 -0 -0 0 0 -0 0 1 2 3 2
4 4 3 3 2 2 2 2 2 2 1 1 1 1 1 1 1 0 0 0 -0 -0 -0 -1 -0 -1 -1 -1 -1 0 -0 -0 -0 -0 -0 0 -0 -0 -0 -0 0 2 4
4 4 3 3 2 2 2 1 1 2 1 1 1 1 1 0 0 0 0 0 -0 -0 -0 -0 -0 -0 -0 -0 -0 -0 -0 -0 -0 -0 -0 -0 -0 -0 -0 -0 0 0 2
4 3 3 3 2 2 2 2 2 2 2 1 1 1 1 1 0 1 0 0 -0 -0 0 -0 -0 0 -0 -0 -0 -0 -0 0 0 -0 -0 0 -1 0 0 -0 0 1 1
3 3 3 2 2 2 2 2 2 2 1 1 1 1 1 1 1 1 0 0 0 -0 -0 -0 0 0 -0 -0 0 0 0 0 1 0 0 0 0 0 -0 0 0 0 0
3 3 3 3 3 3 2 2 2 2 1 1 1 1 1 1 1 1 0 0 0 0 0 -0 0 0 0 0 0 0 0 0 0 0 0 0 0 1 0 0 0 0 0
4 3 3 3 3 2 2 2 2 1 1 1 2 2 2 1 1 1 1 0 0 0 0 0 0 0 0 0 0 0 0 0 0 0 -0 0 0 0 1 1 0 0 1
4 4 4 3 3 3 2 2 2 2 1 2 2 2 1 1 1 1 1 1 0 0 0 0 0 0 0 0 0 0 0 1 1 0 0 -0 -0 0 0 1 1 0 1
4 3 3 3 3 3 3 2 2 2 1 2 2 2 1 1 1 1 1 1 1 1 1 1 1 1 1 3 3 1 1 0 1 1 0 -0 1 1 2 2 1 0 1
4 3 3 3 3 3 2 2 2 1 2 2 2 2 1 2 1 1 1 1 1 1 1 1 1 1 1 4 4 2 0 1 1 1 0 1 1 2 1 3 3 2 1
3 3 3 2 2 2 2 2 2 2 2 2 2 2 2 2 1 1 2 1 1 1 1 1 1 1 1 5 5 3 0 1 0 0 0 1 1 1 2 1 0 0 -0
3 2 2 2 2 2 2 2 2 2 2 2 2 2 2 2 2 2 2 1 1 1 1 1 1 1 1 6 6 4 1 1 1 1 0 0 1 3 5 0 1 1 0
2 2 2 2 2 2 1 2 3 2 3 2 2 2 1 2 2 2 2 1 1 1 1 1 1 2 1 7 7 4 1 2 2 1 0 5 2 6 6 1 1 2 1
2 2 2 2 2 1 2 3 2 3 2 1 1 1 1 2 1 1 1 1 1 1 1 2 1 1 1 1 9 8 1 2 2 2 2 1 7 9 8 5 1 2 0
2 2 2 2 2 2 2 3 3 2 1 1 2 2 1 1 1 2 2 1 2 2 2 2 2 1 1 5 10 9 6 3 2 2 1 2 9 10 9 6 3 5 3
3 2 2 3 2 2 2 3 2 1 2 2 2 2 1 2 1 2 2 2 2 3 3 3 3 3 2 1 10 11 10 8 2 1 3 7 11 10 9 6 6 6 1
4 3 3 4 4 3 2 2 2 1 2 2 2 2 2 2 2 2 2 2 2 3 3 3 3 3 2 3 7 8 8 8 5 5 5 7 6 6 5 6 5 1 0
4 4 4 4 4 3 3 2 2 1 2 2 2 2 2 2 3 5 4 2 1 2 2 2 3 5 7 9 10 8 6 5 7 5 3 4 4 4 4 4 3 2 2
4 4 4 4 3 3 3 2 2 1 2 3 3 3 3 3 5 6 8 14 14 14 14 13 8 8 12 15 14 14 13 11 8 2 3 3 3 3 3 4 4 3 3

GFSMW_con_lsi_048.txt.gz
Lid_Strength_Index
2 2 1 1 1 0 0 0 0 -0 -0 0 1 0 0 -0 -1 -1 -2 -2 -2 -2 -2 -1 -1 -1 -1 -1 -1 -1 -0 -1 -1 -0 0 -0 -1 -1 -1 -1 -1 -1 -2
3 2 2 1 1 1 1 0 0 -0 -0 -0 -0 -0 -0 -0 -1 -1 -2 -2 -2 -2 -1 -2 -1 -1 -1 -1 -1 -1 -0 -1 -1 0 0 3 1 0 -1 -2 -1 -1 -2
4 3 2 2 1 1 1 1 0 0 -0 -1 -0 -0 -1 -0 0 -0 -0 -1 -1 -2 -2 -2 -1 -1 -1 -0 -1 -1 -0 0 -1 -0 1 3 3 2 0 -0 -1 -1 -1
3 3 2 2 2 1 1 0 0 0 -0 -1 -0 0 1 1 1 0 -0 -1 -2 -1 -2 -2 -1 -1 -1 -1 -1 -1 -0 0 0 -0 -0 -0 1 3 4 1 0 -1 -1
3 3 2 2 1 1 1 0 0 0 0 0 -0 1 1 0 0 -0 -1 -1 -1 -1 -1 -2 -2 -1 -0 -1 -1 -1 -0 -0 0 0 0 0 1 0 2 3 2 0 -0
3 3 2 2 2 1 1 1 1 1 0 0 0 0 1 0 1 1 1 0 -0 -0 -1 -1 -1 -1 -1 -1 -1 -1 -1 -0 -0 -0 -0 1 2 2 2 3 1 2 1
3 3 3 2 2 2 1 1 1 1 1 0 0 0 1 0 1 1 1 0 0 0 -0 -1 -1 -1 -1 -1 -1 -1 -1 -0 -0 -0 0 -0 0 -0 0 1 1 2 1
3 3 3 2 2 2 1 1 1 2 1 1 1 0 0 1 0 0 0 0 0 -0 -1 -1 -1 -1 -1 -1 -1 -0 -0 -1 -0 -0 -1 -0 -0 -0 -0 1 1 3 2
3 3 3 2 2 2 2 1 1 1 1 1 1 1 0 0 0 -0 -0 0 -1 -0 -1 -1 -1 -1 -1 -1 -1 -0 -0 -1 -0 -0 -1 -0 -0 -0 -0 -0 0 2 3
3 3 3 2 2 1 1 1 1 1 1 1 1 1 1 0 0 0 0 -0 -0 -1 -1 -0 -1 -1 -1 -1 -1 -0 -1 -0 -0 -0 -0 -0 -1 -1 -0 -0 -0 0 1
3 3 3 2 2 1 1 1 1 1 1 1 1 1 1 0 0 0 0 0 -0 -0 -0 -0 -0 -0 -0 -0 -0 -0 -0 0 0 -0 -0 -0 -1 -0 -0 -0 -0 0 0
2 2 2 2 2 2 2 1 1 1 1 1 1 1 1 0 1 1 0 -0 0 -0 -0 -0 -0 -0 -0 -0 0 0 -0 0 1 0 -0 0 0 -0 -1 -0 -0 -0 -1
2 2 2 2 2 2 2 1 1 1 1 1 1 1 1 1 1 1 0 0 0 0 -0 -0 0 0 0 0 0 -0 0 0 0 0 0 0 -0 0 0 0 0 0 0
3 2 2 2 2 2 2 2 1 1 1 1 1 1 1 1 1 1 1 0 0 0 0 0 0 0 0 -0 0 0 0 0 0 -0 -0 -0 0 0 0 0 0 0 1
3 2 3 2 2 2 2 2 1 1 1 1 1 1 1 1 1 1 1 0 0 0 0 0 0 0 0 0 0 0 0 0 0 -0 -0 -0 -0 0 0 0 0 0 1
4 3 2 2 2 2 2 2 2 1 1 1 2 1 1 1 1 1 1 1 1 0 0 1 1 1 1 2 3 1 0 0 1 1 0 -0 0 0 2 1 1 1 1
2 3 2 2 2 2 1 2 2 1 1 1 1 1 1 1 1 1 1 1 1 1 1 1 1 1 0 5 5 3 0 1 1 1 1 1 0 0 -0 2 3 2 2
2 2 3 2 1 1 1 1 1 1 2 2 2 1 1 1 1 1 1 1 1 1 1 1 1 1 1 5 6 4 0 0 0 0 0 0 0 0 0 0 1 2 1
2 2 1 2 2 1 1 1 1 2 2 2 2 2 1 2 1 2 2 1 1 1 1 1 1 1 1 7 8 5 0 1 1 0 0 0 0 2 4 1 1 2 1
1 1 1 1 1 1 1 1 2 2 2 2 2 1 1 1 2 1 1 1 1 1 1 1 1 2 1 5 9 6 1 1 1 1 1 4 1 6 6 1 1 2 2
2 1 1 1 1 0 1 2 2 2 2 1 1 1 1 1 1 1 1 1 1 1 1 1 1 1 1 1 9 10 2 2 2 1 1 1 6 9 9 5 1 2 1
2 2 2 2 1 1 1 2 2 1 1 1 1 1 1 1 1 1 1 1 1 2 2 2 2 2 1 5 7 11 7 3 1 2 1 1 9 11 10 7 5 6 3
2 2 2 1 1 1 1 2 2 1 1 1 2 1 1 1 1 1 1 2 2 2 2 2 2 2 1 1 10 11 10 8 2 1 3 10 12 10 8 7 5 5 1
3 2 2 2 2 1 1 1 1 1 1 2 2 2 2 2 1 1 1 2 2 2 2 2 2 2 1 1 1 3 7 9 6 8 8 7 5 5 5 4 3 1 1
3 2 2 3 3 2 2 1 1 1 2 2 2 2 2 2 2 2 2 2 1 2 2 2 2 2 2 2 7 6 7 6 7 6 5 5 4 4 2 2 1 1 1
3 3 3 3 3 3 3 2 1 1 1 2 2 2 2 2 2 2 3 14 16 17 16 13 6 2 11 15 15 15 14 13 12 6 6 5 3 2 2 2 2 2 2

GFSMW_con_lsi_051.txt.gz
Lid_Strength_Index
2 2 1 1 1 0 0 0 0 -0 -0 0 1 0 1 -0 -0 -1 -2 -2 -2 -2 -2 -1 -1 -1 -0 -1 -1 -0 -0 1 -1 0 1 0 -1 -1 -1 -1 -0 -1 -1
3 2 2 1 1 1 1 0 0 0 -0 0 -0 -0 -0 -0 -1 -1 -2 -2 -2 -2 -1 -1 -1 -0 0 -1 -1 -1 1 0 -1 1 1 3 2 0 -0 -1 -1 -1 -1
4 3 2 2 1 1 1 1 0 0 -0 -0 -0 -0 -1 -0 0 -0 -0 -1 -1 -2 -2 -2 -1 -1 -1 0 -0 -0 -0 2 -0 -1 2 3 5 2 0 -0 -0 -1 -1
3 3 2 2 2 1 1 0 0 0 0 -0 -0 0 1 1 1 0 -0 -1 -2 -1 -1 -2 -1 -1 -1 -1 -0 -1 -0 0 1 0 0 -0 1 3 4 1 0 -0 -0
3 3 2 2 1 1 1 1 1 0 0 0 0 1 1 0 0 0 -1 -1 -1 -1 -1 -2 -1 -1 -1 -1 -1 -1 -1 -0 1 1 1 -1 1 0 2 4 2 0 -0
3 3 2 2 2 1 1 1 1 1 0 0 0 0 1 1 1 0 1 0 -0 -0 -1 -1 -1 -1 -1 -1 -1 -1 -1 -0 -1 -0 -0 1 2 2 2 3 3 3 1
3 3 3 2 2 2 1 1 1 1 1 1 1 1 1 0 1 0 1 0 0 0 -0 -0 -1 -0 -1 -1 -1 -1 -1 -0 0 -0 0 -0 0 0 1 1 2 2 1
3 3 3 2 2 2 1 1 1 2 1 1 1 0 0 1 1 0 0 0 0 -0 -1 -0 -1 -1 -1 -1 -1 -0 -0 -1 -0 -0 -0 0 -0 -0 0 1 2 3 2
3 3 2 2 2 2 1 1 1 1 1 1 1 1 1 0 1 0 -0 0 -1 -0 -1 -1 -0 -1 -1 -1 -1 0 -0 -0 -0 -0 -0 0 -0 -0 -0 -0 0 2 4
3 3 3 2 2 2 1 1 1 1 1 1 1 1 1 0 0 0 0 0 -0 -0 -1 -0 -0 -0 -0 -1 -0 -0 -0 -0 0 0 0 -0 -0 -1 -0 -0 -0 0 2
3 3 2 2 2 1 1 1 1 1 1 1 1 1 1 1 0 1 0 0 -0 -0 -0 -0 -0 -0 -0 -0 -0 -0 -0 0 0 -0 -0 0 -0 -0 -0 -0 -0 0 1
2 2 2 2 2 2 2 1 1 1 1 1 1 1 1 1 1 1 0 -0 0 -0 -0 -0 0 0 -0 -0 0 0 0 0 1 1 0 0 0 0 -0 0 -0 0 -1
2 2 2 2 2 2 2 2 1 1 1 1 1 1 1 1 1 1 0 0 0 0 0 0 0 0 0 0 0 0 0 0 0 0 1 0 0 1 0 0 0 0 0
2 2 2 2 2 2 2 2 1 1 1 1 1 1 1 1 1 1 0 0 0 0 0 0 0 0 0 0 0 0 0 0 0 0 0 0 0 1 1 1 1 0 1
3 2 2 2 1 2 2 1 1 1 1 1 1 1 1 1 1 1 1 0 0 0 0 0 0 0 0 0 0 0 0 1 1 0 0 0 0 1 1 1 1 1 1
2 2 2 2 2 1 2 1 2 1 1 1 1 1 1 1 1 1 1 1 1 1 1 1 1 1 1 3 4 1 1 1 1 1 0 0 1 0 2 2 1 0 1
3 3 2 1 2 1 1 2 1 1 1 1 1 1 1 1 1 1 1 1 1 1 1 1 1 1 1 5 5 3 0 1 1 1 1 1 0 1 0 2 2 2 2
2 2 2 2 1 1 1 1 1 1 2 2 1 1 1 2 1 1 1 1 1 1 1 1 1 1 1 6 8 5 0 1 0 1 1 1 1 0 1 1 1 1 0
2 1 1 1 1 1 1 1 1 1 2 2 2 1 1 2 2 2 2 1 1 1 1 1 1 1 1 8 8 6 1 1 1 1 1 1 1 2 5 1 1 1 1
2 2 1 1 1 1 1 1 1 2 2 2 2 1 1 1 2 1 1 1 1 1 1 1 1 2 1 7 9 6 1 1 1 1 1 5 1 6 7 1 1 2 2
2 2 1 2 1 1 1 1 1 2 2 1 1 1 1 1 1 1 1 1 1 1 1 1 1 1 1 1 9 9 1 2 2 2 1 1 7 8 10 7 1 2 2
2 2 2 2 1 0 1 1 2 1 1 1 1 1 1 1 1 1 1 1 1 2 2 2 2 1 1 6 8 11 9 5 1 2 1 1 8 9 11 9 7 7 4
3 2 2 2 1 0 1 2 2 1 1 1 2 1 1 1 1 2 2 2 2 2 2 2 2 2 1 1 8 11 11 8 2 1 2 8 11 10 10 9 9 7 2
3 2 2 2 2 1 1 1 1 1 1 2 2 2 2 2 1 1 1 2 2 2 2 2 2 2 2 1 1 3 4 7 4 6 3 6 8 8 6 7 6 2 2
3 2 2 2 2 1 1 1 1 1 2 2 2 2 2 2 2 1 4 2 1 4 2 2 2 2 2 2 4 2 1 1 3 5 5 6 6 6 6 6 5 2 1
3 3 2 2 2 2 2 1 1 1 2 2 2 2 2 2 2 2 4 16 16 17 17 16 7 5 12 14 13 14 14 14 13 7 7 7 7 6 5 5 4 2 2

GFSMW_con_lsi_054.txt.gz
Lid_Strength_Index
3 2 2 1 1 1 1 1 1 0 0 1 1 1 1 0 -0 -1 -2 -1 -2 -2 -2 -1 -1 -1 -0 0 -0 0 0 1 -0 1 1 1 -0 0 0 -0 -0 -1 -0
3 3 2 2 2 1 1 1 1 1 1 1 0 0 0 0 -0 -1 -1 -2 -1 -2 -1 -1 -0 -0 0 -0 -0 -0 1 1 0 2 2 4 2 1 1 0 0 0 -0
4 3 3 2 2 2 2 1 1 1 0 0 0 0 0 0 1 0 0 -0 -1 -1 -1 -1 -1 -0 -0 0 -0 0 1 2 1 0 2 5 5 3 1 1 0 0 0
4 3 3 3 2 2 1 1 1 1 0 0 1 1 2 2 1 1 0 0 -1 -1 -1 -1 -1 -1 -1 0 0 0 0 1 2 1 0 0 1 4 5 2 1 0 0
4 3 3 2 2 1 1 1 1 1 1 0 1 1 1 1 1 0 0 0 -0 -1 -1 -1 -1 -0 -0 -0 0 0 0 0 1 1 2 1 1 1 3 5 3 1 1
4 3 2 2 2 1 1 1 1 1 1 1 1 1 1 1 1 1 1 1 0 0 -0 -1 -0 -0 -0 -0 -0 -0 -0 0 1 1 1 2 3 3 3 4 4 3 2
4 3 3 3 2 2 2 1 2 2 1 1 1 1 1 1 1 1 1 1 1 1 0 -0 0 0 -0 -0 -0 0 0 0 1 0 1 1 1 1 2 3 3 4 2
4 4 3 3 3 2 2 2 2 2 1 1 1 1 1 1 1 1 1 1 1 1 0 0 -0 -0 -0 -0 -0 0 0 0 0 1 1 1 1 0 1 2 3 4 3
4 3 3 3 2 2 2 2 2 2 2 1 1 1 1 1 1 1 0 1 0 0 0 0 0 0 -0 -0 -0 0 1 0 0 1 0 1 0 0 0 1 1 3 5
3 3 3 3 2 2 2 1 2 2 2 1 1 1 1 1 1 1 1 1 0 -0 -0 0 0 0 0 -0 0 0 0 1 1 1 1 1 0 0 0 1 1 1 3
4 3 3 3 2 2 2 2 2 2 2 1 1 1 1 1 1 1 1 1 0 0 0 -0 0 0 0 0 0 1 1 1 1 1 1 1 0 1 1 1 1 1 2
3 3 3 3 2 2 2 2 2 2 2 1 1 1 1 1 1 1 1 0 1 0 0 0 0 1 1 0 1 1 1 1 1 1 1 1 1 1 1 1 1 1 1
3 3 3 3 3 2 2 2 2 2 1 1 2 1 1 1 1 1 1 1 1 1 0 0 1 1 1 1 0 1 1 1 1 1 1 1 1 1 1 1 1 1 1
3 3 3 3 3 2 2 2 2 1 1 1 2 2 2 1 1 1 1 1 1 1 1 1 1 1 1 1 1 1 1 1 1 1 1 1 1 1 1 1 1 1 2
3 3 3 3 3 3 2 2 2 2 1 2 2 2 1 1 1 1 1 1 1 1 1 1 1 1 1 1 1 1 1 1 1 1 1 1 1 1 1 1 1 1 2
3 2 1 0 1 3 2 2 2 2 1 2 2 2 1 1 1 1 1 1 1 1 1 1 1 1 1 3 4 1 1 1 1 1 1 1 2 2 3 3 2 1 2
3 1 1 1 1 1 2 2 2 1 2 2 2 2 2 2 2 1 1 1 1 1 1 1 1 1 1 5 6 4 1 1 1 1 1 1 1 2 1 3 3 3 3
3 2 2 1 2 1 1 1 1 2 2 2 2 2 2 2 2 2 2 2 1 2 1 1 1 1 1 6 7 6 1 1 1 1 1 1 1 1 1 1 2 2 1
2 2 2 2 1 2 1 2 2 2 2 2 2 2 2 2 2 2 2 2 2 2 2 1 1 1 1 7 8 7 2 1 1 1 1 1 1 3 5 1 2 2 1
3 2 2 2 2 2 1 2 2 2 3 2 2 2 1 2 2 2 2 2 1 2 1 1 1 2 1 6 9 7 1 2 2 1 1 5 2 6 8 2 2 3 2
3 2 2 2 2 1 2 0 1 3 2 2 2 2 2 2 2 2 1 2 2 2 2 2 1 1 1 1 11 11 1 2 2 2 2 1 7 9 10 8 1 2 1
3 2 3 2 2 1 2 2 2 1 2 2 2 2 2 2 2 2 2 2 2 2 2 2 2 1 1 6 10 11 10 5 2 2 1 1 8 10 10 9 6 7 5
3 3 3 3 2 2 1 2 2 1 1 2 2 2 2 2 2 2 2 2 2 2 3 3 3 2 1 1 9 12 12 10 5 1 3 9 10 13 10 10 9 8 3
3 3 3 3 3 2 2 2 1 1 2 2 2 2 2 2 2 2 2 2 2 3 3 3 3 3 2 2 1 4 7 10 7 5 3 7 8 9 6 8 8 2 2
3 3 3 3 3 2 2 1 1 1 2 2 2 2 2 2 2 3 7 2 3 6 3 2 2 3 3 2 5 4 2 2 4 2 1 3 4 4 4 6 5 4 3
3 3 3 3 3 2 2 1 1 1 2 3 3 3 2 2 2 5 6 16 17 18 18 15 5 5 13 14 15 14 12 13 11 3 4 5 5 6 6 6 6 4 4

GFSMW_con_lsi_060.txt.gz
Lid_Strength_Index
4 3 2 2 2 2 1 1 1 1 1 1 2 2 2 1 2 1 0 0 0 -0 0 0 1 1 1 1 1 2 2 2 2 4 3 3 2 1 2 1 1 1 0
5 4 3 2 2 2 2 1 1 1 1 1 1 1 1 1 1 2 0 -0 0 0 0 1 1 1 1 1 1 1 2 2 2 3 4 5 4 3 2 2 2 1 1
5 4 4 3 2 2 2 2 1 1 1 1 1 1 1 1 2 2 2 0 -0 -0 0 0 1 1 1 1 2 2 2 3 3 2 3 5 6 5 3 2 2 1 1
4 4 4 3 3 2 1 1 1 1 1 1 1 2 2 3 2 2 1 0 0 0 0 0 0 1 1 1 2 1 2 3 3 2 2 2 3 6 6 3 3 2 2
4 4 4 3 2 2 2 1 1 1 1 1 1 1 2 2 3 2 2 1 0 0 -0 0 1 1 1 1 1 1 1 2 2 5 3 4 3 3 5 6 4 2 3
4 4 3 3 3 2 2 2 2 2 1 1 1 1 2 2 3 3 3 2 1 1 0 0 1 0 1 1 1 1 1 2 2 2 3 4 5 4 4 5 4 4 3
5 4 4 3 3 3 2 2 2 2 1 1 1 1 1 2 2 3 2 2 1 1 1 0 1 1 0 1 1 1 1 2 2 2 3 2 4 3 4 4 4 4 3
4 4 4 3 3 3 2 2 2 2 2 1 1 1 2 1 2 2 2 2 1 1 0 0 0 1 1 1 1 1 1 1 1 1 2 2 1 2 3 4 4 5 5
5 4 3 3 3 3 3 2 2 2 2 2 1 1 1 1 1 2 2 1 1 1 0 0 0 0 1 1 1 1 1 1 1 1 1 2 2 1 2 3 3 5 6
5 4 3 3 3 2 2 2 2 2 2 1 1 1 1 1 1 1 2 1 1 1 1 1 0 0 0 1 1 1 1 1 1 1 2 1 1 1 2 2 3 3 4
5 4 4 3 3 2 2 2 2 2 2 2 1 1 1 1 1 2 2 1 1 1 1 1 1 1 1 1 1 1 1 2 1 1 2 2 1 1 2 2 2 3 3
4 4 3 3 3 3 2 2 2 2 2 1 2 1 1 1 1 1 1 2 2 1 1 0 1 1 1 1 1 1 1 1 2 1 2 2 1 2 2 2 2 3 3
4 4 4 4 3 3 3 2 2 2 2 2 2 2 2 1 1 1 1 1 2 2 1 1 1 1 1 1 1 1 1 1 1 1 1 1 2 2 2 3 2 2 3
5 4 4 4 3 3 3 3 2 2 2 2 2 2 2 2 1 1 1 1 1 2 1 1 1 1 1 1 1 1 1 1 1 1 1 1 2 2 2 2 2 2 3
5 5 4 4 3 3 3 3 2 2 2 2 2 2 2 1 1 1 1 1 1 1 1 1 1 1 1 1 1 1 1 1 1 1 1 1 1 2 2 2 2 3 4
5 4 4 4 3 3 3 3 2 2 2 2 2 2 2 2 2 1 1 1 1 1 1 1 1 1 1 3 4 1 1 1 1 2 1 1 1 2 4 4 4 3 3
5 5 4 4 3 3 3 3 2 2 2 2 2 2 2 2 2 2 2 2 2 1 1 1 1 1 1 5 5 4 1 1 1 1 1 1 1 2 1 4 5 5 5
6 6 6 6 3 2 3 2 2 2 2 2 2 2 2 2 2 2 2 2 2 2 2 2 1 1 1 5 6 5 2 1 1 1 1 1 1 1 1 1 2 3 3
5 4 5 5 5 4 3 2 2 2 2 3 2 2 2 2 2 2 2 2 2 2 2 1 1 2 1 7 7 7 2 1 1 1 1 1 1 3 5 2 2 2 2
4 4 4 3 3 4 4 3 3 3 3 3 2 2 2 2 2 2 2 2 2 2 1 2 1 3 1 6 8 7 2 2 2 1 1 5 3 6 7 3 2 3 2
6 4 3 4 3 4 4 5 4 4 3 2 2 2 2 2 2 2 2 2 2 2 2 2 2 1 2 2 10 10 2 2 2 2 2 1 7 9 10 8 1 2 2
5 6 5 4 3 3 3 5 4 3 3 2 2 2 2 2 2 2 2 2 2 2 2 2 2 2 1 7 9 11 9 4 2 2 1 1 8 11 11 9 7 8 8
4 4 5 6 3 3 3 4 3 5 3 3 3 3 2 2 2 2 2 2 2 3 3 3 3 3 2 1 10 12 11 10 4 1 3 7 11 12 11 12 11 9 5
7 4 4 4 4 4 3 3 2 3 3 3 3 3 3 3 3 2 2 2 3 3 3 3 3 3 2 2 2 6 8 10 8 7 5 8 8 10 8 8 9 8 6
8 5 4 4 4 3 3 2 2 2 3 3 4 3 3 4 3 5 6 2 2 4 3 3 2 3 3 3 5 5 5 5 6 6 6 7 6 6 6 6 6 6 6
8 7 4 4 3 3 3 2 2 2 3 3 3 3 3 3 5 8 11 17 18 18 18 15 7 5 13 13 14 16 14 14 14 6 5 5 5 6 6 6 6 6 5

GFSMW_con_lsi_063.txt.gz
Lid_Strength_Index
4 3 2 2 2 2 2 1 1 1 1 2 2 2 2 2 2 2 1 1 0 0 1 0 1 1 1 1 1 2 2 2 3 4 4 3 2 2 2 1 1 0 0
5 4 3 2 2 2 2 1 1 1 1 1 1 1 2 2 1 2 1 0 0 0 0 0 1 1 1 1 1 2 2 2 3 4 4 6 4 3 2 2 1 1 1
5 4 4 3 2 2 2 2 1 1 1 1 2 1 1 2 2 2 2 0 -0 0 0 0 1 1 1 2 2 2 3 3 3 3 4 6 7 5 3 2 2 2 2
5 4 4 3 3 2 2 1 2 1 1 1 1 2 2 3 2 2 2 0 0 0 0 0 1 1 1 2 2 1 2 4 4 3 3 3 4 5 6 4 3 2 1
5 5 4 3 2 2 2 1 1 1 1 1 1 1 2 2 2 2 2 2 0 0 -0 0 1 1 1 1 2 2 2 2 3 3 4 4 4 4 6 6 5 3 2
5 4 3 3 3 2 2 2 2 1 1 1 1 1 2 2 3 3 3 3 1 0 0 0 1 1 1 1 1 1 2 1 3 4 4 4 5 4 5 5 5 4 3
5 4 4 4 3 3 2 2 2 2 1 1 1 1 1 2 2 3 3 3 2 1 1 0 1 1 1 1 1 2 1 2 2 3 3 4 5 4 5 4 5 4 4
5 4 4 4 3 3 2 2 2 2 2 1 1 1 1 1 1 2 3 3 2 1 0 0 1 1 1 1 1 2 1 2 2 2 3 3 3 3 3 4 4 5 5
5 4 4 3 3 3 2 2 2 2 2 2 1 1 1 1 1 2 2 2 2 0 0 0 0 0 1 1 1 1 1 1 2 2 2 3 3 2 2 4 4 5 6
5 4 4 3 3 3 2 2 2 2 2 1 1 1 1 1 1 1 2 2 2 1 0 0 0 0 0 1 1 2 2 1 1 2 2 2 2 3 2 2 4 4 5
5 4 4 3 3 2 2 2 2 2 2 2 1 1 1 1 1 1 2 1 2 2 1 0 1 1 1 1 1 2 1 1 2 1 2 2 3 2 3 3 3 4 4
4 4 4 3 3 3 3 2 2 2 2 2 1 1 1 1 1 1 1 1 1 1 1 1 1 1 1 0 1 1 1 1 1 1 2 2 2 3 3 3 4 3 3
5 4 4 4 3 3 3 3 2 2 2 1 2 2 2 2 2 1 1 1 2 2 2 1 1 1 1 1 1 1 1 1 1 1 1 1 2 2 2 3 4 4 4
5 5 4 4 3 3 3 3 3 2 2 2 2 2 2 2 1 1 1 1 1 1 2 2 1 1 1 1 1 1 1 1 1 1 1 1 2 2 2 2 2 3 5
5 5 5 4 3 3 3 3 2 2 2 2 2 2 2 1 1 1 1 1 1 1 1 1 1 1 1 1 1 1 1 1 1 1 1 1 1 1 2 1 1 3 4
5 5 4 4 3 3 3 3 3 2 2 2 2 2 2 2 2 1 1 1 1 1 1 1 1 1 1 3 3 1 1 1 1 1 1 1 1 2 3 4 3 2 2
5 5 4 4 3 3 3 3 3 2 2 2 2 2 2 2 2 2 1 2 2 1 2 1 1 1 1 4 4 3 1 1 1 1 1 1 1 2 1 3 5 4 5
6 5 4 3 3 3 3 3 3 2 2 3 2 2 2 2 2 2 2 2 1 2 2 1 1 1 1 5 5 4 1 1 1 1 1 1 1 1 1 1 1 2 2
5 5 5 5 4 4 3 3 3 2 3 3 2 2 2 2 2 2 2 2 2 2 2 1 1 2 1 6 6 6 2 1 1 1 1 1 1 3 5 2 2 2 1
4 4 4 4 5 5 3 3 4 3 3 3 2 2 2 2 2 2 2 2 1 2 1 2 1 3 1 6 8 7 2 2 2 1 1 5 3 6 7 3 2 3 2
8 6 4 4 4 3 3 4 4 3 3 3 2 2 2 2 2 2 2 2 2 2 2 2 1 1 2 2 9 9 2 2 2 2 2 1 7 9 9 8 2 2 2
7 8 7 5 5 3 3 4 4 3 2 2 2 2 2 2 2 2 2 2 2 2 2 2 2 1 1 7 9 10 9 4 2 2 1 1 8 10 11 10 8 8 8
9 7 7 8 5 4 3 4 3 3 4 3 3 3 3 2 2 2 2 2 2 3 3 3 3 3 2 1 9 11 11 10 4 1 3 7 11 13 11 12 11 10 6
10 6 7 7 7 5 4 3 2 2 3 3 3 3 3 3 2 2 2 2 3 3 3 3 3 3 2 2 2 6 7 10 8 7 5 7 7 9 7 8 10 7 6
9 8 6 6 6 5 4 4 2 2 3 3 3 4 3 4 3 3 4 2 2 3 3 3 2 3 3 2 5 5 3 4 6 6 5 6 5 6 6 6 6 6 6
10 9 9 6 4 5 4 2 2 2 3 4 3 3 3 3 4 5 8 16 16 17 17 16 8 3 8 11 13 14 14 13 15 7 5 4 4 5 5 6 6 6 6

GFSMW_con_lsi_066.txt.gz
Lid_Strength_Index
4 3 2 2 2 2 2 1 1 1 1 1 1 1 1 1 0 1 -0 -0 -0 -1 0 -0 -0 0 -0 -0 -0 0 0 1 1 1 1 1 1 1 0 -0 -1 -1 -1
5 4 3 2 2 2 2 1 1 1 1 1 1 1 1 1 1 0 -0 0 -1 -1 -0 -0 -0 -0 0 0 0 -0 1 1 2 2 2 4 2 1 1 0 -0 -0 -1
5 4 4 3 2 3 2 2 1 1 1 0 1 1 1 1 1 1 1 0 -0 -1 -1 -0 -0 0 -0 0 0 0 0 2 1 0 2 4 5 3 1 1 0 -0 -0
5 4 4 3 3 2 2 2 1 1 1 0 1 1 2 3 2 1 1 0 -1 -1 -1 -1 -0 -0 -0 0 0 0 1 1 2 1 1 1 1 4 4 2 1 1 0
5 5 4 3 2 2 2 1 1 1 1 1 1 1 2 2 1 1 1 1 -0 -1 -1 -1 -1 0 0 -0 0 0 1 1 2 1 1 1 2 3 3 4 3 1 0
5 4 3 3 3 2 2 1 2 1 1 1 1 1 2 2 2 1 1 1 1 0 -0 -0 -1 -0 0 -0 0 0 0 0 1 1 2 1 2 3 3 4 3 3 1
5 5 4 4 3 3 2 2 2 2 1 1 1 1 1 1 1 1 1 1 2 1 0 -0 -0 -0 0 0 -0 0 0 0 1 1 2 2 1 1 2 2 3 3 2
5 5 4 4 3 3 2 2 2 2 1 1 1 1 1 1 1 1 1 1 1 1 -0 -0 -0 -0 -0 0 0 0 1 0 0 0 1 2 2 3 1 1 2 4 3
5 5 4 3 3 3 2 2 2 2 2 1 1 1 1 1 1 1 0 1 1 0 -0 -0 -0 -0 -0 -0 0 1 0 0 0 1 1 1 1 2 1 1 1 2 5
5 4 4 4 3 2 2 2 2 2 2 1 1 1 1 1 1 1 1 1 1 0 0 0 0 -0 -0 -0 -0 0 0 1 0 0 1 1 1 1 2 2 1 2 2
5 4 4 3 3 2 2 2 2 2 2 1 1 1 1 1 1 1 1 1 1 1 0 0 0 0 0 -0 0 0 0 1 1 0 1 1 1 1 1 1 2 2 2
5 4 4 3 3 3 3 2 2 2 2 1 1 1 1 1 1 1 1 1 1 1 0 0 0 0 0 0 0 1 0 1 1 1 1 1 1 1 1 2 2 2 2
5 4 4 4 3 3 3 3 2 2 2 1 2 1 1 1 1 1 1 1 1 1 0 1 1 1 0 0 0 0 1 1 1 1 1 1 1 1 1 1 2 2 2
5 4 4 4 3 3 3 3 2 2 2 2 2 2 2 1 1 1 1 1 1 1 1 0 0 0 0 0 0 0 1 1 0 0 0 1 1 1 1 1 1 1 2
5 5 4 4 3 3 3 3 2 2 2 2 2 2 1 1 1 1 1 1 1 1 1 1 1 0 0 0 0 1 1 1 1 0 0 0 0 1 1 1 1 1 2
7 5 4 4 4 3 3 3 3 2 2 2 2 2 2 1 1 1 1 1 1 1 1 1 1 1 1 2 3 1 1 1 1 1 1 0 1 1 3 3 3 1 1
6 6 4 4 3 3 3 3 3 2 2 2 2 2 2 2 2 1 1 1 1 1 1 1 1 1 1 4 4 3 0 1 1 1 1 1 0 1 0 2 4 4 4
6 5 4 4 3 2 2 2 2 2 2 2 2 2 2 2 2 2 2 1 1 1 1 1 1 1 1 4 4 4 0 1 1 1 1 1 1 0 1 1 1 1 1
6 5 3 3 3 3 2 2 3 2 3 3 2 2 2 2 2 2 2 1 1 1 1 1 1 1 1 5 6 5 1 1 1 1 0 0 1 2 5 1 1 1 1
6 4 4 4 4 3 2 3 3 3 3 3 2 2 2 2 2 2 2 1 1 2 1 1 1 2 1 5 7 6 1 2 1 1 1 4 1 5 7 1 1 2 2
7 6 4 4 3 3 3 3 3 3 2 2 2 2 2 2 2 2 1 1 2 1 2 2 1 1 1 1 8 9 2 1 2 2 1 1 7 9 9 8 1 2 1
8 8 7 4 3 3 3 3 3 2 2 2 2 2 2 2 2 2 2 2 2 2 2 2 2 1 1 6 8 10 9 4 1 2 1 1 8 10 11 10 8 8 8
11 9 7 8 6 4 3 4 3 2 2 2 2 2 2 2 1 2 2 2 2 2 3 3 3 2 1 1 9 11 11 10 4 1 3 6 11 11 11 11 10 11 5
12 10 8 8 7 7 6 3 2 2 2 3 3 2 2 2 2 2 2 2 2 3 3 3 3 2 2 2 1 4 6 10 8 7 4 6 7 8 6 6 9 7 6
11 11 10 8 7 7 6 5 4 3 2 3 3 2 2 2 2 2 2 2 1 2 2 2 2 3 3 2 4 4 2 2 5 5 3 5 4 4 4 4 5 6 6
11 10 10 8 7 6 6 6 5 3 4 4 3 3 2 2 2 3 5 15 14 16 16 14 8 2 8 10 13 13 13 13 14 6 4 4 4 4 4 5 5 5 5

GFSMW_con_lsi_069.txt.gz
Lid_Strength_Index
3 2 2 1 1 1 1 0 0 -0 -0 0 1 1 1 0 -0 -1 -1 -1 -1 -1 -1 -1 -1 -1 -1 -1 -1 -0 0 -0 -1 0 1 0 -1 -1 -1 -1 -1 -1 -1
4 3 2 2 2 1 1 1 0 0 0 0 -0 -0 -0 -0 -1 -1 -1 -1 -1 -2 -1 -1 -1 -1 -1 -1 -1 -0 0 -0 -1 1 1 2 2 -0 -1 -1 -1 -1 -1
5 4 3 2 2 2 1 1 1 0 -0 -0 -0 -0 -0 -0 0 -0 -0 -1 -1 -1 -1 -1 -2 -1 -1 -1 -1 -1 0 1 -0 -0 1 3 3 1 0 0 -1 -1 -1
4 4 3 3 2 2 1 1 0 0 -0 -1 0 0 1 2 1 0 -0 -1 -1 -1 -1 -1 -1 -1 -1 -1 -1 -1 -0 -0 1 0 -1 -0 1 2 3 0 -0 -1 -0
4 4 3 3 2 1 1 1 0 0 0 -0 -0 1 1 1 0 0 -0 -1 -1 -1 -1 -1 -1 -1 -1 -1 -1 -0 -1 -0 -0 0 0 0 0 0 2 3 1 -0 -0
4 3 3 2 2 1 1 1 1 1 0 0 0 0 1 1 1 1 1 0 -0 -0 -1 -1 -1 -1 -1 -1 -1 -1 -1 -0 -0 -0 0 0 1 1 2 2 2 2 0
4 4 3 3 3 2 2 1 1 1 1 0 0 0 0 0 1 1 1 0 0 0 -0 -1 -1 -0 -1 -1 -1 -1 -0 -0 0 0 0 -0 0 -0 0 1 2 2 1
4 4 3 3 3 2 2 2 1 1 1 1 1 0 0 0 1 0 0 0 0 -0 -1 -1 -1 -1 -1 -1 -1 -0 -0 -1 -0 -0 -0 0 -0 -0 0 1 2 3 2
4 4 3 3 3 2 2 2 2 1 1 1 0 0 0 0 0 -0 -0 0 -1 -0 -1 -1 -1 -1 -1 -1 -1 -0 -0 -0 -0 -0 -0 0 -0 -0 -0 -0 0 2 4
4 4 3 3 2 2 2 1 1 1 1 1 1 1 0 0 0 0 0 -0 -0 -1 -1 -0 -1 -1 -1 -1 -1 -0 -0 -0 -0 -0 -0 -0 -0 -0 -0 0 0 1 2
4 4 3 3 2 2 2 2 2 1 1 1 1 1 1 0 0 0 -0 -0 -0 -1 -0 -0 -1 -0 -0 -1 -0 -0 -0 0 0 -0 0 0 -1 0 0 -0 0 1 1
4 3 3 3 3 2 2 2 2 1 1 1 1 1 0 0 0 0 0 -0 -0 -0 -0 -0 -0 -0 -0 -0 -0 0 -0 0 0 0 0 0 0 0 -0 0 0 0 0
4 3 3 3 3 3 2 2 2 2 1 1 1 1 1 1 1 0 0 -0 -0 -0 -0 -0 -0 -0 -0 -0 -0 -0 -0 0 0 0 0 0 0 1 0 0 0 0 1
4 4 3 3 3 3 2 2 2 1 1 1 1 1 1 1 1 0 0 -0 -0 -0 -0 -0 -0 -0 -0 -0 -0 -0 -0 0 -0 -0 -0 -0 0 0 0 0 0 0 1
4 4 4 3 3 3 2 2 2 1 1 2 2 1 1 1 0 0 0 0 0 0 -0 -0 -0 -0 -0 0 -0 -0 0 0 0 -0 -0 -0 0 1 1 0 0 0 1
5 4 3 3 3 3 3 2 2 2 1 2 2 1 1 1 1 1 1 0 0 0 0 0 0 0 0 2 3 1 0 0 0 1 0 -0 1 1 3 3 3 0 1
5 5 4 3 3 3 2 3 2 1 2 2 2 1 1 1 1 1 1 1 1 0 1 1 0 1 0 4 4 2 0 0 0 0 0 0 -0 0 -0 3 4 4 4
5 4 4 3 2 2 2 2 2 2 2 2 2 1 1 1 1 1 1 1 1 1 1 1 0 1 0 4 5 3 -0 0 0 0 0 0 0 -0 0 0 0 0 -0
4 4 3 3 2 2 2 2 2 2 2 2 2 2 1 1 1 2 1 1 1 1 1 1 1 1 1 5 6 4 0 1 1 0 -0 0 0 2 4 0 1 1 0
5 4 3 2 2 2 2 2 3 2 3 2 2 1 1 1 2 1 1 1 1 1 1 1 1 2 1 5 7 4 1 1 1 0 0 4 1 5 6 1 1 2 1
5 3 3 3 2 2 2 3 3 3 2 1 1 1 1 1 1 1 1 1 1 1 1 1 1 0 1 1 8 8 1 1 1 1 1 0 6 7 8 7 1 1 1
8 5 3 3 2 1 2 3 3 1 1 1 1 1 1 1 1 1 1 1 1 2 2 1 1 1 0 5 7 9 8 3 1 1 1 1 8 10 10 8 6 7 6
11 8 6 4 3 2 2 2 2 1 1 2 2 2 1 1 1 1 2 2 1 2 2 2 2 2 1 1 9 10 10 9 2 1 2 6 10 11 9 11 9 10 4
11 10 9 8 6 3 2 2 2 1 1 2 2 1 2 2 1 1 1 2 2 2 2 2 2 2 2 1 1 1 4 9 6 5 2 3 5 6 4 4 6 4 2
8 10 9 9 8 7 4 4 2 1 2 2 2 2 2 2 2 1 1 2 1 2 2 2 2 2 2 2 4 3 1 1 3 3 1 1 2 2 3 2 1 2 3
7 7 8 9 9 8 7 6 4 2 2 2 2 2 2 2 2 2 2 13 12 14 15 13 7 1 7 11 12 14 13 12 13 4 2 3 3 3 3 3 2 2 4

GFSMW_con_lsi_072.txt.gz
Lid_Strength_Index
3 2 1 1 1 0 0 0 -0 -1 -0 -0 0 0 1 -0 -1 -1 -1 -2 -2 -2 -2 -1 -1 -2 -1 -1 -2 -1 -0 -0 -1 0 0 -0 -1 -1 -1 -1 -2 -1 -1
3 3 2 1 1 1 0 0 -0 -0 -0 -0 -0 -0 -0 -0 -1 -1 -2 -2 -2 -2 -1 -2 -1 -2 -1 -1 -1 -1 0 0 -1 1 0 3 1 0 -1 -2 -2 -2 -2
4 3 3 2 1 1 1 0 0 -0 -1 -1 -1 -0 -1 -0 0 -0 -0 -1 -2 -2 -2 -2 -2 -2 -2 -0 -1 -1 -0 1 -0 -0 1 3 3 2 0 -0 -1 -2 -1
3 3 3 2 2 1 0 0 -0 -0 -0 -1 -0 0 1 1 0 -0 -1 -1 -2 -2 -2 -2 -2 -1 -1 -1 -1 -1 -1 -0 1 -0 -1 -0 1 3 4 1 -0 -1 -0
3 3 3 2 1 1 1 0 0 0 -0 -0 -1 0 0 0 -0 -0 -1 -1 -1 -2 -1 -2 -2 -1 -1 -1 -1 -1 -1 -1 0 -0 0 -0 -0 -0 2 3 2 -0 -1
3 3 2 2 2 1 1 1 1 0 -0 -0 -0 -0 0 -0 1 0 0 0 -0 -1 -2 -1 -2 -2 -1 -1 -1 -1 -1 -1 -1 -1 -0 0 1 1 1 2 2 1 -0
3 3 3 3 2 2 1 1 1 1 0 0 0 0 0 -0 0 0 0 0 0 -0 -1 -1 -1 -1 -2 -1 -1 -1 -1 -1 -0 -0 0 -0 -0 -0 0 1 2 2 1
3 3 3 2 2 2 1 1 1 1 1 0 0 -0 -0 0 0 -0 0 0 0 -0 -2 -1 -1 -1 -2 -1 -2 -1 -0 -1 -0 -1 -0 -0 -0 -1 -0 1 2 3 2
3 3 3 2 2 2 2 1 1 1 1 0 0 0 0 0 0 -0 -1 -0 -1 -1 -1 -1 -1 -1 -1 -1 -1 -0 -0 -1 -1 -1 -1 0 -0 -1 -0 -0 0 2 4
3 3 3 2 2 2 1 1 1 1 1 0 0 0 -0 -0 -0 -1 -0 -1 -1 -1 -1 -1 -1 -1 -1 -1 -1 -1 -1 -1 -0 -0 -1 -0 -0 -1 -0 -0 0 0 2
3 3 3 2 2 1 1 1 1 1 1 1 0 0 0 0 -0 -0 -0 -0 -1 -1 -1 -1 -1 -1 -1 -1 -1 -1 -1 -0 -0 -0 -0 -0 -1 0 -0 -0 -0 0 1
3 3 2 2 2 2 2 2 1 1 1 1 1 1 0 0 0 0 -0 -1 -0 -1 -1 -1 -1 -1 -1 -1 -1 -0 -1 -0 0 -0 -0 0 0 -0 -0 0 -0 0 -0
3 2 2 2 2 2 2 2 1 1 1 1 1 1 1 0 0 0 -0 -0 -0 -0 -1 -1 -0 -0 -1 -1 -1 -0 -0 -0 -0 -0 -0 -0 -0 0 0 0 0 0 0
3 3 3 2 2 2 2 2 1 1 1 1 1 1 1 1 0 0 -0 -0 -0 -0 -0 -0 -0 -0 -1 -1 -1 -0 -0 -0 -0 -0 -0 -0 -0 0 0 0 0 0 1
4 3 3 2 2 2 2 2 1 1 1 1 1 1 1 0 0 0 0 -0 -0 -0 -0 -0 -0 -0 -0 -0 -0 -1 -0 -0 -0 -0 -0 -1 -0 1 1 0 0 0 1
4 3 3 2 2 2 2 2 2 1 1 1 1 1 1 1 1 0 0 0 0 0 -0 0 0 0 0 2 2 0 -0 -0 0 0 -0 -1 0 1 3 3 3 1 1
4 4 3 3 2 2 2 2 2 1 1 1 1 1 1 1 1 0 1 1 1 0 1 0 0 0 -0 4 4 2 -0 -0 -0 0 0 0 -0 0 -0 2 4 4 4
4 4 3 3 2 1 1 1 1 1 2 2 1 1 1 1 1 1 1 1 0 1 1 1 0 0 0 5 5 4 -0 -0 -0 -0 -0 0 -0 -0 -0 -0 0 -0 -0
3 3 2 2 2 2 1 1 1 2 2 2 2 1 1 1 1 1 1 1 1 1 1 0 0 0 0 6 6 4 0 0 0 -0 -0 -0 0 2 4 0 1 1 0
4 3 2 2 2 2 1 2 2 2 2 2 2 1 1 1 1 1 1 1 1 1 1 1 0 2 0 5 8 4 0 1 1 0 -0 3 1 5 7 0 1 1 1
7 3 2 3 2 1 1 2 2 2 2 1 1 1 1 1 1 1 1 1 1 1 1 1 0 0 1 0 9 9 0 1 1 1 1 0 6 7 7 7 0 1 0
9 7 3 3 2 1 1 2 2 1 1 1 1 1 1 1 1 1 1 1 1 1 1 1 1 1 0 5 8 10 8 2 1 1 0 0 8 10 10 7 5 7 5
9 7 5 3 2 2 1 2 2 1 1 1 1 1 1 1 1 1 1 2 1 2 2 2 2 2 1 0 8 11 10 8 1 0 2 7 10 12 9 11 9 9 1
9 8 8 6 4 2 2 2 1 1 1 2 2 1 1 2 1 1 1 2 2 2 2 2 2 2 1 1 0 1 4 9 5 3 1 2 5 7 5 2 4 1 1
8 7 8 7 7 5 3 2 1 1 2 2 2 2 2 2 1 1 1 1 1 2 2 1 1 2 2 1 3 3 1 1 2 1 1 1 1 2 1 1 1 1 1
8 8 7 7 7 6 5 4 2 1 2 2 2 2 2 2 1 2 2 11 11 12 12 12 6 1 7 10 12 11 12 14 13 2 2 2 2 2 2 2 2 1 2

GFSMW_con_lsi_075.txt.gz
Lid_Strength_Index
2 2 1 1 1 0 0 0 -0 -1 -0 0 0 0 1 -0 -1 -1 -2 -2 -2 -2 -2 -1 -1 -1 -1 0 -1 -1 -0 -0 -1 -0 1 0 -1 -1 -1 -1 -1 -1 -1
3 2 2 1 1 1 0 0 0 -0 -0 -0 -0 -0 -0 -0 -1 -1 -2 -2 -2 -2 -2 -2 -1 -1 -0 -1 -1 0 1 0 -0 2 1 3 1 0 -0 -1 -1 -1 -1
4 3 2 2 1 1 1 1 0 -0 -0 -1 -0 -1 -1 -0 0 -0 -0 -1 -2 -2 -1 -1 -1 -1 -1 0 -1 -1 -1 2 -0 -1 2 4 5 2 0 -0 -0 -1 -1
3 3 3 2 2 1 0 0 0 -0 -0 -1 -0 -0 1 1 0 -0 -1 -1 -2 -2 -1 -2 -1 -1 -1 -1 -1 -0 -0 -0 1 0 -0 -0 1 4 4 1 0 -0 -0
3 3 3 2 1 1 1 0 0 0 -0 -0 -1 0 1 0 -0 -0 -0 -1 -1 -2 -1 -2 -2 -1 -1 -1 -1 -1 -1 -0 0 1 1 -0 0 0 3 4 2 0 -0
3 3 2 2 2 1 1 1 1 1 -0 -0 0 0 0 0 0 0 1 0 -0 -0 -2 -2 -2 -2 -1 -1 -1 -1 -1 -1 -0 -0 -0 1 2 2 2 2 2 2 0
3 3 3 2 2 2 1 1 1 1 0 0 0 0 0 0 -0 0 0 0 0 -0 -0 -1 -1 -1 -2 -1 -2 -1 -1 -1 -0 -1 0 -0 0 0 1 1 2 2 1
3 3 3 2 2 2 1 1 1 1 1 1 0 0 -0 0 0 -0 -0 0 0 -0 -1 -1 -1 -1 -2 -1 -2 -0 -0 -1 -0 -0 -0 0 -0 -0 0 1 2 3 2
3 3 3 2 2 2 2 1 1 1 1 1 0 0 0 0 0 -0 -0 -0 -1 -1 -1 -1 -1 -1 -1 -1 -1 -0 -0 -1 -1 -1 -0 -0 -0 -0 -0 -0 0 2 4
3 3 3 2 2 1 1 1 1 1 1 1 0 1 0 0 -0 -0 -0 -0 -1 -1 -1 -1 -1 -1 -1 -1 -1 -1 -1 -0 -0 -0 -0 -0 -0 -0 -0 -0 -0 0 2
3 3 3 2 2 1 1 1 1 1 1 1 1 1 0 0 0 0 -0 -0 -1 -1 -1 -1 -1 -1 -1 -1 -1 -0 -1 0 -0 -0 -0 -0 -1 0 -0 -0 0 0 1
3 3 2 2 2 2 2 1 1 1 1 1 1 1 0 0 0 0 -0 -0 -0 -0 -1 -0 -0 -0 -1 -1 -0 0 -0 -0 -0 -0 0 0 0 0 -0 0 0 0 -0
3 2 2 2 2 2 2 2 1 1 1 1 1 1 1 1 1 0 0 -0 -0 -0 -0 -0 -0 -0 -0 -0 -0 -0 -0 -0 -0 -0 0 0 0 0 0 0 0 0 0
3 3 2 2 2 2 2 2 1 1 1 1 1 1 1 1 1 0 0 0 -0 0 -0 -0 -0 -0 -0 -0 -0 -0 -0 -0 -0 -0 -0 -0 0 0 0 0 0 0 1
3 3 3 2 2 2 2 2 1 1 1 1 1 1 1 1 0 0 0 0 0 0 -0 0 -0 -0 -0 0 -0 -0 -0 0 0 -0 -0 -0 0 1 1 0 0 0 1
4 3 3 2 2 2 2 2 2 1 1 1 1 1 1 1 1 1 0 0 0 0 0 0 0 0 0 2 3 0 0 -0 0 1 0 -0 0 0 3 3 3 1 1
4 3 3 3 2 2 1 2 2 1 1 1 1 1 1 1 1 1 1 1 1 0 1 0 0 0 0 4 4 2 -0 0 0 0 0 0 -0 0 -0 2 4 3 4
4 3 3 2 2 1 1 1 1 1 1 1 1 1 1 1 1 1 1 1 1 1 1 1 0 0 0 5 6 4 -0 0 -0 -0 -0 0 0 -0 -0 -0 0 0 0
3 3 2 2 2 2 1 1 1 1 2 2 2 1 1 1 1 1 1 1 1 1 1 1 1 1 0 6 7 4 0 0 0 0 -0 -0 0 2 4 0 1 1 0
2 2 2 2 2 2 1 2 2 2 2 2 2 1 1 1 1 1 1 1 1 1 1 1 1 2 1 6 8 5 0 1 1 0 0 3 1 4 6 1 1 2 1
3 3 2 3 2 2 2 2 2 2 1 1 1 1 1 1 1 1 1 1 1 1 1 1 1 0 1 1 9 9 1 1 1 1 1 0 5 6 7 7 0 1 1
4 4 4 3 2 2 2 2 2 1 1 1 1 1 1 1 1 1 1 1 1 1 2 1 1 1 0 5 9 10 8 2 1 1 0 0 6 8 8 7 5 6 5
5 5 5 3 5 3 2 2 1 1 1 1 1 1 1 1 1 1 1 2 1 2 2 2 2 2 1 1 8 11 10 8 2 0 2 6 9 12 10 11 9 9 1
7 7 6 4 6 6 5 3 3 0 1 2 2 1 2 2 1 1 1 2 2 2 2 2 2 2 1 1 0 2 5 8 5 3 1 2 5 9 5 3 5 2 1
7 6 6 6 6 6 7 6 6 5 2 2 2 2 2 2 2 1 1 1 1 2 2 1 1 2 2 1 3 3 1 1 2 2 1 1 1 1 1 1 1 1 1
6 6 6 5 6 6 7 7 6 7 2 3 2 2 2 2 2 2 2 11 9 12 12 12 6 1 9 12 12 12 14 12 12 2 2 2 2 2 2 2 2 1 2

GFSMW_con_lsi_078.txt.gz
Lid_Strength_Index
3 2 2 1 1 1 1 1 1 0 0 1 1 1 1 0 0 -0 -1 -2 -2 -2 -2 -1 -1 -1 0 -0 -0 -0 0 1 0 1 1 1 0 0 0 -0 -0 -1 -1
4 3 2 2 1 1 1 1 1 1 0 0 0 0 0 -0 -0 -1 -1 -2 -2 -2 -1 -1 -1 -1 0 -0 -0 0 1 1 0 2 2 4 2 1 0 -0 -0 -0 -1
4 4 3 2 2 2 1 1 1 1 0 -0 0 0 -0 0 0 0 0 -1 -2 -2 -1 -1 -1 -1 -0 0 -0 0 1 2 1 0 2 5 5 3 1 1 0 -0 0
4 3 3 3 2 2 1 1 1 1 0 -0 0 0 1 2 1 1 0 -0 -1 -1 -2 -1 -1 -1 -1 0 -0 -0 0 1 2 1 0 0 1 4 5 2 1 0 0
4 4 3 2 2 1 1 1 1 1 0 0 0 1 1 1 0 0 1 0 -1 -1 -1 -2 -1 -0 -1 -1 -0 -1 0 1 1 1 1 1 1 1 3 5 3 1 1
4 3 3 2 2 1 1 1 1 1 1 0 0 1 1 1 1 1 1 1 0 -0 -1 -1 -1 -1 -0 -0 -0 -1 -1 -0 0 1 1 2 2 3 3 4 3 3 2
4 3 3 3 2 2 2 1 1 2 1 1 1 1 1 1 1 1 1 1 1 1 0 -0 -0 -0 -1 -1 -1 -1 -0 -0 1 0 1 1 1 1 2 2 3 3 2
4 3 3 3 3 2 2 2 2 2 1 1 1 1 0 1 1 0 0 0 1 0 -0 -0 -0 -1 -1 -1 -1 -0 -0 -0 0 0 0 1 1 0 1 2 3 4 3
4 4 3 3 3 2 2 2 2 2 1 1 1 1 1 1 1 0 -0 0 -0 -0 -0 -0 -0 -0 -0 -1 -0 0 0 -0 -0 0 0 1 0 0 0 0 1 3 5
5 3 3 3 2 2 2 1 1 2 1 1 1 1 1 1 0 0 0 0 -0 -1 0 0 0 -0 -0 -0 -0 0 -0 0 0 0 0 0 0 0 0 0 1 1 3
5 4 3 3 2 2 2 2 2 2 2 1 1 1 1 1 0 1 0 0 -0 -0 -0 -0 -0 0 0 -0 0 0 0 1 1 0 0 1 0 1 1 0 1 1 1
5 5 3 3 2 2 2 2 2 2 1 1 1 1 1 1 1 1 0 0 0 -0 -0 -0 0 0 0 -0 0 1 0 1 1 1 1 1 1 1 0 1 1 1 1
5 5 4 3 3 2 2 2 2 2 1 1 1 1 1 1 1 1 1 0 0 0 0 0 0 0 0 0 0 0 1 1 1 1 1 1 1 1 1 1 1 1 1
3 3 3 3 3 2 2 2 2 1 1 1 1 2 1 1 1 1 1 0 0 1 0 0 0 0 0 0 0 0 1 1 0 0 0 0 1 1 1 1 1 1 1
4 4 4 4 3 3 2 2 2 1 1 2 2 2 1 1 1 1 1 0 0 0 0 0 0 0 0 0 0 0 1 1 1 0 0 0 0 1 1 1 1 1 2
4 4 4 3 4 3 3 2 2 2 1 2 2 1 1 1 1 1 1 1 1 1 1 1 1 1 1 3 3 1 1 1 1 1 1 0 0 1 3 3 3 1 1
4 4 4 3 3 3 3 2 2 1 2 2 2 2 1 2 1 1 1 1 1 1 1 1 1 1 1 4 4 3 0 1 1 1 1 1 0 1 0 2 3 3 4
4 4 3 3 2 2 2 2 1 2 2 2 2 2 2 2 1 1 1 1 1 1 1 1 1 1 1 5 6 4 0 1 1 1 1 1 1 1 0 1 1 1 1
3 3 3 2 2 2 2 2 2 2 2 2 2 2 2 2 2 2 2 1 1 1 1 1 1 1 1 6 7 6 1 1 1 1 0 0 1 2 4 1 1 1 1
3 3 2 2 2 2 2 2 2 2 3 2 2 1 1 2 2 2 2 1 1 1 1 1 1 2 1 6 8 6 1 1 1 1 1 4 1 4 5 1 1 2 2
2 2 2 3 2 3 2 3 3 3 2 1 1 1 1 1 1 1 1 1 1 1 1 1 1 1 1 1 9 10 1 1 1 1 1 1 6 7 7 7 1 2 1
3 3 3 3 2 3 3 4 3 3 2 1 2 2 1 1 1 1 1 1 2 2 2 2 2 1 1 5 9 11 9 3 1 2 1 1 6 8 8 7 5 5 6
3 3 4 3 3 3 4 5 6 5 4 2 2 2 1 1 1 2 2 2 2 2 2 2 2 2 1 1 9 11 11 9 2 1 2 7 8 10 10 10 8 8 2
4 3 3 3 4 4 7 7 6 5 4 2 2 2 2 2 2 1 2 2 2 2 2 3 3 2 2 1 1 4 7 9 6 5 2 3 5 8 5 3 8 4 1
3 3 3 3 4 4 6 7 7 6 5 2 2 2 2 2 2 2 2 2 1 2 2 2 2 2 2 2 3 3 1 2 4 2 1 1 2 2 2 1 1 1 1
2 3 2 3 4 4 5 7 8 8 7 5 4 2 2 2 2 2 2 13 9 12 12 9 5 4 10 14 15 15 10 10 11 3 2 2 2 2 2 2 2 1 2

GFSMW_con_lsi_081.txt.gz
Lid_Strength_Index
4 2 2 2 2 1 1 1 1 1 1 1 2 2 2 1 1 0 0 -0 -0 -0 0 0 0 0 1 1 1 1 1 2 1 2 2 2 1 1 1 1 1 1 0
4 3 3 2 2 2 2 1 1 1 1 1 1 1 1 1 0 0 -0 0 0 -0 0 1 0 0 1 1 1 1 2 2 1 3 3 5 3 2 1 1 1 1 0
5 4 3 3 2 2 2 2 1 1 1 1 1 1 1 1 1 1 1 0 0 -0 0 0 0 0 0 1 1 1 2 3 2 1 3 5 6 4 2 2 1 1 1
4 4 3 3 3 2 1 1 1 1 1 0 1 2 2 3 2 1 1 0 0 0 -0 0 0 0 0 1 1 0 1 2 3 2 2 2 2 5 6 2 2 2 1
4 4 3 3 2 2 2 1 1 1 1 1 1 1 2 2 1 2 1 1 0 0 -0 -0 0 0 0 0 1 1 1 2 3 3 3 2 2 2 4 6 4 2 1
4 4 3 3 2 2 2 2 2 1 1 1 1 1 2 2 2 2 2 1 1 0 0 0 0 0 0 1 0 1 1 1 1 1 2 3 4 4 4 4 4 4 2
4 4 4 3 3 2 2 2 2 2 1 1 1 1 1 1 2 2 1 2 1 1 1 0 0 0 0 0 0 0 1 1 1 1 2 1 2 3 2 3 4 4 3
4 4 4 3 3 3 2 2 2 2 2 1 1 1 1 1 1 1 2 1 1 1 0 0 0 0 0 0 0 0 0 1 1 1 1 1 1 1 3 2 3 4 4
4 4 3 3 3 3 2 2 2 2 2 1 1 1 1 1 1 1 1 1 1 1 0 0 0 0 0 0 0 1 1 1 1 1 1 1 1 1 1 2 2 3 6
5 4 4 3 3 2 2 2 2 2 2 1 1 1 1 1 1 1 1 1 1 1 0 0 0 0 0 0 0 1 0 1 1 1 1 1 1 1 1 1 2 2 3
5 5 4 3 4 2 2 2 2 2 2 1 1 1 1 1 1 1 1 1 1 1 1 0 1 1 1 0 1 1 1 1 1 1 1 1 1 1 1 1 1 2 3
5 5 4 4 4 5 2 2 2 2 2 1 1 1 1 1 1 2 1 1 1 0 0 0 1 1 1 1 1 1 1 1 1 1 1 1 1 1 1 1 2 2 1
5 5 4 4 4 4 3 2 2 2 2 1 1 2 1 1 1 1 2 1 1 1 0 1 1 1 1 1 1 1 1 1 1 1 1 1 1 2 1 1 2 2 2
5 5 5 4 4 3 3 2 2 2 2 2 2 2 2 1 1 1 1 1 1 1 1 1 1 1 1 1 1 1 1 1 1 1 1 1 1 1 1 1 1 1 2
5 5 5 4 4 4 3 2 2 2 2 2 2 2 1 1 1 1 1 1 1 1 1 1 1 0 1 1 1 1 1 1 1 1 1 1 0 1 1 1 1 1 2
6 6 5 4 4 4 3 3 2 2 2 2 2 2 1 1 1 1 1 1 1 1 1 1 1 1 1 3 3 1 1 1 1 1 1 1 2 1 3 3 4 1 2
6 6 5 5 5 3 3 5 4 3 2 2 2 2 2 2 2 1 1 1 1 1 1 1 1 1 1 4 5 4 1 1 1 1 1 1 0 1 1 2 4 4 4
6 6 5 5 4 3 3 3 2 4 3 2 2 2 2 2 2 2 2 2 1 1 1 1 1 1 1 5 6 5 2 1 1 1 1 1 1 1 2 1 1 1 1
6 6 5 4 3 4 3 2 2 2 3 3 2 2 2 2 2 2 2 1 2 1 1 1 1 1 1 6 6 7 4 2 1 1 1 1 1 2 4 2 2 2 1
6 6 5 4 3 3 4 4 4 3 5 3 2 2 2 2 2 2 2 1 1 2 1 1 1 2 1 6 8 7 2 3 2 1 1 4 2 5 6 3 2 2 2
6 6 5 5 4 3 4 5 5 6 6 6 5 2 2 2 2 2 1 1 2 2 2 2 1 1 1 1 8 9 2 1 2 2 1 1 5 7 8 7 1 2 1
6 6 6 5 4 3 5 6 7 6 6 6 6 2 2 2 2 2 2 2 2 2 2 2 2 1 1 5 8 10 9 4 2 2 1 1 6 8 8 7 6 6 6
7 6 6 5 4 3 5 6 6 6 7 7 6 3 2 2 2 2 2 2 2 2 3 3 3 2 1 1 8 10 11 10 3 1 2 5 8 9 10 10 8 8 5
7 6 6 6 4 3 4 6 5 6 7 7 7 2 2 2 2 2 2 2 2 3 3 3 3 2 2 2 1 4 7 10 8 6 4 6 6 6 4 5 8 8 5
5 6 6 6 4 4 4 6 6 6 7 8 8 5 2 2 2 2 2 2 2 2 2 2 2 3 3 2 4 3 2 3 5 5 3 3 3 2 2 2 1 4 4
5 6 6 5 4 4 5 5 6 6 7 8 7 9 6 4 2 3 3 12 10 11 11 10 4 2 8 9 10 11 10 9 11 5 3 3 3 3 2 2 2 2 3

GFSMW_con_lsi_084.txt.gz
Lid_Strength_Index
4 3 2 2 2 1 2 1 1 2 1 1 2 2 2 2 2 1 0 0 0 0 0 0 0 0 1 1 1 1 2 2 1 3 2 2 2 2 1 1 1 0 0
4 3 3 2 2 2 2 1 1 1 1 1 1 1 1 1 1 0 0 -0 -0 0 0 0 1 1 2 1 2 1 2 2 2 3 3 5 4 4 2 2 1 1 0
5 4 3 3 2 2 2 2 1 1 1 1 1 1 1 1 1 1 1 0 0 -0 1 0 1 0 0 1 1 1 2 3 2 2 3 5 6 4 2 3 2 2 1
5 4 4 3 3 2 1 1 1 1 1 1 1 2 2 3 2 1 1 1 0 0 -0 0 0 1 1 1 1 1 2 2 3 2 2 2 3 5 6 3 2 2 2
5 4 4 3 2 2 2 1 1 1 1 1 1 2 2 2 1 1 1 1 1 0 -0 0 0 0 1 1 1 1 1 2 3 3 3 3 3 3 4 6 4 2 2
5 4 3 3 3 2 2 2 2 1 1 1 2 1 2 2 2 3 2 2 1 1 0 0 0 0 1 1 1 1 1 1 1 2 3 4 4 4 4 5 4 4 3
5 4 4 4 4 3 2 2 2 2 1 1 1 1 1 2 2 3 2 2 2 1 1 1 0 1 1 1 0 1 1 1 1 2 2 2 2 3 3 4 4 4 3
5 4 4 3 4 3 2 2 2 2 1 1 1 1 1 1 1 1 1 1 1 1 1 1 0 0 1 1 0 1 1 1 1 1 2 1 2 2 4 4 4 5 4
5 4 4 3 3 3 2 2 2 2 2 1 1 2 1 1 1 1 2 1 1 1 1 0 0 0 0 0 0 1 1 1 1 1 1 1 1 1 1 3 3 4 6
5 4 4 3 3 3 2 2 2 2 2 1 1 1 1 1 2 1 1 2 1 1 1 0 0 1 0 1 0 1 1 1 1 1 1 1 1 1 1 1 3 3 5
5 4 4 3 3 2 2 2 2 2 2 1 1 1 1 1 1 1 1 1 2 1 1 1 0 1 1 1 1 1 1 1 1 1 1 1 2 2 2 2 1 2 3
5 5 4 4 3 3 2 2 2 2 2 1 1 1 1 1 1 2 1 1 1 0 0 0 0 1 1 1 1 1 1 1 1 1 1 1 1 1 2 2 2 2 2
5 5 4 4 4 3 4 3 2 2 2 1 1 1 2 1 1 1 2 2 1 1 1 1 1 1 1 1 1 1 1 2 1 1 1 1 1 1 1 2 2 2 2
5 5 5 4 4 3 3 3 2 2 2 2 2 2 2 2 1 1 1 1 1 1 1 1 1 1 1 1 1 1 1 1 1 1 1 1 1 1 2 2 1 1 2
6 6 6 4 4 3 3 2 3 2 2 2 2 2 1 1 2 1 1 1 1 1 0 1 1 1 1 1 1 1 1 1 1 1 1 0 1 2 2 1 1 1 2
7 6 6 5 4 3 3 3 2 2 2 2 2 2 2 1 1 2 2 1 1 1 1 1 1 1 1 3 3 1 1 1 1 1 1 1 1 2 3 3 3 2 2
7 7 6 5 5 4 3 3 4 3 4 2 2 2 2 2 2 1 2 2 2 1 1 1 1 1 1 4 4 3 1 1 1 1 1 1 0 2 1 3 4 5 4
7 7 7 5 4 4 4 2 2 3 3 3 3 2 2 2 2 2 2 2 1 2 1 1 1 1 1 4 5 4 2 1 2 1 1 1 1 2 2 2 2 1 1
6 7 6 6 5 5 5 4 3 3 3 2 3 3 2 2 2 2 2 1 2 1 2 1 1 1 1 6 6 5 2 1 2 2 2 1 1 3 4 2 2 2 2
6 7 5 6 6 5 5 6 6 4 4 4 3 3 4 2 2 2 2 1 1 1 1 1 1 2 1 5 7 6 1 3 3 2 2 5 2 5 6 2 2 2 2
7 6 7 6 6 4 5 7 7 7 6 4 4 2 3 3 1 1 1 1 2 2 2 2 1 1 1 1 8 8 1 1 2 2 2 2 6 7 8 7 1 2 1
7 6 7 7 5 4 5 5 7 6 6 6 5 3 3 3 1 2 2 2 2 2 2 2 2 1 1 5 8 9 8 4 1 2 1 1 7 9 9 8 6 7 6
7 7 6 7 6 5 5 7 7 6 5 6 6 5 5 3 2 2 2 2 2 2 3 3 3 2 1 1 8 10 10 9 3 1 3 6 9 10 9 9 8 9 6
6 6 7 7 6 6 5 6 6 6 5 6 6 6 7 3 2 2 2 2 2 3 3 3 3 2 2 2 1 4 7 9 7 5 3 5 7 8 6 6 8 7 6
6 6 7 7 6 6 6 6 6 7 6 6 6 6 8 6 3 2 2 2 2 2 2 2 2 3 3 2 4 3 2 3 5 5 3 4 6 4 4 4 4 4 5
6 5 6 6 6 7 7 7 7 7 6 5 6 7 7 8 6 3 3 11 10 10 11 10 4 2 6 9 10 11 12 11 13 6 3 4 3 3 3 2 2 3 3

GFSMW_con_lsi_090.txt.gz
Lid_Strength_Index
4 3 2 2 2 1 1 1 1 1 1 2 1 2 1 1 0 -0 -0 0 -0 -0 -0 -1 -0 -1 -0 -0 -0 0 1 1 0 1 1 1 1 0 0 -0 -1 -1 -1
5 4 3 2 2 2 2 1 1 1 1 2 1 1 1 1 1 -0 -0 -1 -1 -1 -0 -1 -0 -0 0 -0 0 0 1 1 0 2 2 4 2 1 1 -0 0 -0 -1
5 5 4 3 2 2 2 2 1 1 1 2 1 1 1 1 1 1 0 -0 -1 -1 -1 -1 -0 0 -0 1 0 0 0 2 1 0 2 4 5 3 1 1 0 -0 -0
4 5 4 3 3 2 1 1 1 1 1 2 1 1 2 2 1 1 0 -0 -1 -0 -0 -0 -0 0 -0 -0 -0 -0 -0 0 1 1 1 1 2 4 5 1 1 0 0
5 5 4 3 2 2 2 1 1 1 1 1 1 1 2 1 1 1 0 -0 -0 -0 -0 -1 -1 -0 -0 -0 -0 -0 -0 0 1 1 1 1 1 2 3 4 3 1 0
5 4 4 3 3 2 2 1 1 1 1 1 2 1 2 2 1 1 1 1 0 -0 -0 -1 -1 -0 -0 -0 -0 -0 -0 -0 0 1 1 1 2 3 3 3 3 3 1
5 4 4 4 3 3 2 2 2 2 1 1 1 1 1 1 1 1 1 1 1 0 0 -0 -0 -0 -1 -0 -1 -0 -0 -0 0 0 1 1 1 1 2 2 3 3 2
5 5 4 4 3 3 2 2 2 2 1 1 1 2 1 1 1 1 1 1 1 0 -0 0 -0 -0 -1 -0 -0 -0 -0 -0 0 0 0 0 0 0 1 2 2 4 3
5 5 4 4 3 3 2 2 2 2 1 1 1 1 2 1 1 1 1 0 -0 -0 -0 -0 0 -0 -1 -0 -0 -0 0 -0 -0 0 0 0 0 -0 0 1 2 2 5
5 4 4 3 4 3 2 2 2 2 1 1 1 1 1 1 0 1 1 0 0 0 -0 -0 -0 -0 -0 -0 -0 -0 -0 0 0 0 0 0 0 0 0 0 1 2 3
6 4 4 3 3 3 2 2 2 2 1 1 1 1 1 1 1 1 0 0 0 0 1 -0 0 0 0 -0 0 0 0 0 0 0 0 0 -0 0 0 1 1 1 1
5 4 4 4 3 3 2 2 2 2 1 1 1 1 1 1 1 1 1 0 0 -0 0 1 0 0 0 -0 0 1 0 1 1 1 0 1 0 0 0 0 1 1 1
6 5 5 4 4 3 3 2 2 2 1 1 1 1 1 1 1 1 0 0 0 0 -0 -0 1 0 0 0 0 0 0 0 0 0 1 1 0 1 1 1 1 1 1
7 6 6 6 5 4 3 2 2 1 1 1 2 2 2 2 1 1 1 0 0 0 0 0 0 0 0 0 0 0 0 0 0 0 0 0 0 1 1 1 1 1 1
7 7 6 6 6 6 5 4 2 2 1 2 2 2 1 1 1 1 1 0 0 0 0 0 0 0 0 0 0 0 0 1 1 0 0 -0 -0 1 0 1 1 1 1
6 7 7 6 6 6 6 5 5 2 2 2 2 1 1 1 2 2 1 1 1 1 1 1 0 1 0 3 3 1 1 1 1 1 0 -0 0 0 2 3 3 1 1
6 7 7 7 6 5 6 6 6 4 2 2 2 2 1 1 1 2 2 2 1 1 1 1 1 1 0 3 3 3 0 1 1 1 1 1 0 1 -0 2 3 3 4
7 5 7 6 6 4 5 6 6 6 5 4 2 1 1 2 1 1 2 2 2 1 1 1 1 1 1 4 4 3 0 0 0 0 0 0 0 0 0 0 1 0 0
7 7 5 5 5 5 4 5 6 7 7 7 6 5 3 2 2 2 2 2 2 2 2 1 1 1 1 5 5 4 1 1 1 0 0 0 0 3 5 1 1 1 1
7 8 7 6 6 5 4 5 6 7 7 7 7 6 5 3 3 2 2 1 2 2 2 2 2 3 1 5 6 4 1 1 1 1 0 5 1 5 6 1 1 2 1
7 8 8 7 6 6 5 5 5 7 6 7 6 6 5 5 3 3 2 1 1 1 1 1 2 2 3 3 8 7 1 1 1 1 1 1 6 7 8 7 1 1 1
7 7 9 9 7 5 5 5 6 6 6 6 7 6 5 4 3 3 1 1 1 2 2 2 2 1 1 6 7 9 7 3 1 2 1 1 7 9 9 8 6 7 6
8 7 8 9 9 6 5 6 5 5 7 7 6 6 5 5 4 4 2 2 2 2 3 2 2 2 1 1 8 10 9 8 1 1 2 5 8 10 9 10 8 9 4
9 8 8 9 10 8 6 5 5 6 7 7 7 7 7 6 4 3 3 2 2 2 3 3 3 2 2 1 1 4 7 8 6 4 2 3 5 7 5 5 6 5 4
8 8 8 8 9 9 8 6 6 6 8 8 8 7 7 7 5 4 4 3 2 2 2 2 2 2 3 2 3 3 2 2 4 4 2 2 2 2 2 2 2 2 3
7 7 8 8 8 8 8 7 6 7 8 7 7 8 8 7 5 4 4 7 9 11 13 11 5 1 6 9 12 12 12 11 12 4 2 2 2 2 2 2 2 1 2

GFSMW_con_lsi_093.txt.gz
Lid_Strength_Index
3 2 2 1 1 1 0 0 0 -0 -0 0 1 1 1 -0 -1 -1 -1 -1 -2 -1 -1 -1 -1 -1 -1 -1 -1 -1 -0 -0 -1 0 -0 -0 -1 -0 -1 -1 -1 -1 -1
4 3 2 2 1 1 1 0 0 -0 -0 -0 -0 -0 -0 -0 -1 -1 -1 -1 -2 -2 -1 -1 -1 -1 -0 -1 -1 -1 -0 -0 -1 1 1 2 1 -0 -1 -1 -1 -1 -1
4 3 3 2 2 1 1 1 0 -0 -0 -1 -0 -0 -0 -0 0 0 -0 -1 -2 -1 -1 -1 -1 -1 -1 -0 -0 -0 0 1 -0 -0 1 3 4 2 -0 -0 -1 -1 -1
4 3 3 3 2 1 1 0 0 0 -0 -1 -0 0 1 1 1 0 -0 -1 -1 -1 -1 -1 -1 -1 -1 -1 -0 -1 -1 -0 1 -0 -1 -0 1 3 3 0 -0 -1 -0
4 4 3 2 2 1 1 0 0 0 -0 -0 -0 1 1 0 0 0 -0 -1 -1 -1 -1 -1 -1 -1 -1 -1 -1 -1 -1 -1 -0 0 0 0 0 0 2 4 2 -0 -0
4 3 2 2 2 1 1 1 1 1 -0 -0 -0 0 0 0 1 0 1 0 -0 -0 -1 -1 -1 -1 -1 -1 -1 -1 -1 -1 -1 -0 -0 1 1 2 2 2 2 2 1
4 4 3 3 2 2 1 1 1 1 0 0 0 0 0 0 0 0 0 0 0 0 -0 -1 -1 -1 -1 -1 -1 -1 -1 -1 -0 -0 -0 -0 0 0 1 1 2 2 1
4 4 3 3 2 2 2 1 1 1 1 0 0 -0 -0 0 0 -0 0 0 0 -0 -1 -1 -1 -1 -1 -1 -1 -1 -1 -1 -1 -0 -1 -1 -1 -1 -0 1 2 3 2
4 4 3 3 2 2 2 1 1 1 1 1 0 0 0 0 0 -0 -0 -0 -1 -0 -1 -1 -1 -1 -1 -1 -1 -0 -0 -1 -1 -1 -0 -0 -1 -1 -1 -1 0 2 4
4 4 3 3 2 1 1 1 1 1 1 0 0 0 0 -0 -0 -0 -0 -0 -1 -1 -1 -1 -1 -1 -1 -1 -1 -0 -1 -0 -0 -0 -0 -0 -1 -0 -1 -0 -0 0 2
5 4 4 2 2 2 1 1 1 1 1 1 0 0 0 -0 -0 -0 -0 -0 -1 -1 -0 -1 -1 -1 -0 -1 -1 -1 -1 -0 -0 -0 -0 -0 -1 -0 -0 -0 -0 0 1
5 4 4 3 3 2 2 2 1 1 1 1 1 0 0 -0 0 0 -0 -1 -0 -1 -1 -1 -0 -0 -0 -1 -0 -0 -0 0 0 -0 -0 0 0 -0 -0 0 0 0 0
6 6 5 5 5 4 2 2 1 1 1 1 1 1 1 1 0 0 -0 -0 -0 -1 -1 -1 -0 -0 -0 -0 -0 -0 -0 -0 -0 -0 -0 0 -0 0 0 0 0 0 0
7 7 6 6 6 6 5 3 2 1 1 1 1 1 1 0 1 -0 -0 -0 -0 -0 -0 -0 -0 -0 -0 -0 -0 -0 -0 -0 -0 -0 -0 -0 -0 0 -0 0 0 0 1
6 7 7 6 5 6 6 5 4 1 1 1 1 1 0 0 0 0 0 -0 -0 -0 -0 -0 -0 -0 -0 -0 -0 -0 -0 0 0 -0 -0 -1 -0 1 0 0 -0 -0 1
6 5 6 7 7 6 6 6 5 4 1 1 1 1 0 0 0 0 0 0 0 0 -0 -0 0 0 0 2 2 0 0 -0 0 0 -0 -0 0 0 2 2 2 0 0
6 6 5 4 6 6 4 5 5 5 4 4 2 1 1 1 1 0 0 1 0 0 0 0 0 0 -0 3 3 2 -0 0 0 0 0 0 -0 0 -0 2 3 3 3
6 6 6 6 4 4 5 4 4 5 6 6 5 4 3 1 1 1 1 0 0 0 1 0 0 0 0 4 4 2 -0 -0 -0 -0 -0 -0 -0 -0 -0 -0 0 -0 -0
6 5 5 5 5 3 3 3 2 4 5 6 6 5 5 4 3 1 1 1 1 1 1 0 0 0 0 5 4 3 0 0 0 -0 -0 -0 -0 2 4 0 1 0 0
6 6 5 5 5 5 3 3 2 3 5 5 6 5 5 4 4 3 2 1 1 1 1 1 0 1 0 4 6 4 0 1 1 0 -0 4 1 4 6 0 1 1 1
6 5 6 6 5 5 5 3 3 3 3 5 5 5 5 5 4 3 2 2 1 1 1 1 1 0 1 0 7 7 0 1 1 1 1 0 5 6 8 6 0 1 0
6 6 6 6 6 5 5 4 4 3 2 4 4 4 4 4 4 4 4 4 1 1 2 2 2 1 0 5 6 9 7 2 1 1 0 0 7 8 8 7 4 5 5
6 6 6 6 5 5 5 5 4 4 3 3 4 4 5 5 4 4 4 4 3 2 2 2 2 2 1 1 8 9 9 8 2 0 1 5 9 9 7 8 7 7 1
6 6 6 6 6 5 5 5 5 4 3 3 4 5 5 5 5 5 4 3 3 2 2 2 2 2 1 1 1 2 4 8 6 4 1 2 3 4 2 2 4 2 0
5 5 6 6 6 5 5 5 5 5 4 4 3 4 6 5 6 5 5 4 3 3 2 2 2 2 2 2 3 3 1 1 3 2 1 1 1 2 1 1 1 0 1
5 5 5 5 5 5 5 4 4 4 4 4 3 5 5 5 6 5 5 7 8 9 10 11 8 2 6 9 11 12 12 11 11 3 2 2 2 2 2 2 2 1 1

GFSMW_con_lsi_096.txt.gz
Lid_Strength_Index
2 1 1 1 1 0 0 -0 -0 -1 -0 0 0 0 0 -0 -1 -1 -2 -2 -2 -2 -2 -1 -1 -1 -1 -1 -1 -1 -0 -0 -1 0 0 -0 -1 -1 -2 -2 -2 -2 -2
3 2 2 1 1 1 0 0 -0 -0 -0 -0 -0 -1 -0 -0 -1 -1 -1 -2 -2 -2 -2 -2 -1 -2 -1 -1 -1 -1 -0 -1 -1 1 1 2 1 -0 -1 -2 -2 -1 -2
4 3 2 2 1 1 0 0 -0 -0 -1 -1 -1 -1 -1 -1 -0 -0 -1 -1 -2 -2 -2 -2 -2 -1 -1 -0 -1 -1 -0 1 -1 -0 1 3 4 1 -0 -0 -1 -1 -2
3 3 2 2 1 1 0 -0 -0 -0 -0 -1 -0 -0 1 1 0 -0 -0 -1 -2 -1 -2 -2 -2 -2 -1 -1 -1 -1 -1 -0 1 -0 -1 -0 1 3 3 1 -0 -1 -1
4 3 2 2 1 1 0 0 -0 -0 -1 -1 -1 0 0 0 -0 -0 -1 -1 -1 -2 -2 -2 -2 -2 -1 -1 -1 -1 -1 -1 -0 0 -0 -0 -0 0 2 3 1 0 -1
3 3 2 1 1 1 0 0 0 0 -0 -0 -0 -0 -0 -0 0 0 -0 0 -0 -1 -2 -1 -2 -2 -1 -1 -1 -1 -1 -1 -1 -1 -0 0 1 2 1 2 1 1 0
4 4 3 2 2 1 1 1 0 1 -0 -0 -0 -0 -0 -0 -0 -0 0 -0 0 -0 -1 -2 -2 -1 -2 -1 -1 -1 -1 -1 -1 -1 -1 -1 -1 -0 0 1 2 1 0
3 4 3 2 2 1 1 1 1 1 0 0 -0 -0 -1 0 0 -0 -0 0 -0 -0 -1 -1 -2 -1 -2 -1 -1 -1 -1 -1 -1 -0 -1 -0 -1 -1 -0 1 2 3 1
4 3 3 2 2 1 1 1 1 1 0 0 -0 -0 -0 -0 -0 -1 -1 -0 -1 -1 -1 -1 -1 -1 -1 -1 -1 -1 -1 -1 -1 -1 -1 -0 -1 -1 -1 -0 0 2 4
5 3 3 2 2 1 1 1 1 1 1 0 -0 0 -0 -0 -0 -1 -1 -1 -1 -1 -1 -1 -1 -1 -1 -1 -1 -1 -1 -1 -0 -0 -1 -1 -1 -0 -1 -0 -0 0 2
5 4 4 3 2 1 1 1 1 1 1 0 -0 -0 0 -0 -0 -0 -1 -1 -1 -1 -1 -1 -1 -1 -1 -1 -1 -1 -1 -0 -1 -1 -0 -0 -1 -0 -0 -0 -0 0 1
5 5 4 4 2 2 1 1 1 1 0 0 0 0 0 0 -0 -0 -1 -1 -1 -1 -1 -1 -1 -1 -1 -1 -1 -0 -1 -0 -0 -0 -0 -0 -0 -0 -1 -0 -1 -0 -0
7 6 5 6 5 4 2 2 1 1 0 0 0 0 0 0 0 -0 -1 -1 -1 -1 -1 -1 -1 -1 -1 -1 -1 -1 -0 -0 -0 -0 -0 -0 -0 -0 -0 -0 -0 0 0
7 7 7 6 6 6 5 3 1 1 1 1 0 1 0 0 0 -0 -0 -1 -1 -1 -1 -1 -1 -1 -1 -1 -1 -1 -0 -1 -0 -1 -0 -1 -0 -0 -0 -0 -0 -0 1
5 5 5 6 5 5 5 6 5 3 1 1 1 1 0 0 -0 -0 -0 -0 -1 -1 -1 -1 -1 -1 -1 -0 -0 -1 -0 -0 -0 -1 -1 -1 -0 0 0 -0 -0 -1 1
5 5 5 4 4 5 4 4 5 5 3 1 1 0 0 0 0 -0 -0 -0 -0 -0 -0 -0 -0 -0 -0 2 3 0 -0 -0 -0 0 -0 -1 -0 0 2 2 1 -0 0
5 5 5 5 4 4 4 3 3 4 4 4 2 1 1 1 1 0 0 0 0 -0 0 -0 -0 -0 -0 3 3 2 -0 -0 -0 -0 -0 0 -0 0 -1 2 3 3 3
4 4 5 4 4 3 2 2 2 3 4 5 5 3 1 2 1 1 1 1 0 0 0 0 -0 0 -0 4 5 3 -0 -0 -0 -0 -0 -0 -0 -0 -0 -0 -0 -0 -0
4 4 3 3 3 3 3 2 1 1 3 3 5 4 3 3 3 1 1 1 0 0 1 0 0 0 0 6 5 3 -0 0 0 -0 -0 -0 -0 2 4 0 0 0 -0
5 5 4 4 3 3 3 3 2 1 1 2 2 3 4 3 4 3 2 1 1 1 1 1 0 1 0 5 7 4 0 1 0 -0 -0 3 0 4 6 0 1 1 1
4 4 4 4 4 3 3 3 3 2 1 0 0 1 3 4 4 3 2 3 2 1 1 1 0 0 0 0 8 8 0 1 1 1 0 -0 4 6 7 7 0 1 -0
4 4 4 4 4 3 4 3 3 2 1 1 0 -0 -0 2 3 3 3 3 3 3 1 1 1 1 0 3 5 9 8 2 1 1 0 0 7 7 7 5 3 6 5
4 4 4 4 3 3 3 4 3 2 2 2 1 0 -0 0 1 2 3 3 2 2 3 2 2 2 1 0 7 8 9 8 2 0 1 6 9 11 8 8 6 6 0
4 4 4 4 3 3 3 3 3 3 3 3 2 1 0 0 0 1 3 5 5 3 2 2 2 2 1 1 0 0 4 8 4 4 1 2 4 6 3 2 4 0 0
3 3 4 4 3 3 3 2 2 2 3 3 3 1 1 0 1 1 2 4 4 5 4 4 2 2 2 1 6 7 1 0 1 1 0 1 1 1 1 1 1 0 0
2 3 3 3 3 3 3 2 2 2 3 3 3 2 2 1 1 2 2 7 9 9 10 11 8 3 6 9 10 12 12 12 11 2 2 2 2 2 1 1 1 1 1

GFSMW_con_lsi_099.txt.gz
Lid_Strength_Index
2 2 1 1 0 0 0 -0 -0 -1 -0 0 0 1 1 -0 -0 -1 -1 -1 -2 -2 -2 -1 -1 -1 -1 0 -1 -1 -0 0 -1 1 0 0 -0 -1 -1 -1 -1 -1 -1
3 2 2 1 1 1 0 0 -0 -0 -0 -0 -0 -0 -0 -0 -0 -1 -2 -2 -2 -2 -1 -2 -1 -1 -0 -1 -1 -1 1 0 -1 1 1 3 1 0 -0 -1 -1 -1 -1
4 3 2 1 1 1 1 0 -0 -0 -1 -1 -1 -1 -1 -1 0 -0 -0 -1 -1 -2 -2 -1 -1 -2 -1 -0 -1 -1 -0 2 -0 -0 2 4 4 2 0 -0 -0 -1 -1
4 3 3 2 1 1 0 -0 -0 -0 -1 -1 -0 -0 1 2 1 -0 -1 -1 -2 -2 -1 -2 -1 -2 -1 -0 -1 -1 -0 -0 1 -0 0 0 1 4 3 1 0 -0 -0
4 3 3 2 1 1 1 0 -0 -0 -1 -1 -1 0 1 1 0 1 -0 -1 -1 -2 -1 -2 -2 -1 -1 -1 -1 -1 -1 -1 1 -0 1 0 0 0 3 3 2 0 -0
4 3 2 2 1 1 0 0 0 0 -1 -0 -0 -0 -1 1 1 1 1 0 -0 -1 -2 -1 -2 -2 -1 -1 -1 -1 -1 -1 -0 0 0 1 2 1 2 2 2 2 1
3 3 3 3 2 1 1 1 1 1 0 -0 -0 -0 -0 -0 0 -0 0 1 1 0 -0 -1 -1 -1 -1 -2 -2 -1 -1 -1 -0 -1 1 -1 0 0 1 2 2 2 1
3 3 3 2 2 2 1 1 1 1 0 0 0 -0 -0 0 0 -0 -0 0 1 0 -1 -1 -1 -1 -1 -1 -2 -1 -1 -1 -1 -1 -1 0 -0 -1 -0 1 2 3 2
4 3 3 3 2 2 1 1 1 1 0 0 0 -0 -0 -0 -0 -1 -1 -0 -2 -0 -1 -1 -1 -1 -2 -2 -2 -0 -1 -1 -1 -1 -1 -0 -0 -1 -0 -0 0 2 4
4 3 3 3 2 2 1 1 0 1 1 0 0 0 -0 -0 -0 -1 -1 -1 -1 -1 0 -1 -1 -1 -1 -1 -1 -1 -1 -1 -0 -0 -1 -1 -0 -1 -0 -0 -0 0 2
5 4 3 3 2 2 2 1 1 1 1 1 -0 0 0 -0 -0 -0 -0 -1 -1 -1 -1 -1 -1 -1 -1 -1 -1 -1 -1 -0 -1 -1 -1 -0 -1 0 -0 -0 -0 0 1
5 4 4 4 5 4 3 2 2 1 1 0 0 0 -0 -0 -0 0 -0 -1 -1 -1 -1 -1 -1 -1 -1 -1 -1 -0 -1 -0 -0 -0 -0 -0 -0 -0 -0 0 -0 -0 -0
6 5 5 5 4 5 5 2 1 2 2 1 1 0 0 0 0 -0 -0 -1 -0 -0 -1 -1 -1 -0 -0 -0 -1 -0 -0 -0 -0 -0 -0 -0 -0 0 0 -0 0 0 0
6 6 6 5 5 4 4 5 3 3 1 1 1 1 1 0 0 -0 -0 -0 -1 -0 -0 -1 -1 -1 -1 -1 -0 -0 -0 -0 -0 -0 -1 -0 -0 -0 -0 0 0 0 1
5 5 6 6 5 3 4 4 4 4 3 1 1 1 0 -0 -0 -0 -0 -1 -0 -0 -1 -0 -0 -0 -0 -0 -0 -0 -0 0 0 -0 -0 -1 -0 0 0 0 -0 -0 1
4 4 4 5 4 3 3 3 5 4 4 3 3 1 1 0 0 0 0 0 -0 -0 -0 -0 -0 0 -0 1 2 0 -0 -0 0 0 -0 -1 0 -0 2 2 1 -0 0
4 5 5 5 5 4 3 3 3 4 4 4 5 3 2 2 1 0 0 0 0 0 0 0 0 0 -0 3 3 2 -0 0 0 -0 0 0 -0 0 -0 2 3 2 2
5 4 4 4 3 3 3 3 2 2 2 3 4 4 3 3 2 2 0 0 0 0 0 1 0 0 0 4 5 4 -0 -0 -0 -0 -0 -0 0 -0 -0 -0 0 0 -0
3 3 3 3 2 2 2 2 1 1 1 1 2 2 3 3 3 2 2 1 0 1 0 0 0 0 0 6 6 4 0 0 0 -0 -0 -0 -0 2 4 0 1 1 0
3 3 3 3 2 2 2 2 2 1 1 1 1 0 1 3 3 3 3 2 1 1 0 0 0 1 0 4 8 5 0 1 1 -0 -0 2 0 4 6 0 1 1 1
4 3 3 3 3 2 2 2 2 1 1 1 0 -0 -0 -0 2 3 2 2 2 1 1 1 0 0 0 1 8 9 0 1 1 1 1 0 4 5 6 7 0 1 0
3 3 3 3 3 2 2 2 2 1 1 1 1 0 -0 -0 0 -0 1 3 1 1 1 2 2 1 0 3 5 9 8 2 1 1 0 0 7 8 7 5 3 5 4
3 3 3 3 3 2 2 3 2 1 1 2 1 1 -0 -0 -0 0 1 1 1 2 2 2 2 2 0 0 5 8 9 8 2 0 1 7 9 10 9 9 8 7 1
3 3 3 3 3 2 2 1 1 1 2 2 2 1 1 0 -0 0 0 1 1 2 3 3 3 2 1 1 0 0 0 6 5 4 1 2 4 7 5 3 5 2 0
2 2 3 3 3 2 2 2 2 2 2 2 2 2 2 1 0 0 0 1 -0 1 2 3 4 4 3 1 8 9 5 4 5 8 3 1 1 1 1 1 1 1 1
2 2 2 2 2 3 3 2 2 1 2 2 2 3 3 2 2 1 1 4 4 6 7 8 6 2 7 9 10 12 13 14 13 5 3 2 2 2 2 2 2 1 1

GFSMW_con_lsi_105.txt.gz
Lid_Strength_Index
3 2 2 2 2 1 1 1 1 1 1 1 1 1 1 1 1 0 -0 -0 -0 -0 0 0 0 0 1 1 1 1 1 1 1 2 2 1 2 2 1 1 0 1 0
4 3 3 2 2 2 2 1 1 1 1 1 1 1 2 1 0 -0 -0 -0 -0 -0 -0 0 0 0 1 1 1 1 2 1 1 3 3 5 3 2 1 2 1 1 1
5 4 3 3 2 2 2 2 1 1 1 1 1 1 1 1 1 1 0 0 -0 -0 0 0 0 1 0 1 1 1 2 3 2 1 3 5 6 4 2 2 1 2 1
4 4 3 3 3 2 1 1 1 1 1 1 1 2 2 3 2 1 0 0 -0 0 0 0 0 0 1 1 1 0 1 1 3 2 1 2 2 5 5 2 1 1 1
4 4 3 3 2 2 2 1 1 1 1 1 1 1 3 3 2 1 1 1 0 0 -0 0 0 0 1 0 1 1 1 1 2 2 2 3 2 2 4 5 3 2 1
4 4 3 2 2 2 2 1 1 1 1 1 1 1 3 3 2 2 2 1 1 0 0 0 0 0 0 0 1 0 1 1 1 1 2 2 3 3 4 4 4 3 2
4 4 4 3 3 2 2 2 2 2 1 1 1 1 2 2 1 1 1 2 1 1 1 0 0 0 0 0 1 1 1 1 1 1 1 1 3 2 2 3 4 4 2
5 5 4 3 3 2 2 2 2 2 1 1 1 1 1 2 3 1 1 2 1 1 1 0 0 0 0 0 0 1 1 1 1 1 1 1 1 2 1 3 3 5 4
5 5 4 3 3 3 2 2 2 2 1 1 1 1 1 1 1 1 1 2 0 0 0 0 0 0 0 0 0 1 1 1 1 1 1 1 1 1 1 2 2 3 6
5 5 4 3 3 2 2 2 2 3 2 1 1 1 1 1 1 1 1 1 0 1 0 1 1 0 0 0 1 1 1 1 1 1 1 1 1 1 1 1 1 2 3
5 5 4 3 3 2 3 3 3 4 4 4 2 1 1 1 1 1 1 1 1 1 1 2 3 2 1 0 1 1 1 1 1 1 1 1 1 1 1 1 1 2 2
5 4 4 4 4 3 3 3 2 3 3 3 2 1 1 1 1 1 1 0 1 1 2 2 3 2 1 0 1 1 1 1 1 1 1 1 1 1 1 1 2 2 2
5 4 5 5 4 4 2 2 2 2 1 1 2 1 1 1 1 1 1 0 0 1 2 2 1 1 1 1 0 1 1 1 1 1 1 1 1 2 1 1 1 1 1
5 5 5 5 5 4 4 3 3 1 1 1 2 2 3 2 1 1 1 1 0 1 1 0 1 1 1 0 0 1 1 1 1 1 1 1 1 1 1 1 1 1 2
5 5 5 4 5 5 5 5 4 3 2 3 3 2 2 2 2 1 1 1 1 1 0 1 1 0 0 0 1 1 1 1 1 1 0 0 0 1 1 1 1 1 2
6 5 6 5 4 5 4 4 4 4 4 4 4 3 2 2 2 2 3 1 1 1 1 1 1 1 0 3 4 1 1 1 1 1 1 0 1 1 3 3 2 1 2
6 5 6 7 7 6 4 4 4 4 4 4 4 3 3 3 3 2 2 3 3 1 1 1 1 1 1 3 5 4 1 1 1 1 1 1 0 1 0 3 5 4 3
6 7 6 7 7 7 6 6 4 3 4 4 3 4 4 4 3 3 3 3 2 2 2 1 1 1 1 4 5 5 4 2 1 1 1 1 1 1 1 1 1 2 2
7 7 6 6 7 7 7 6 6 5 5 5 5 5 4 3 4 5 4 3 3 3 3 2 3 2 1 4 6 5 3 2 2 1 1 1 1 2 3 1 2 1 1
7 7 6 6 7 7 6 6 5 5 5 4 4 3 3 3 4 4 4 4 3 3 3 2 2 3 2 4 6 6 2 1 2 1 1 4 3 5 5 1 1 2 2
7 6 6 6 6 5 5 5 5 5 4 3 3 2 2 2 3 3 1 2 3 4 4 3 2 2 2 2 4 7 3 1 2 2 1 1 7 9 10 9 3 2 2
6 6 6 6 5 5 5 5 5 4 3 3 3 3 3 2 2 2 2 1 1 2 3 4 3 1 1 3 5 8 9 7 3 2 1 2 10 11 10 8 8 8 7
7 6 6 6 5 5 5 5 5 5 5 5 5 4 3 3 2 2 3 3 2 2 2 3 5 5 5 5 6 8 7 7 5 3 5 8 10 10 7 9 8 8 6
6 5 5 6 6 5 5 5 5 4 5 5 5 5 5 5 5 4 3 3 3 2 2 3 4 3 3 4 2 3 4 5 4 5 6 6 7 8 7 6 3 2 2
5 5 6 6 6 6 6 5 5 5 5 5 5 5 5 5 5 5 4 4 4 3 3 2 2 3 3 3 3 5 5 6 6 7 5 5 5 5 3 2 1 1 1
5 5 5 6 6 6 6 6 6 6 6 6 5 5 4 4 4 5 5 5 6 7 8 8 7 3 4 6 7 9 10 10 11 7 6 5 5 4 3 2 2 1 2

GFSMW_con_lsi_108.txt.gz
Lid_Strength_Index
3 3 2 2 2 2 1 2 1 1 1 1 1 1 2 1 1 1 -0 0 -0 0 0 1 0 1 1 1 2 1 2 2 1 2 2 2 2 2 1 1 1 1 0
4 3 3 2 2 2 1 1 1 2 2 1 1 0 1 1 1 1 0 -0 -0 -0 0 1 0 0 1 1 1 1 2 2 2 3 3 5 4 2 2 2 1 1 1
5 4 3 3 2 2 2 1 1 2 1 1 1 1 1 1 1 1 1 0 0 -0 -0 0 0 1 1 1 1 1 2 3 2 2 3 5 6 4 3 3 2 2 2
4 4 3 3 3 2 1 1 1 1 1 1 2 2 2 3 2 1 1 0 0 0 0 0 0 1 1 1 1 0 1 2 3 2 2 2 3 5 5 2 1 1 1
4 4 4 3 2 2 2 1 1 1 1 1 2 2 2 2 2 2 1 1 0 0 0 0 0 1 1 1 1 1 1 1 2 2 2 2 2 3 4 6 4 2 2
4 4 3 2 2 2 2 1 1 1 1 1 1 1 3 3 3 2 2 1 1 1 0 0 0 0 0 1 1 1 1 1 1 1 2 3 3 5 4 4 4 4 3
5 4 4 3 3 2 2 2 2 2 1 1 1 2 3 3 2 2 2 2 1 1 1 0 1 0 1 0 1 1 1 1 1 1 1 1 2 2 2 3 4 4 3
5 4 4 3 3 3 2 2 2 2 1 1 1 2 1 1 1 1 2 1 1 2 1 0 0 0 0 0 0 1 1 1 1 1 2 1 1 2 2 6 4 5 4
5 4 4 3 3 3 2 2 2 2 2 1 1 1 1 2 3 2 1 1 2 1 0 0 0 0 0 0 0 1 1 1 1 1 1 1 1 1 1 3 3 4 6
5 4 4 3 3 2 2 2 2 3 4 3 3 1 1 1 1 2 1 2 1 0 1 1 0 0 0 1 1 2 0 1 1 1 2 2 1 1 1 1 2 2 4
5 5 4 3 3 2 2 3 4 5 5 3 3 3 2 1 1 1 1 1 1 1 2 1 1 1 1 0 1 1 1 1 1 1 1 2 1 1 1 2 2 3 3
5 4 4 3 3 3 2 2 3 3 2 2 2 1 1 1 1 1 1 1 1 1 2 1 3 3 2 1 1 1 1 2 1 1 1 1 1 1 1 1 2 2 2
5 4 4 4 3 3 3 3 2 2 1 1 1 1 1 1 1 1 1 1 1 1 2 3 3 3 2 1 1 1 1 1 1 1 1 1 1 1 1 1 2 2 1
5 6 5 5 4 4 3 3 3 2 1 1 1 2 2 2 2 2 1 1 1 2 2 3 2 1 1 0 1 0 1 1 1 1 1 1 1 2 2 2 2 2 2
5 5 6 6 5 5 5 4 4 3 2 2 2 1 2 2 2 2 3 1 1 1 1 1 1 1 1 0 1 1 1 1 1 1 1 1 1 2 2 1 1 2 2
5 5 4 5 6 5 5 5 5 4 3 3 3 3 3 2 2 2 2 2 2 2 2 1 1 1 0 3 3 1 1 1 1 1 1 1 0 1 2 3 3 2 2
5 6 6 6 7 4 4 4 4 4 4 4 4 4 3 3 3 2 2 2 3 3 3 2 2 1 1 4 5 5 3 2 1 1 2 1 0 1 1 2 3 4 5
7 7 8 8 7 6 6 3 3 5 6 6 6 5 4 4 3 2 3 3 2 2 2 3 3 3 1 5 6 5 3 3 3 2 1 1 1 2 2 1 1 1 1
7 8 7 7 8 7 7 6 7 7 7 7 7 6 6 6 5 4 3 3 3 3 3 2 2 2 2 5 6 5 3 2 2 2 2 2 1 3 3 1 2 2 1
7 8 8 8 8 8 8 8 8 8 8 8 7 7 6 6 6 6 5 4 4 4 3 2 2 3 2 4 6 5 3 2 2 1 1 5 4 8 8 4 2 2 2
7 7 7 7 7 7 6 7 8 8 6 5 5 5 5 5 5 5 5 4 4 4 4 4 3 2 2 1 5 6 2 2 2 1 1 2 9 10 10 10 6 5 4
7 7 7 7 7 6 6 8 8 7 7 6 6 6 5 4 3 4 3 3 3 3 3 4 5 5 5 5 8 8 7 5 3 4 3 4 10 11 10 8 7 8 8
7 7 6 7 7 7 7 7 7 7 7 7 7 6 6 5 5 5 5 4 4 4 3 2 3 5 6 5 7 7 7 6 4 3 5 8 9 10 8 7 7 7 5
8 8 7 7 7 7 7 7 7 7 7 7 7 6 6 6 6 6 5 6 6 6 5 5 4 2 3 4 4 4 5 5 5 4 4 5 6 7 6 6 3 2 2
8 7 7 7 7 7 6 6 7 7 7 7 7 7 6 6 6 6 6 6 6 6 6 6 5 4 4 3 4 4 3 4 6 6 5 5 6 5 5 3 2 1 1
6 7 7 7 7 7 7 7 7 7 8 8 8 8 7 7 6 6 6 6 7 7 8 9 8 6 7 8 9 9 10 11 9 4 4 4 5 6 5 3 2 1 2

GFSMW_con_lsi_114.txt.gz
Lid_Strength_Index
4 3 2 2 1 1 2 2 2 1 0 1 2 2 1 1 -0 -1 -1 -1 -1 -1 -1 -1 -1 -1 -0 0 -0 -0 1 1 0 1 1 1 0 0 0 -1 -0 -1 -0
5 4 3 2 2 2 1 1 1 1 0 0 0 0 1 -0 -0 -0 -1 -1 -1 -1 -1 -0 -1 -0 -0 -0 -0 0 1 1 1 2 2 4 2 1 1 0 0 0 0
5 4 4 3 2 2 2 1 1 1 1 0 0 0 0 0 0 0 -0 -1 -1 -0 -1 -1 -1 -1 -1 -0 -0 -0 1 2 1 1 2 4 5 3 1 0 0 0 0
4 4 4 3 3 2 1 1 1 1 1 0 1 1 2 2 1 1 -0 -0 -1 -1 -1 -1 -1 -1 -1 -1 -0 -0 0 0 2 1 1 1 2 4 4 1 1 -0 0
5 4 4 3 2 2 2 1 1 1 1 1 1 1 1 1 1 0 0 0 -0 -0 -1 -1 -1 -0 -0 -1 -1 -0 0 0 1 1 1 1 2 2 3 4 3 1 0
4 4 3 2 3 2 1 1 2 1 1 1 1 1 1 1 1 1 1 1 -0 -0 -0 -0 -1 -0 -0 -0 -1 -1 -0 -0 0 0 1 2 3 2 2 4 3 3 1
5 4 4 4 3 2 2 2 1 2 1 1 1 2 1 1 1 1 1 1 1 0 -0 -0 -0 -0 -1 -1 -1 -1 -1 -0 0 0 1 1 1 1 1 2 3 3 2
5 4 4 3 3 2 2 2 2 2 1 1 1 1 2 1 1 1 1 1 1 0 -0 -0 -0 -0 -1 -1 -1 -0 -0 -0 0 0 0 0 0 0 2 3 3 3 3
5 4 3 3 3 2 2 2 2 2 1 1 1 2 2 2 1 1 1 0 0 0 -0 -0 -1 -1 -1 -1 -1 -0 -0 -0 -0 0 -0 0 0 -0 -0 0 1 2 5
5 4 4 3 2 2 2 1 1 1 1 1 1 1 2 1 -0 0 1 0 0 -0 0 -0 -0 -0 -0 -1 -0 -0 -0 -0 0 -0 0 0 -0 -0 -0 0 0 1 2
5 4 4 3 3 2 2 2 2 2 1 1 1 1 1 1 1 1 1 1 -0 0 0 0 -0 -0 -0 -0 -0 -0 0 0 0 -0 0 0 -0 0 -0 -0 0 1 1
5 4 4 3 3 3 2 3 3 3 2 2 2 2 2 1 1 0 0 0 0 0 0 0 0 -0 -0 -0 0 0 0 0 1 0 0 1 0 0 -0 0 1 1 0
5 4 4 4 3 3 3 3 2 2 1 1 2 2 1 1 1 0 0 -0 1 1 1 1 1 1 0 0 -0 0 0 0 0 0 0 0 0 1 0 0 1 1 1
5 5 4 4 3 3 3 2 2 2 1 1 2 2 1 1 1 1 0 0 1 1 1 1 2 1 0 1 0 0 0 0 0 -0 -0 0 0 1 0 1 0 1 1
6 5 5 4 4 3 3 2 2 3 2 1 1 1 1 1 1 2 2 1 1 1 0 1 1 1 1 1 1 -0 0 0 0 0 -0 -0 -0 1 1 0 0 1 1
6 5 5 5 4 3 3 3 3 3 2 3 3 2 3 2 1 2 2 2 2 1 1 1 1 1 1 5 4 2 0 0 0 1 0 -0 1 1 3 4 3 1 1
7 7 5 5 5 4 4 4 4 4 5 5 5 4 3 3 2 3 2 2 2 2 2 2 2 1 2 6 6 4 1 1 1 1 1 1 -0 0 -0 2 4 4 5
7 6 6 6 6 6 6 6 6 6 7 7 7 6 6 5 4 3 3 3 2 3 2 2 1 1 1 5 6 5 1 1 1 1 1 1 1 0 1 0 0 0 -0
7 7 6 7 7 8 7 7 6 7 8 8 8 7 7 7 6 5 4 3 2 2 2 2 1 1 1 5 5 3 1 1 1 1 0 1 0 7 7 1 1 1 0
7 7 6 7 7 7 7 8 9 8 9 9 8 8 7 8 7 7 6 5 4 3 2 3 2 3 0 6 6 4 1 1 1 0 1 6 5 8 9 3 2 2 1
7 7 7 8 9 8 9 10 10 10 9 8 8 8 8 7 8 7 7 7 6 6 6 4 3 3 3 4 7 7 2 1 1 1 1 1 6 8 9 9 5 3 3
8 7 8 8 8 8 8 9 9 9 8 8 8 9 8 8 9 8 8 8 7 7 6 6 7 6 5 6 7 8 7 5 4 3 2 2 8 10 10 8 7 8 7
8 7 8 9 8 8 8 9 9 8 8 8 8 8 8 8 7 7 7 8 7 6 6 5 5 5 5 5 8 9 9 7 4 4 5 8 9 9 7 7 7 7 2
7 8 9 9 9 8 8 8 8 8 8 9 8 8 8 8 8 7 7 7 7 6 6 6 6 6 5 5 5 6 6 6 6 5 6 6 7 8 7 5 4 2 2
7 8 8 9 9 9 9 9 9 9 9 9 9 8 8 9 9 9 8 7 7 7 6 7 7 6 6 6 9 9 7 8 7 7 3 2 4 5 5 4 3 2 2
7 8 8 8 9 9 9 8 8 8 9 9 9 8 8 8 9 9 9 9 9 9 10 10 9 7 8 10 10 11 12 11 9 4 3 4 3 3 3 3 3 3 4

GFSMW_con_lsi_117.txt.gz
Lid_Strength_Index
3 2 2 1 1 1 1 0 0 -0 -0 0 0 0 1 -0 -1 -1 -1 -1 -2 -1 -2 -1 -1 -2 -1 -1 -1 -1 -0 0 -0 0 -0 -1 -1 -1 -1 -1 -1 -1 -1
4 3 2 2 1 1 1 0 0 -0 -0 -0 -0 -1 -0 -1 -1 -1 -1 -1 -1 -1 -1 -2 -1 -1 -1 -1 -1 -0 0 0 -0 1 1 2 1 -0 -0 -1 -1 -1 -1
4 3 3 2 2 2 1 1 0 -0 -0 -1 -0 -0 -1 -1 0 -0 -0 -1 -1 -1 -1 -1 -2 -1 -1 -1 -0 -0 0 1 0 -0 1 3 4 2 -0 -0 -0 -1 -1
4 3 3 3 2 1 1 0 0 -0 -0 -1 -0 0 1 1 0 -0 -1 -1 -1 -1 -1 -1 -1 -1 -1 -1 -1 -1 -0 0 1 0 0 0 1 3 3 1 0 -0 -0
4 4 3 2 2 1 1 0 0 -0 -0 -0 -0 0 0 -0 -0 -0 -1 -1 -1 -1 -1 -1 -1 -1 -1 -1 -1 -1 -0 -0 1 1 1 0 1 1 2 3 2 -0 -0
4 3 2 2 2 1 1 1 1 0 -0 -0 -0 0 0 0 0 0 1 0 -0 -1 -1 -1 -1 -1 -1 -1 -1 -1 -1 -0 -0 0 0 1 1 2 2 3 2 2 1
4 4 3 3 2 2 1 1 1 1 0 0 0 0 0 0 0 0 0 0 0 -0 -0 -1 -1 -1 -1 -1 -1 -1 -1 -1 -0 -0 0 0 1 0 1 1 2 2 1
4 4 3 2 2 2 1 1 1 1 0 0 0 -0 -0 0 0 -0 0 0 0 -1 -1 -1 -1 -1 -1 -1 -1 -1 -1 -1 -1 -0 -0 -0 -0 -0 -0 1 2 2 2
4 4 3 2 2 2 2 1 1 1 0 0 -0 0 -0 -0 0 -0 -0 -0 -1 -1 -1 -1 -1 -1 -1 -1 -1 -1 -0 -1 -1 -1 -1 -1 -1 -1 -1 -1 -0 2 4
4 4 3 3 2 2 1 1 1 1 1 0 0 -0 -0 -0 -0 -0 -0 -0 -1 -1 -1 -1 -1 -1 -1 -1 -1 -1 -1 -0 -1 -1 -0 -1 -1 -1 -1 -1 -1 -0 2
5 4 3 2 2 2 1 1 1 1 1 0 -0 0 -0 -0 -0 -0 -0 -0 -1 -1 -1 -1 -1 -1 -0 -1 -1 -1 -1 -0 -0 -0 -0 -0 -1 -0 -0 -1 -1 0 1
4 4 3 3 2 2 2 2 1 1 1 0 0 0 -0 -0 0 -0 -0 -1 -0 -1 -1 -1 -1 -1 -1 -1 -0 -0 -0 0 0 0 -0 0 -0 -0 -1 -0 0 0 -0
4 4 4 3 3 3 2 2 1 1 1 0 0 0 0 0 0 -0 -0 -0 -0 -0 -1 -1 -0 -0 -0 -1 -1 -1 -0 -0 -0 -0 0 0 -0 0 -0 0 0 0 0
5 4 4 3 3 3 2 2 2 1 1 1 1 1 1 0 0 -0 -0 -0 -1 -0 -0 -1 -0 -1 -1 -1 -1 -1 -0 -0 -0 -1 -1 -0 -0 -0 -0 -0 -0 -0 -0
5 5 4 4 3 3 3 2 2 1 0 1 1 1 0 -0 -0 0 -0 -0 -0 -0 -1 -0 -1 -1 -1 -0 -0 -0 -0 -0 -0 -0 -1 -1 -0 1 0 -0 -0 -0 1
5 5 4 4 4 3 3 3 3 2 1 2 1 1 0 0 0 0 0 0 0 -0 -0 0 -0 0 -0 5 4 1 -0 -0 -0 -0 -0 -1 0 0 3 3 3 1 0
5 5 4 4 3 3 2 3 4 4 5 5 3 3 1 1 1 1 1 1 1 -0 0 -0 0 0 0 6 5 4 -0 -0 -0 -0 -0 -0 -0 0 -1 2 3 3 4
5 5 6 6 6 6 5 5 6 6 6 6 5 4 4 3 2 1 1 1 0 0 0 0 -0 -0 0 5 6 4 -1 -1 -0 -0 -0 -0 -0 -0 0 -0 -0 -0 -0
5 6 7 7 7 7 6 6 6 7 6 6 6 5 3 3 4 4 3 1 0 0 0 -0 0 0 -0 5 5 2 -0 -0 -0 -0 -0 -0 -0 7 7 0 1 0 0
6 6 7 7 7 8 7 7 7 7 8 7 7 6 6 5 6 5 5 3 2 2 1 0 -0 3 2 7 7 3 1 1 1 0 1 6 5 7 8 2 0 1 1
6 6 7 8 8 8 8 9 9 9 9 7 7 8 7 6 6 6 5 4 3 3 3 2 2 1 3 5 8 8 2 3 3 3 2 1 7 9 9 8 2 3 4
6 6 8 9 8 8 8 8 9 8 8 7 7 7 8 8 7 6 6 5 4 5 5 5 4 5 4 8 9 9 9 7 3 3 3 3 9 10 9 6 6 7 6
6 6 7 7 8 7 7 8 7 7 7 7 7 7 6 6 7 7 7 7 5 6 5 5 4 3 3 2 5 6 7 8 5 4 6 8 9 8 6 7 6 5 0
5 5 6 7 7 6 6 6 6 6 6 7 7 7 7 7 7 7 7 7 7 6 5 5 4 3 3 4 4 3 2 3 5 7 5 6 7 8 6 4 3 1 1
5 5 6 6 6 6 6 6 6 5 6 6 6 7 7 7 7 7 7 7 7 7 5 5 4 4 4 6 8 8 5 5 5 5 1 2 4 5 4 2 2 2 2
6 5 5 6 6 6 6 6 6 6 7 7 8 7 7 8 7 7 7 9 9 10 11 11 9 6 9 10 11 12 11 11 10 3 3 2 2 2 2 3 3 2 1

GFSMW_con_lsi_120.txt.gz
Lid_Strength_Index
2 1 1 1 1 0 0 -0 -0 -1 -0 0 0 0 0 -0 -1 -1 -2 -2 -2 -2 -2 -2 -2 -2 -1 -1 -1 -1 -1 -0 -1 -0 0 -0 -1 -1 -1 -1 -1 -1 -1
3 2 2 1 1 1 0 0 -0 -0 -1 -0 -1 -1 -1 -1 -1 -1 -2 -2 -2 -2 -2 -2 -2 -2 -1 -1 -1 -1 -0 -0 -0 1 0 2 1 -0 -1 -1 -1 -1 -2
4 3 2 2 1 1 1 0 -0 -0 -1 -1 -1 -0 -1 -2 -1 -0 -0 -1 -2 -2 -2 -2 -2 -2 -1 -1 -1 -1 -0 1 -0 -0 1 3 3 1 -0 -0 -0 -1 -1
3 3 2 2 2 1 0 -0 -0 -0 -1 -1 -1 -1 1 1 0 -1 -1 -1 -2 -2 -2 -2 -2 -2 -2 -1 -1 -1 -0 0 1 -0 -0 -0 1 3 3 1 -0 -1 -1
3 3 2 2 1 1 1 0 -0 -0 -1 -1 -1 0 0 0 -0 -1 -1 -1 -2 -2 -2 -2 -2 -1 -1 -2 -2 -1 -1 -1 0 1 -0 0 -0 -0 2 3 2 -0 -1
3 3 2 1 1 1 1 0 0 0 -1 -0 -1 -0 -0 -0 0 0 1 0 -0 -1 -2 -2 -2 -2 -2 -1 -1 -2 -1 -1 -0 -0 -0 1 1 2 1 2 1 2 0
4 3 3 2 2 1 1 1 0 0 -0 -0 -0 -1 -1 -0 -0 -0 0 -0 0 -0 -1 -1 -1 -1 -2 -2 -2 -1 -1 -1 -0 -0 0 -0 0 -0 0 1 1 2 0
4 4 3 2 2 1 1 1 1 1 0 -0 -0 -1 -1 -1 -1 -0 -0 0 -0 -0 -1 -1 -2 -1 -2 -2 -2 -1 -1 -1 -1 -0 -0 -0 -1 -1 -0 1 2 3 1
5 3 2 2 2 1 1 1 1 0 0 -0 -0 -0 -1 -1 -1 -1 -1 -0 -1 -1 -1 -1 -1 -1 -2 -2 -2 -1 -1 -1 -1 -1 -1 -0 -1 -1 -1 -1 0 2 4
4 3 2 2 1 1 1 0 0 0 0 -0 -0 -0 -0 -1 -1 -1 -1 -1 -1 -1 -1 -1 -1 -1 -1 -2 -1 -1 -1 -1 -1 -0 -1 -1 -1 -1 -1 -0 -0 0 2
4 3 3 2 1 1 1 1 1 1 0 0 -0 -0 -0 -1 -1 -0 -1 -1 -1 -1 -1 -1 -1 -1 -1 -1 -1 -1 -1 -0 -1 -1 -1 -1 -1 -0 -0 -0 -0 0 0
4 4 3 2 2 2 1 1 1 1 0 -0 -0 -0 -0 -1 -0 -0 -1 -1 -1 -1 -1 -1 -1 -1 -1 -1 -1 -0 -1 -0 -0 -0 -0 -0 -0 -1 -1 -0 -1 -0 -0
4 3 3 3 2 2 1 1 1 1 0 0 0 0 0 -0 -0 -0 -1 -1 -1 -1 -1 -1 -1 -1 -1 -1 -1 -1 -1 -1 -0 -1 -0 -0 -0 -0 -0 -0 0 -0 -0
4 4 3 3 2 2 2 1 1 1 0 0 0 0 0 -0 -0 -1 -1 -1 -1 -1 -1 -1 -1 -1 -1 -1 -1 -1 -1 -1 -1 -1 -1 -1 -0 -0 -0 -0 -0 -0 0
5 4 4 3 3 2 2 2 1 1 1 1 1 1 0 -0 -0 -0 -0 -1 -1 -1 -1 -1 -1 -1 -1 -0 -1 -1 -1 -1 -0 -1 -1 -1 -1 0 0 0 -1 -0 0
5 4 4 3 3 3 3 2 2 1 1 1 1 1 0 0 0 0 -0 -0 -0 -1 -1 -0 -0 -0 -1 5 3 1 -0 -1 -0 0 -0 -1 -0 -0 2 2 2 1 0
4 4 3 3 3 3 3 4 4 2 2 1 1 1 0 1 0 0 0 1 0 -0 0 -0 -0 0 -0 6 5 3 -0 -0 -0 -1 -0 -0 -1 -0 -1 2 3 3 3
4 4 4 5 4 2 2 2 4 5 5 5 4 2 1 1 0 1 1 0 0 0 0 0 0 0 1 5 5 4 -1 -1 -1 -1 -1 -1 -1 2 1 -0 -0 -0 -1
4 5 6 6 6 5 3 3 3 4 5 6 5 4 3 3 3 1 1 0 0 0 0 0 0 1 3 7 7 3 -1 -0 0 -0 2 -0 2 7 7 -0 0 0 -0
5 6 6 7 8 7 5 5 6 5 6 5 6 5 4 4 4 4 2 1 -0 0 0 0 1 3 3 9 8 4 -0 0 0 -0 -0 5 5 8 8 2 0 1 1
5 5 7 9 8 8 8 8 7 7 6 6 6 5 4 4 4 3 2 2 1 -0 1 1 1 3 4 5 8 8 2 2 1 2 1 1 7 9 9 8 1 2 3
6 6 7 8 8 8 8 9 8 6 6 6 7 6 6 6 5 3 3 2 2 2 2 1 1 2 3 8 8 9 8 6 2 2 3 3 8 9 8 6 7 7 5
5 5 8 8 7 7 7 8 7 6 6 6 6 6 6 6 6 6 5 5 4 3 2 2 2 3 3 3 6 6 6 4 2 2 4 7 8 8 6 7 6 6 1
6 5 7 8 8 7 7 6 6 6 5 6 5 5 5 5 5 7 7 6 5 4 5 5 4 3 2 3 3 2 1 2 1 2 -0 1 3 6 5 4 3 2 1
6 5 6 7 6 6 6 6 6 5 5 5 5 5 6 5 6 7 7 7 8 8 5 5 5 5 5 7 9 9 5 4 4 5 1 1 1 1 3 4 2 2 2
6 5 5 6 6 6 6 5 4 4 4 5 5 6 5 5 5 6 7 10 10 11 11 11 9 7 11 12 11 12 11 11 10 4 3 3 2 2 2 2 1 0 -0

GFSMW_con_lsi_123.txt.gz
Lid_Strength_Index
3 1 1 1 1 0 1 0 1 -1 -0 0 0 0 0 -0 -1 -1 -2 -2 -2 -2 -2 -1 -2 -2 -1 -1 -1 -1 -1 0 -1 0 1 0 -0 -1 -1 -1 -1 -1 -1
3 2 2 1 1 1 1 0 -0 -0 -0 -1 -0 -0 0 -1 -1 -1 -2 -2 -2 -2 -2 -1 -1 -1 -1 -1 -1 -1 1 0 -1 1 1 3 2 0 -0 -1 -0 -1 -1
5 3 2 2 1 1 1 1 -0 -0 -1 -1 -1 -1 -1 -0 0 0 -0 -1 -2 -2 -2 -2 -2 -2 -1 -0 -1 -1 -1 1 0 -0 2 4 5 2 1 -0 -0 -1 -0
4 3 2 3 1 1 0 -0 -0 -0 -1 -1 -0 -0 1 1 0 0 -0 -0 -2 -2 -2 -2 -2 -2 -1 -1 -1 -1 -0 0 1 -0 0 0 1 4 4 1 0 -0 -0
4 3 3 2 1 1 1 0 -0 -0 -1 -1 -1 0 0 1 -0 0 -1 -1 -2 -2 -1 -2 -2 -2 -1 -1 -1 -1 -0 -0 1 1 0 0 1 -0 2 5 2 1 0
3 3 3 1 2 1 0 0 0 0 -0 -0 -0 -0 0 0 1 0 1 0 -0 -1 -2 -2 -2 -2 -2 -1 -1 -1 -1 -0 -0 0 0 1 2 2 2 3 3 2 1
3 4 3 3 2 2 1 1 0 1 -0 -0 0 -0 -0 -0 -0 0 0 0 1 0 -0 -2 -1 -1 -2 -1 -2 -1 -1 -1 -0 -0 1 -0 0 0 1 2 3 3 1
3 3 3 3 2 2 1 1 1 1 0 -0 -0 -0 -1 0 0 -0 0 0 -0 -0 -1 -1 -2 -2 -1 -1 -2 -1 -1 -1 -1 -1 -0 0 -0 -0 0 1 2 3 3
3 3 3 2 2 1 2 1 1 0 0 -0 -0 -0 -1 -0 -0 -1 -1 -0 -1 -1 -1 -1 -1 -2 -1 -1 -2 -0 -1 -1 -1 -1 -1 -0 -0 -0 -0 0 0 2 4
4 3 3 2 2 1 1 0 0 1 0 -0 -0 -0 -0 -1 -1 -1 -0 -1 -1 -1 -1 -1 -1 -1 -1 -1 -2 -1 -1 -1 -0 -0 -1 -1 -0 -1 -0 -0 0 0 2
4 3 3 2 2 1 1 1 1 1 0 0 -0 -0 -0 -1 -1 -0 -1 -1 -1 -1 -1 -1 -1 -1 -1 -1 -1 -1 -1 -0 -1 -1 -1 -1 -1 0 -0 -0 -0 0 1
4 3 3 2 2 3 1 1 1 1 0 0 -0 -0 -0 -1 -0 -0 -1 -1 -1 -1 -1 -1 -1 -1 -1 -1 -1 -0 -1 -0 -0 -0 -1 -0 -0 -1 -1 -0 -0 -0 -0
4 3 3 3 2 2 1 1 1 1 0 0 0 0 0 -0 -0 -0 -1 -1 -1 -1 -1 -1 -1 -1 -1 -1 -1 -1 -0 -0 -0 -1 -1 -0 -1 -0 -0 -0 0 0 0
5 3 3 3 2 2 2 1 1 0 0 1 1 1 0 -0 -0 -1 -1 -1 -1 -1 -1 -1 -1 -1 -1 -1 -1 -1 -1 -1 -1 -1 -1 -1 -1 -1 -0 -0 -0 -0 0
5 5 4 3 2 2 2 1 1 1 0 0 0 0 -0 -0 -0 -0 -0 -1 -1 -0 -1 -1 -1 -1 -1 -0 -1 -1 -1 -1 -0 -1 -1 -1 -1 -0 1 0 -0 0 1
5 4 4 3 3 2 2 2 1 1 0 1 1 0 0 0 0 -0 -0 -0 -0 -1 -1 -1 -0 -0 -0 4 3 0 -0 -0 -0 -0 -1 -1 -0 -0 1 1 2 0 0
5 4 4 3 3 3 3 3 2 1 1 1 1 1 1 1 0 0 0 0 0 -0 -0 -0 -1 -0 0 6 5 3 -0 -0 -0 -0 -0 -0 0 -0 -0 1 3 3 3
4 4 4 3 3 2 3 3 3 2 3 4 4 2 1 1 1 0 1 0 0 0 0 0 -0 2 5 8 7 5 -0 -0 -0 -0 -1 -0 0 4 2 -0 0 -0 -0
4 3 3 4 3 2 2 2 2 2 2 4 4 4 3 2 2 1 1 1 0 1 1 0 2 3 4 8 7 4 -1 -0 0 -0 1 0 2 7 7 0 0 0 0
3 5 6 6 7 6 2 3 3 1 2 4 4 3 4 5 5 3 3 1 0 1 1 2 2 5 4 9 8 6 -0 0 -0 -0 1 7 4 7 7 2 1 1 1
4 5 6 7 8 7 7 4 3 3 3 3 3 4 4 4 4 3 3 2 1 1 2 3 4 4 3 5 8 7 1 1 0 0 0 1 7 8 8 7 1 3 3
5 5 6 7 8 7 8 8 7 5 4 4 5 5 4 5 3 2 2 2 2 1 2 2 4 4 6 7 8 8 7 6 1 1 2 2 8 8 8 6 7 6 4
6 5 6 7 7 7 7 8 7 6 5 5 5 5 4 5 4 5 3 2 2 2 1 1 2 3 2 3 7 7 6 6 3 4 5 7 7 7 5 6 6 6 2
6 6 6 8 7 7 7 6 6 5 5 6 5 5 5 5 5 5 5 5 5 4 3 2 2 2 3 5 6 5 3 2 1 2 2 1 2 3 2 1 0 -1 0
6 6 6 7 7 5 7 6 5 5 5 5 6 5 5 5 6 6 7 8 9 9 5 5 6 6 7 8 11 10 7 6 5 6 1 1 1 1 1 1 0 -0 -0
4 5 6 6 6 6 6 5 5 5 5 6 5 5 6 5 6 6 8 11 11 12 13 12 9 10 11 11 12 12 12 12 11 5 3 3 2 2 2 2 2 1 1

GFSMW_con_lsi_126.txt.gz
Lid_Strength_Index
3 2 2 1 1 1 1 1 1 0 -0 0 1 1 1 -0 0 -1 -2 -2 -3 -3 -1 -1 -1 -0 0 -0 -0 0 1 1 0 1 1 1 0 0 -0 -0 -0 -0 -1
3 3 2 2 1 2 1 1 1 0 -0 -0 -0 0 0 -0 -0 -1 -2 -2 -2 -3 -1 -1 -0 -1 0 -0 -0 -0 1 1 0 2 3 4 3 1 0 0 -0 0 -0
4 4 3 2 2 2 2 1 1 0 -0 -1 0 0 -0 -0 0 0 -0 -0 -2 -2 -1 -2 -1 -0 -0 0 0 0 1 2 1 0 3 5 6 3 3 3 1 0 1
4 4 3 3 2 2 1 1 1 0 -0 -1 -1 1 2 2 1 0 -0 -1 -2 -1 -3 -2 -2 -1 -1 0 0 -0 0 1 2 1 1 4 2 5 5 3 3 2 2
4 4 3 2 2 1 1 1 1 0 -0 -0 -1 1 1 0 -0 1 -0 0 -2 -2 -1 -2 -2 -1 -1 -0 -0 -0 0 0 1 2 2 2 2 3 4 5 3 1 2
4 3 3 3 2 1 1 1 1 1 0 -0 -0 0 -0 1 1 1 1 1 0 -0 -1 -1 -2 -2 -1 0 -0 -0 -0 0 0 0 1 2 3 4 6 5 4 3 2
4 3 4 3 3 2 2 1 1 1 1 0 0 0 0 0 1 1 1 1 1 0 -0 -1 -1 -1 -2 -1 -1 -0 -0 -0 0 0 1 1 1 1 2 3 3 4 2
4 3 4 3 3 2 2 1 2 1 1 1 0 -0 -0 0 0 0 -0 1 1 0 -0 -1 -1 -1 -1 -2 -1 -0 -0 -0 -0 0 0 1 0 0 1 2 3 4 4
4 3 3 3 3 2 2 2 2 1 1 1 1 0 0 -0 -0 -0 -0 0 -0 -0 -1 -1 -1 -1 -0 -1 -1 -0 0 0 0 0 0 1 0 0 0 0 1 3 5
4 3 4 3 3 2 2 1 1 1 1 1 1 1 0 -0 -0 -0 -0 -1 -1 -0 -0 -0 -0 -0 -1 -1 -1 -0 -0 0 -0 0 0 0 0 0 0 1 1 1 3
4 3 3 3 2 2 2 2 2 1 1 1 1 1 1 0 0 0 -0 -0 -1 -1 -0 -1 -0 -0 0 -0 -0 -0 -0 0 0 0 0 0 -0 1 1 1 1 1 1
4 3 3 2 3 3 2 2 2 1 1 1 1 1 0 0 0 0 0 -0 -0 -1 -1 -1 -1 -0 -0 -0 0 0 0 1 1 0 0 1 0 0 0 1 1 1 1
4 3 3 3 3 3 3 4 4 2 1 1 1 1 1 0 1 0 0 -0 -0 -0 -1 -1 -0 -0 -0 -0 0 0 0 0 1 0 0 0 0 0 0 1 1 1 1
4 4 3 3 3 3 3 2 2 1 1 2 1 1 1 1 0 0 -0 -0 -0 0 -0 -0 -0 -0 -0 -0 0 0 0 0 0 0 0 0 0 1 0 1 1 1 1
5 5 4 4 3 3 3 2 1 1 -0 1 1 1 0 0 -0 -0 -0 -0 -0 0 -0 -0 -0 -0 -1 0 1 0 0 0 0 -0 -0 -0 -0 0 1 0 0 1 1
5 4 4 3 3 3 2 2 2 1 1 1 1 0 0 0 0 -0 0 0 0 -0 -0 0 0 0 1 5 3 1 -0 0 0 1 0 -0 -0 0 1 1 2 0 1
5 5 4 3 3 3 2 2 2 1 1 1 1 1 1 1 1 0 0 0 0 0 0 0 0 1 3 6 5 3 0 -0 -0 0 0 0 1 2 -0 1 2 3 3
5 4 4 3 3 2 2 1 1 1 2 2 3 2 2 3 1 1 1 1 0 0 0 0 1 4 6 8 7 5 -0 0 0 0 0 0 3 5 5 0 0 0 0
4 5 4 4 2 2 2 2 2 2 3 4 4 4 4 4 3 4 3 1 1 1 2 3 4 5 7 8 8 4 0 0 1 2 4 1 3 7 7 0 1 1 0
4 5 6 6 6 5 2 2 2 2 3 4 4 4 4 5 4 4 4 2 2 2 4 4 5 6 6 8 8 4 1 1 1 2 4 6 5 7 7 1 1 2 2
6 6 7 7 7 6 5 3 3 3 3 2 3 3 2 3 3 3 3 2 2 3 5 6 5 5 5 6 8 8 4 4 1 1 1 3 6 7 7 7 1 2 4
6 7 8 8 7 7 7 7 7 4 3 3 4 4 4 3 2 3 3 2 2 3 4 5 5 5 5 7 7 8 7 6 2 3 3 2 7 7 6 4 5 5 5
5 6 7 8 7 7 7 8 7 6 6 5 5 4 3 3 4 3 3 2 2 3 3 3 5 7 6 6 7 7 7 6 4 5 6 7 8 7 6 5 5 5 1
6 6 6 7 7 6 7 7 6 6 5 6 5 4 4 4 3 5 5 7 8 5 3 4 5 6 8 9 9 10 8 7 6 6 4 4 6 6 5 3 -0 -0 0
6 6 7 6 6 6 6 6 6 6 6 6 6 6 5 5 7 9 9 10 12 11 7 7 8 7 9 11 11 12 10 9 8 8 1 1 1 1 1 1 0 0 0
5 4 5 6 7 5 6 6 5 5 6 6 6 6 6 6 7 8 10 11 12 13 14 13 10 11 11 12 13 13 12 12 11 5 3 3 3 3 3 3 2 2 2

GFSMW_con_lsi_129.txt.gz
Lid_Strength_Index
3 2 2 2 2 1 1 1 1 1 1 1 2 2 2 1 1 0 -0 0 3 3 2 0 1 1 1 1 1 1 1 2 1 2 2 1 1 2 2 2 1 0 1
4 3 3 2 2 2 2 1 1 1 1 1 1 1 1 1 1 0 0 0 0 -0 0 0 0 1 2 1 1 1 2 2 2 3 3 5 3 2 2 2 -0 -0 -0
5 4 3 3 2 2 2 1 1 1 1 1 1 1 0 1 1 2 1 0 0 -0 -0 0 1 4 3 3 2 1 1 3 1 1 3 5 6 4 2 1 0 2 0
5 4 3 3 3 2 1 1 1 1 1 0 1 2 2 3 2 1 1 0 0 -0 0 0 0 3 5 4 1 0 1 1 3 2 1 3 2 5 5 2 1 1 0
5 4 4 3 2 2 2 1 1 1 1 1 1 1 2 1 1 1 1 1 1 0 -0 0 0 0 0 1 0 1 1 2 3 4 2 2 2 2 4 5 3 1 0
5 4 3 3 2 2 2 1 1 1 1 1 1 1 2 2 2 1 1 1 1 0 1 0 0 0 1 2 0 1 1 1 4 4 2 3 3 3 3 4 4 3 2
4 4 4 4 3 2 2 2 2 2 1 1 1 1 1 1 2 2 1 2 1 1 1 0 0 0 1 0 1 0 1 1 1 1 1 1 2 3 3 3 4 4 2
4 4 4 3 3 3 2 2 2 2 1 1 1 1 1 1 1 1 1 1 1 1 0 0 0 0 0 0 0 1 0 1 1 1 1 1 1 1 2 3 3 5 4
5 4 4 3 3 3 2 2 2 2 1 1 1 1 1 1 1 1 1 1 1 0 0 0 0 0 0 0 0 1 1 1 1 1 1 1 1 1 1 1 2 3 6
5 4 4 3 3 2 2 2 1 2 2 1 1 1 1 1 1 1 1 1 1 1 0 0 0 0 0 0 1 1 1 1 1 1 1 1 1 1 1 1 1 2 3
5 4 4 3 3 2 2 2 2 2 2 1 1 1 1 1 1 1 1 1 1 1 1 0 0 0 0 0 1 1 1 1 1 1 1 1 1 1 1 1 1 1 2
4 4 4 3 3 3 2 3 2 4 2 1 1 1 1 1 1 1 1 0 1 0 0 0 1 1 1 1 1 1 1 1 2 1 1 1 1 1 1 1 2 2 1
5 4 4 4 4 3 3 2 3 3 3 2 1 1 1 1 1 1 1 0 1 1 0 0 1 1 1 1 0 1 1 1 1 1 1 1 1 2 1 1 1 1 1
5 5 4 4 3 3 3 2 2 1 3 3 1 2 1 1 1 1 1 1 0 1 1 1 1 1 1 1 1 1 1 1 1 1 1 1 1 2 1 1 2 1 2
5 5 5 4 4 3 3 2 2 2 2 2 2 2 1 1 1 1 1 1 1 1 0 1 1 0 1 2 3 1 1 1 1 1 0 1 1 0 1 1 1 2 2
6 5 4 4 4 4 3 2 2 3 1 2 2 1 1 1 1 1 1 1 1 1 1 1 1 2 3 5 4 2 1 1 1 1 1 1 3 2 2 3 2 2 2
5 5 4 4 3 3 3 3 2 3 3 3 3 3 2 2 2 1 1 1 1 1 1 1 3 4 6 7 6 3 1 1 1 1 1 1 4 5 3 1 2 3 3
5 5 4 4 3 3 2 2 3 4 4 4 4 4 4 4 4 3 2 2 2 2 2 4 6 7 7 8 7 5 1 1 3 3 3 5 7 7 5 2 2 2 3
5 6 6 4 3 2 2 3 4 4 5 5 5 4 4 4 5 5 4 2 1 3 4 5 7 8 9 8 7 3 1 4 5 5 4 5 7 6 4 2 3 5 4
6 7 6 6 5 4 2 4 4 5 5 4 4 4 4 4 4 3 3 3 4 5 5 6 7 8 8 9 8 6 2 4 6 6 7 6 7 7 7 3 6 7 6
7 7 7 8 7 6 4 5 5 5 4 4 5 4 4 4 4 3 3 3 5 5 6 6 6 7 8 8 9 8 7 5 3 4 6 6 7 7 7 6 6 6 6
7 7 7 7 7 6 6 8 7 5 5 5 5 5 5 4 3 2 2 2 4 5 6 6 6 6 7 9 9 9 8 6 7 7 7 7 8 7 7 6 5 5 3
7 7 7 8 6 7 7 8 7 6 5 6 6 5 5 5 5 4 3 3 3 4 5 6 7 7 8 9 10 10 9 8 9 9 8 8 8 7 6 5 5 4 3
8 8 8 8 7 7 7 7 6 6 6 7 6 5 6 8 9 9 10 10 9 6 5 4 7 9 10 10 12 12 11 10 10 11 10 8 7 7 6 5 5 5 6
6 7 8 8 7 7 7 5 5 6 6 6 6 7 8 9 11 12 11 11 13 12 8 9 9 9 11 13 13 14 14 13 12 13 7 6 6 4 4 3 4 5 5
7 7 6 6 6 6 6 6 6 5 5 6 6 6 7 8 9 11 13 11 12 13 13 13 12 13 13 13 14 15 14 14 13 8 8 9 8 8 7 6 7 7 6